GFSSW_prec_radar_000.txt.gz
Reflectivity
-20 -20 -20 -20 -20 -20 -20 -20 -20 -20 -20 9 -9 12 19 18 -2 -20 -20 -20 -20 -20 -20 -20 -20 -20 -20 -20 -20 -20 -20 -20 -20 -20 -20 -20 -20 -20 -20 -20 -20 -20 -20 -20 -20
-20 -20 -20 -20 -20 -20 -20 -20 -20 -20 -20 -19 12 10 -1 -17 -13 -6 -20 -20 -20 -20 -20 -20 -20 -20 -20 -20 -20 -20 -20 -20 -20 -20 -20 -20 -20 -20 -20 -20 -20 -20 -20 -20 -20
-20 -20 -20 -19 -20 -20 -20 -20 -20 -20 -20 -2 -10 -4 20 16 -6 -19 -20 -20 -20 -14 -20 -20 -20 -20 -20 -20 -20 -20 -20 -20 -20 -20 -20 -20 -20 -20 -20 -20 -20 -20 -20 -20 -20
-20 -20 -20 -9 -20 -20 -20 -20 -20 -20 -20 -19 -6 -11 -5 9 -20 -20 -20 -20 -20 3 -20 -20 -20 -20 -20 -20 -20 -20 -20 -20 -20 -20 -20 -20 -20 -20 -20 -20 -20 -20 -20 -20 -20
-20 -20 -20 -20 -20 -20 -20 -20 -20 -20 -20 -13 -17 -20 -20 -2 -20 -20 -20 -20 -20 -20 -20 -20 -20 -20 -20 -20 -20 -20 -20 -20 -20 -20 -20 -20 -20 -20 -20 -20 -20 -20 -20 -20 -20
5 -20 -20 -20 -15 -20 -20 -20 -20 -20 -5 -20 -20 -20 -20 -20 -20 -20 -20 -20 -20 -20 -20 -20 -20 -20 -20 -20 -20 -20 -20 -20 -20 -20 -20 -20 -20 -20 -20 -20 -20 -20 -20 -20 -20
7 -20 -20 -20 -20 -20 -20 -4 1 -20 -20 -20 -20 -20 4 -20 -20 -20 -20 -20 -20 -20 -20 -20 -20 -20 1 -20 -20 -20 -20 -20 -20 -20 -20 -20 -20 -20 -20 -20 -20 -20 -20 -20 -20
4 14 13 -20 -20 -5 -20 11 -20 8 -20 8 -20 -1 -20 -20 -20 -20 -20 -20 -20 -20 -20 -20 -20 9 -20 -20 -20 -20 -19 -13 -20 -20 -20 -8 -20 -20 -20 -20 -20 -20 -20 -20 -20
5 5 18 -19 -20 -13 11 -5 -20 -20 -20 10 -20 -20 -20 -20 -20 -20 -20 -20 -20 -20 -20 -20 -20 -20 -20 9 7 -18 -20 -20 -20 -20 -20 -8 -20 -20 -20 -20 -20 -20 -20 -20 -20
23 12 13 15 -18 -20 14 -20 -20 11 -7 5 3 -1 -20 -20 -20 -20 -20 -20 -20 -20 -20 -20 -20 -20 -20 12 -5 -20 -10 -20 -18 -19 -16 -20 -20 -20 -20 -20 -20 -20 -20 -20 -20
26 -2 -1 14 -20 -20 -20 -20 -20 -20 7 -20 -20 -20 -20 -20 -20 -20 -20 -20 -20 -20 -20 -20 -7 -5 -20 -20 -20 -20 -20 -20 -20 -20 -20 -20 -20 -20 -20 -20 -20 -20 -20 -20 -20
32 14 6 14 -9 -20 -20 -20 -20 -20 -20 -20 -20 -20 -20 -20 -20 -20 -20 -20 -20 -20 -20 -14 -3 -20 -20 -20 -20 -20 -13 -20 -20 -20 -13 -17 -20 -20 -20 -20 -20 -20 -20 -20 -20
-0 12 23 17 14 5 -9 -20 -20 -20 -20 -20 -20 -20 -20 -20 -20 -20 -20 -20 -20 -20 -20 -20 -20 -20 -20 -20 -20 -20 -20 -20 -20 -20 -20 -20 -20 -20 -20 -20 -20 -20 -20 -20 -20
19 9 10 22 14 -20 7 -20 -20 -20 -20 -20 -20 -18 -20 5 0 -20 -20 -20 -19 -19 -20 10 -20 -20 -20 -9 -20 -20 -20 -20 -20 7 -20 25 19 -20 -20 -20 -20 -20 -20 -20 -20
26 26 16 -20 -20 -20 -20 -20 -20 -2 -20 -20 -20 -20 2 2 -20 -20 -20 -13 -12 -20 -8 -20 -20 -20 -20 -20 -20 -20 -20 -20 -11 -0 13 -20 -2 -20 -20 -20 -20 -20 -20 -20 -20
34 27 20 16 -20 -20 -20 -20 -14 -11 -20 -20 -16 -20 5 7 1 -13 -5 10 -0 11 7 -20 -18 -20 -20 -20 -20 -4 7 -2 7 14 5 -20 1 -20 -20 -20 -20 -20 -20 -20 -20
40 25 13 25 -20 -20 -11 5 -14 -20 -20 -9 -12 -20 -20 -8 -11 3 6 18 33 18 17 26 -1 -18 -20 -20 -11 1 14 18 15 9 1 -20 -20 -20 -20 -20 -20 -20 -20 -20 -20
40 33 17 -20 -20 -20 -8 7 -10 -20 -20 -20 -20 -16 -18 -20 5 -13 16 9 14 23 32 -16 15 13 -20 -20 -7 -20 -16 1 -8 -20 -20 -20 -17 -20 -20 -20 -20 -20 -20 -20 -20
36 22 7 17 -20 -20 1 8 -20 -20 -20 -20 -10 0 -2 8 -20 10 7 -6 -19 14 2 13 12 -11 -9 -20 10 -4 8 -10 10 -20 8 -20 -20 -20 -20 -4 -20 -20 -20 -20 -20
42 45 14 12 -18 4 8 -20 -20 -20 -20 -20 -19 -14 -20 -20 3 4 -17 -20 -20 -16 13 -14 -20 -20 -20 -11 -17 -18 -20 -10 10 -7 -9 -20 -20 -20 -14 -19 -20 -20 -20 -20 -20
34 39 22 3 4 15 11 -20 -20 -20 -20 -20 -12 -9 -20 -20 -20 -17 -20 -20 -20 -20 -20 -20 -10 -20 -20 -18 -19 9 17 9 -20 -9 -10 -14 -20 -11 2 3 -6 -20 -20 -20 -20
47 41 30 9 33 27 2 -19 -20 -20 -20 5 -15 -6 -20 -20 -20 -20 -20 -20 -20 -20 -20 -20 1 -4 5 6 -7 -20 -20 -20 -13 -20 -16 20 -4 11 23 6 -20 0 -20 -20 -20
36 34 28 23 22 10 -3 -20 -20 12 6 -5 2 -14 -20 -9 -20 -20 -20 -20 -20 -20 -18 -9 22 19 15 2 19 33 -16 -20 -15 -11 24 18 -5 -18 8 -18 -20 -20 -20 -20 -20
35 33 31 31 10 -12 -8 3 0 0 -2 10 20 5 10 13 -20 -20 -20 -16 -11 6 19 21 25 17 18 34 16 10 6 -10 4 10 6 16 30 -8 3 -19 -20 -20 -20 -20 -20
34 33 13 34 23 -19 -18 -2 -20 -1 -14 -2 19 20 14 -20 -20 -18 -20 -3 14 24 28 28 21 29 22 26 40 14 7 16 23 18 15 14 19 -18 19 -20 -20 -20 -20 -20 -20
39 25 0 -17 -13 9 -8 14 -4 13 7 12 2 4 -16 2 -20 -20 -20 2 -13 18 33 33 27 37 34 9 -2 20 6 22 11 23 31 15 24 24 7 -20 -20 -20 -20 -20 -20
29 22 -15 -20 -20 4 -12 -20 -7 -10 -16 2 10 3 14 -20 -20 -4 -20 -20 -18 21 26 29 33 39 37 24 12 26 13 26 32 37 33 27 26 -1 -20 -20 -20 -20 -20 -20 -20

GFSSW_prec_radar_003.txt.gz
Reflectivity
-20 -20 -20 -20 -5 -12 -20 -20 -20 -20 5 9 16 20 21 -20 -12 -12 -20 -20 -20 -20 -20 -20 -20 -20 -20 -20 -20 -20 -20 -20 -20 -20 -20 -20 -20 -20 -20 -20 -20 -20 -20 -20 -20
12 -20 -20 -20 -19 -20 -20 -20 -20 -20 -20 5 12 17 7 8 4 -7 -20 -20 -20 -20 -20 -20 -20 -20 -20 -20 -20 -20 -20 -20 -20 -20 -20 -20 -20 -20 -20 -20 -20 -20 -20 -20 -20
12 -13 -20 -19 0 -3 -20 -20 -20 -20 -20 2 0 -11 -8 -16 -19 -19 -20 -20 -20 -20 -20 -20 -20 -20 -20 -20 -20 -20 -20 -20 -20 -20 -20 -20 -20 -20 -20 -20 -20 -20 -20 -20 -20
18 -2 -20 -20 11 1 2 2 -20 -9 -3 -1 -13 -20 -16 10 -8 -20 -20 -20 -20 -20 -20 -20 -20 -20 -20 -20 -20 -20 -20 -20 -20 -20 -20 -20 -20 -20 -20 -20 -20 -20 -20 -20 -20
12 -3 -20 -20 -12 4 -7 3 -20 -5 -20 -20 -20 -20 -20 -5 -20 -20 -20 -20 -20 -20 -20 -20 -20 -20 -20 -20 -20 -20 -20 -20 -20 -20 -20 -20 -20 -20 -20 -20 -20 -20 -20 -20 -20
-13 -2 4 -20 -20 3 1 -20 -20 2 9 -20 -20 -17 -20 -20 -20 -20 -20 -20 -20 -20 -20 -20 -20 -20 -20 -20 -20 -20 -20 -20 -20 -20 -20 -20 -20 -20 -20 -20 -20 -20 -20 -20 -20
-13 2 -5 -15 -20 -1 2 -20 8 6 -16 -20 -10 -20 -20 -20 -20 -20 -20 -20 -20 -20 -20 -20 -20 -7 11 -20 -20 -20 -20 -20 -20 -20 -20 -20 -20 -20 -20 -20 -20 -20 -20 -20 -20
-13 20 22 8 -1 1 5 -20 17 12 13 -14 -6 -11 -20 -20 -20 -20 -20 -20 -20 -20 -20 -20 -20 -20 9 -17 -20 0 -17 -20 -20 -20 -20 -20 -20 -20 -20 -20 -20 -20 -20 -20 -20
-6 21 19 25 7 -20 -9 -20 -16 -20 10 16 -20 -20 -20 -20 -20 -20 -20 -20 -20 -20 -20 -20 -20 -20 -11 8 4 -18 -20 -20 -20 -20 -20 -14 -20 -20 -20 -20 -20 -20 -20 -20 -20
20 -20 23 29 10 -6 -20 -0 8 -2 -4 -12 -18 -10 -20 -20 -20 -20 -20 -20 -20 -20 -20 -20 -20 -20 -8 11 -17 -19 -1 -12 -15 -20 -20 -20 -20 -20 -20 -20 -20 -20 -20 -20 -20
9 17 24 28 -3 12 -9 -16 -20 -20 10 -20 -20 -20 -20 -20 -20 -20 -20 -20 -20 -20 -20 -20 -10 -20 -20 -20 -13 5 -20 -20 -20 -20 -20 -20 -20 -20 -20 -20 -20 -20 -20 -20 -20
23 18 24 24 11 8 -20 -20 -20 -20 -20 -20 -20 -20 -20 -20 -20 -20 -20 -20 -20 -20 -20 -16 -20 -20 -20 -20 -20 -20 6 4 -15 -20 -16 -20 -20 -20 -20 -20 -20 -20 -20 -20 -20
27 27 21 23 -13 19 -20 -20 -20 -20 -20 -20 -20 -20 -20 -20 -20 -20 -20 -20 -20 -20 -20 -20 -20 -20 -20 -20 -20 -20 -20 -10 -6 -20 -20 -20 -20 -20 -20 -20 -20 -20 -20 -20 -20
22 28 22 27 22 -6 5 -20 -20 -20 -20 -20 -20 -20 -20 2 2 -20 -20 -20 -20 -20 -20 -13 -20 -20 -20 -20 -20 -7 -20 -20 -20 -8 -8 -11 -15 -20 -20 -20 -20 -20 -20 -20 -20
32 31 24 29 8 13 -20 -20 -20 -20 -20 -20 -20 -20 -12 -20 -20 -20 -20 -20 -19 -20 -20 -20 -20 -20 -20 -20 -20 -7 -20 -20 -0 12 8 -20 2 -20 -20 -20 -20 -20 -20 -20 -20
22 32 32 32 16 -0 -17 -20 10 -20 -20 -20 -10 -20 9 2 2 -15 -10 -11 -19 2 -13 -20 -20 -20 -20 -20 -20 -20 -9 -20 -20 -17 7 -20 -20 -20 -20 -20 -20 -20 -20 -20 -20
25 31 39 26 -7 -20 -17 -20 -20 -15 -20 -4 -16 -11 -20 -18 -13 -1 8 13 11 12 11 12 -15 -19 -20 -20 -20 -20 7 13 15 8 -0 -20 -20 -20 -20 -20 -20 -20 -20 -20 -20
23 26 28 40 2 29 -9 -20 -20 -20 -20 -20 -20 -13 -20 -20 -19 -19 2 6 5 21 20 -14 -7 -17 -20 -20 -20 -20 -20 -14 -4 -19 -20 -20 -20 -20 -20 -20 -20 -20 -20 -20 -20
12 29 43 35 25 11 -20 -20 -20 -20 -20 -20 -19 -12 -3 -19 -20 -1 11 -17 -20 -5 3 -10 -20 -20 -20 -20 15 20 11 0 -17 8 18 -20 -20 -20 -20 -20 -20 -20 -20 -20 -20
18 29 35 37 12 -7 -14 -20 -20 -20 -20 -20 -20 -20 -20 -11 4 -17 -16 -20 -11 -20 -17 0 -20 -20 -13 1 -20 -14 -10 13 23 14 20 -17 0 -20 -20 -20 -20 -20 -20 -20 -20
30 35 41 32 16 10 3 -20 -20 -20 -20 -20 -20 -20 -20 -20 -20 -20 -20 -20 -20 -20 -20 3 -1 -15 -18 -5 -20 -20 2 -17 -20 -20 -12 -10 -20 -20 -20 -20 -20 -20 -20 -20 -20
26 33 39 28 31 21 -0 -20 -20 -20 -20 -20 -20 -20 -20 -20 -20 -20 -20 -20 -20 -20 -5 -19 -13 -20 -20 4 -10 -14 -20 -20 10 -20 -20 -1 -15 -18 -20 -20 -20 -20 -20 -4 4
36 30 31 20 9 13 -16 -20 -20 -14 -20 -20 -20 -20 -20 -20 -20 -20 -20 -20 -20 -20 -19 -15 22 -11 11 20 23 27 -18 -20 -20 -10 -20 -20 -20 -2 -13 -20 11 -20 -20 9 -19
21 37 39 36 9 -20 -12 -20 -20 -16 -20 -20 4 15 0 -20 -20 -20 -20 -20 -20 -2 16 24 29 14 8 25 24 -6 -4 -20 -20 -20 -20 -2 15 -5 2 -12 -12 -2 -20 -19 -20
18 20 29 32 8 -20 -3 -20 -20 -3 -4 -9 19 18 9 -14 -16 -20 -20 -16 9 15 24 36 19 29 22 26 31 2 1 -20 -7 -13 7 18 21 15 6 7 12 18 13 -12 -20
38 11 -3 -16 -1 -20 -20 -20 3 -3 19 4 12 13 20 8 -20 -20 -20 -20 -1 19 23 30 27 34 22 31 31 3 -12 17 -5 -1 14 16 22 30 15 -15 2 -19 -1 -5 -20
31 15 3 -20 -5 3 -9 -9 -16 -1 12 -20 -11 -2 -0 -20 -20 -20 -20 -20 16 29 29 33 37 30 19 29 2 12 -18 -6 4 8 -4 0 6 7 -20 -20 -20 -20 -9 -20 -20

GFSSW_prec_radar_006.txt.gz
Reflectivity
-11 -20 -20 -20 -20 -1 -4 -20 -18 -0 -20 6 0 -7 11 -6 8 -8 -20 -20 -20 -20 -20 -20 -20 -20 -20 -20 -20 -20 -20 -20 -20 -20 -20 -20 -20 -20 -20 -20 -20 -20 -20 -20 -20
18 -4 -20 -20 -20 -11 0 -2 -13 -17 -18 -10 8 22 17 9 8 1 -20 -20 -20 -20 -20 -20 -20 -20 -20 -20 -20 -20 -20 -20 -20 -20 -20 -20 -20 -20 -20 -20 -20 -20 -20 -20 -20
-15 19 -7 -20 -20 -20 -2 1 0 -13 8 -20 5 8 19 29 -10 -1 -20 -20 7 3 -20 -20 -20 -20 -20 -20 -20 -20 -20 -20 -20 -20 -20 -20 -20 -20 -20 -20 -20 -20 -20 -20 -20
-20 5 -5 -20 -20 -20 1 -0 1 4 7 -2 -18 -17 -9 -5 -9 -20 -20 -20 -20 23 -20 -20 -20 -20 -20 -20 -20 -20 -20 -20 -20 -20 -20 -20 -20 -20 -20 -20 -20 -20 -20 -20 -20
-20 -20 24 -16 -18 -20 -4 -20 -10 -20 -20 -20 7 -10 11 -20 -1 -20 -20 -20 -20 -13 1 -18 -20 -20 -20 -20 -20 -20 -20 -20 -20 -20 -20 -20 -20 -20 -20 -20 -20 -20 -20 -20 -20
2 -9 2 23 5 -20 -20 -20 -20 -20 3 -20 -4 -8 -20 -20 -20 -20 -20 -20 -20 -20 7 -20 -20 -20 -20 -20 -20 -20 -20 -20 -20 -20 -20 -20 -20 -20 -20 -20 -20 -20 -20 -20 -20
23 19 13 23 2 -20 -20 -20 -20 -20 -20 -20 -9 -20 -20 -20 -20 -20 -20 -20 -20 -20 -20 -20 -20 -20 -20 -20 -20 -20 -20 -20 -20 -20 -20 -20 -20 -20 -20 -20 -20 -20 -20 -20 -20
21 16 -2 26 27 -1 -20 3 -11 22 19 -14 -11 -20 -20 -20 -20 -20 -20 -20 -20 -20 -20 -20 -20 -20 -20 -20 -20 -17 -15 -20 -20 -20 -20 -20 -20 -20 -20 -20 -20 -20 -20 -20 -20
13 19 17 11 24 -8 8 -20 -1 -20 -20 13 -16 -20 -20 -20 -20 -20 -20 -20 -20 -20 -20 -20 -20 -20 -20 -20 -20 -20 -20 -20 -20 -20 -20 -20 -20 -20 -20 -20 -20 -20 -20 -20 -20
13 32 0 20 25 23 14 15 13 -16 -20 -20 -20 -20 -20 -20 -20 -20 -20 -20 -20 -20 -20 -20 -20 -20 -10 -20 -20 -20 -15 -20 -20 -20 -20 -20 -20 -20 -20 -20 -20 -20 -20 -20 -20
5 6 25 -5 25 22 -13 2 -20 -20 -12 -20 -20 -20 -20 -20 -20 -20 -20 -20 -20 -20 -20 -20 -20 -1 -20 -20 -20 -20 -20 -20 -20 -20 -20 -20 -20 -20 -20 -20 -20 -20 -20 -20 -20
14 6 26 6 25 32 -5 -13 -20 -20 -20 -20 -20 -20 -20 -20 -20 -20 -20 -20 -20 -20 -20 -20 -20 -20 -20 -20 -20 -2 -20 -11 -20 -20 -20 -20 -20 -20 -20 -20 -20 -20 -20 -20 -20
5 8 20 28 26 28 4 -13 -20 -20 -20 -20 -20 -20 -20 -20 -20 -20 -20 -20 -20 -20 -20 -20 -20 -20 -20 -20 -20 -20 -20 -20 -20 -20 -20 -20 -20 -20 -20 -20 -20 -20 -20 -20 -20
2 -12 3 31 39 32 32 -19 -20 -20 -20 -20 -20 -20 -20 -20 -20 -20 -20 -20 -20 -20 -20 -20 -20 -20 -20 -20 -20 -20 -20 -20 -20 -20 -20 -20 -20 -20 -20 -20 -20 -20 -20 -20 -20
-20 -13 -2 32 39 38 13 -20 -20 -20 -20 -20 -20 -20 -20 -20 -19 -20 -20 -20 -20 -20 -20 -20 -20 -20 -20 -20 -20 -5 -20 -20 -6 8 -12 -20 6 -20 -20 -20 -20 -20 -20 -20 -20
2 2 11 38 41 32 31 -8 -20 -20 -20 -20 -20 8 7 -20 -0 -20 -8 -19 -18 -18 -20 -20 -20 -20 -20 -20 -20 -20 -20 -20 -10 4 3 -20 -20 -20 -20 -20 -20 -20 -20 -20 -20
12 -1 13 36 41 22 33 2 -20 -20 -20 5 -18 1 1 -15 -4 -10 -1 2 -4 3 0 7 -20 -20 -20 -20 -20 -3 7 0 14 8 -16 -20 -20 -20 -20 -20 -20 -20 -20 -20 -20
9 15 20 18 40 27 37 6 -20 -20 -20 -20 -20 6 -0 -3 -17 -4 -5 9 -0 -1 -16 -20 -20 -20 -20 -20 -20 -2 3 -18 -20 -20 -20 -20 -20 -20 -20 -20 -20 -20 -20 -20 -20
-14 16 34 28 37 24 30 8 -20 -20 -20 -20 -20 -10 1 -19 -20 -6 3 3 -20 1 -4 -18 -20 -20 -20 -20 19 26 16 -4 -0 -19 -6 -20 -20 -20 -20 -20 -20 -20 -20 -20 -20
26 17 28 31 36 33 21 -20 -20 -20 -20 -20 -20 -20 -20 -20 -17 4 -13 -20 -8 -20 -7 -19 1 -20 -20 -20 -13 -11 11 19 13 2 -20 -20 -20 -20 -20 -20 -20 -20 -20 -20 -20
10 23 31 35 40 37 15 -20 -20 -20 -20 -20 -20 -20 -20 -20 -20 -13 -20 -20 -20 -20 -20 -20 -14 -20 -12 -15 -18 -9 12 8 5 -19 -20 -20 -20 -20 -20 -20 -20 -20 -20 -20 -20
29 7 24 20 38 39 18 -20 -20 -20 -20 -20 -20 -20 -20 -20 -20 -20 -20 -20 -20 -20 -20 -18 7 -20 -20 -20 -20 -20 -20 -20 -11 -20 -20 -20 -20 -20 -20 -20 -20 -20 -20 -20 -20
34 24 33 21 31 31 -20 -20 -20 -20 -20 -20 -20 -20 -9 -20 -20 -20 -20 -20 -20 -20 -20 -12 11 -3 2 14 12 12 -8 -20 -17 -13 -17 -20 -20 -15 -3 13 -20 -20 -20 -20 -20
30 36 34 33 27 -14 -19 -20 -20 -20 -20 -20 -11 -20 -20 -20 -20 -20 -20 -20 -20 -20 -20 -5 12 13 14 22 29 25 11 1 -20 -1 -16 -10 -4 -1 26 14 13 -16 -19 -20 -20
17 18 23 21 19 -19 -18 -20 -20 -20 -20 -4 9 -2 -13 16 -14 -9 -20 -20 -20 -20 18 22 -4 11 23 28 35 32 27 -3 9 -17 -20 2 11 25 2 6 20 17 9 -20 -20
14 -3 -20 -18 -5 -20 -20 -20 -20 -1 11 -16 -17 -17 15 11 -20 -19 -20 -20 -20 -20 -8 25 29 30 14 26 28 31 3 3 -1 -15 -20 -4 18 32 27 -6 15 -20 -20 -20 -20
24 21 -7 4 1 -20 -20 -20 -20 -20 -20 -0 -7 -5 4 -13 -0 -5 10 -20 -10 18 28 27 30 23 10 12 11 19 8 -6 -12 -11 -18 -20 4 21 34 27 19 7 -4 7 3

GFSSW_prec_radar_009.txt.gz
Reflectivity
14 8 22 -20 -20 -20 -20 -16 2 -10 -20 -20 4 -3 -5 3 4 -5 -20 -20 -20 -20 -20 -20 -20 -20 -20 -20 -20 -20 -20 -20 -20 -20 -20 -20 -20 -20 -20 -20 -20 -20 -20 -20 -20
6 -13 -6 9 -20 -20 -20 -20 -1 -0 -20 -20 -14 -18 -1 24 -20 -0 -20 -20 -20 -20 -20 -20 -20 -20 -20 -20 -20 -20 -20 -20 -20 -20 -20 -20 -20 -20 -20 -20 -20 -20 -20 -20 -20
5 -6 -12 26 -6 -20 -20 -20 2 -20 -20 -20 -20 4 13 26 16 4 -20 -20 7 18 -20 -20 -20 -20 -20 -20 -20 -20 -20 -20 -20 -20 -20 -20 -20 -20 -20 -20 -20 -20 -20 -20 -20
19 -4 11 -20 4 -20 -20 -20 -20 -20 -20 -20 -20 -20 6 7 5 -20 -20 -20 -20 -5 -15 -20 -20 -20 -20 -20 -20 -20 -20 -20 -20 -20 -20 -20 -20 -20 -20 -20 -20 -20 -20 -20 -20
10 23 21 12 25 -13 -20 -20 -20 -20 -20 -20 -20 -20 -14 18 4 -20 -20 -20 -20 20 -17 -20 -20 -20 -20 -20 -20 -20 -20 -20 -20 -20 -20 -20 -20 -20 -20 -20 -20 -20 -20 -20 -20
-11 14 9 11 1 9 -20 -20 -20 -20 -16 -20 -20 -20 -20 -9 -20 -20 -20 -20 -20 -3 -1 8 -17 -20 -20 -20 -20 -20 -20 -20 -20 -20 -20 -20 -20 -20 -20 -20 -20 -20 -20 -20 -20
-5 15 23 11 -20 23 -17 -20 -20 -20 -20 -20 -20 -20 -20 -20 -20 -20 -20 -20 -20 -20 -20 -17 -20 -20 -20 -20 -20 -20 -20 -20 -20 -20 -20 -20 -20 -20 -20 -20 -20 -20 -20 -20 -20
-1 13 24 -16 -7 22 19 -20 -20 -20 -15 -18 -20 -20 -20 -20 -20 -20 -20 -20 -20 -20 -20 -20 -20 -20 -20 -20 -20 -19 -20 -20 -20 -20 -20 -20 -20 -20 -20 -20 -20 -20 -20 -20 -20
-1 -0 15 23 6 20 24 5 -20 -8 -20 23 -20 -20 -20 -20 -20 -20 -20 -20 -20 -20 -20 -20 -20 -20 -20 -20 -20 -20 -20 -20 -20 -20 -20 -20 -20 -20 -20 -20 -20 -20 -20 -20 -20
-7 -17 16 29 14 18 31 21 13 -20 -20 -20 -20 -20 -20 -20 -20 -20 -20 -20 -20 -20 -20 -20 -20 -20 -20 -20 -20 -20 -20 -20 -20 -20 -20 -20 -20 -20 -20 -20 -20 -20 -20 -20 -20
-4 -20 2 -3 34 18 35 29 13 -3 -20 -20 -20 -20 -20 -20 -20 -20 -20 -20 -20 -20 -20 -20 -20 -20 -20 -20 -20 -20 -20 -20 -20 -20 -20 -20 -20 -20 -20 -20 -20 -20 -20 -20 -20
-4 17 -3 -12 32 31 25 20 -20 -20 -20 -20 -20 -20 -20 -20 -20 -20 -20 -20 -20 -20 -20 -20 -20 -20 -20 -20 -20 -20 -14 -16 -20 -20 -20 -20 -20 -20 -20 -20 -20 -20 -20 -20 -20
21 -17 18 12 15 37 30 23 3 -20 -20 -20 -20 -20 -20 -20 -20 -20 -20 -20 -20 -20 -20 -20 -20 -20 -20 -20 -20 -12 -20 -20 -20 -20 -20 -20 -20 -20 -20 -20 -20 -20 -20 -20 -20
25 14 14 9 -11 26 30 30 32 -20 -20 -20 -20 -20 -20 -20 -20 -20 -20 -20 -20 -20 -20 -20 -20 -20 -20 -20 -20 -20 -20 -20 -20 1 -20 -20 -20 -20 -20 -20 -20 -20 -20 -20 -20
-20 -10 11 23 14 34 33 23 11 -20 -20 -20 -20 -20 -20 -20 -20 -20 -20 -20 -20 -20 -20 -20 -20 -20 -20 -20 -20 -20 -20 -20 -20 3 1 -10 11 -20 -20 -20 -20 -20 -20 -20 -20
-17 16 21 4 20 35 37 38 18 -6 -20 -20 -20 7 -6 -20 -1 -20 -3 1 -20 -20 -20 -20 -20 -20 -20 -20 -20 -20 0 -20 -20 -17 12 -20 -20 -20 -20 -20 -20 -20 -20 -20 -20
23 11 6 18 -11 36 40 38 26 -3 -20 1 -12 14 -1 -12 -11 -13 0 3 -11 -16 -20 -18 -20 -20 -20 -20 -20 -20 13 -1 14 15 -10 -20 -20 -20 -20 -20 -20 -20 -20 -20 -20
34 16 -10 8 8 38 39 33 10 -20 -20 -20 -19 7 0 -20 -1 3 -19 6 -1 -15 -20 -20 -20 -20 -20 -20 -20 -20 -20 -17 -7 -20 -20 -20 -20 -20 -20 -20 -20 -20 -20 -20 -20
23 -20 -7 -3 21 39 38 22 -20 -20 -20 -20 -20 -6 -9 -7 -20 -5 -15 -8 -20 -20 -20 -20 -20 -20 -20 -20 -20 1 -5 -20 19 13 19 -10 -20 -20 -20 -20 -20 -20 -20 -20 -20
24 4 11 -4 21 37 38 14 -6 -20 -20 -20 -20 -20 -20 -20 -16 -7 3 -20 -20 -20 -11 -12 -9 -20 -20 -20 -20 -12 -7 -6 4 9 9 -20 -20 -20 -20 -20 -20 -20 -20 -20 -20
27 15 19 21 27 36 29 15 -20 -20 -20 -20 -20 -20 -20 -20 -20 -17 -20 -20 -20 -20 -20 -20 -11 -20 -14 -12 -20 0 5 -2 2 17 -4 -20 -20 -20 -20 -20 -20 -20 -20 -20 -20
33 23 17 24 36 31 23 -19 -20 -20 -20 -20 -20 -20 -20 -20 -20 -20 -20 -20 -20 -20 -13 -20 -11 -12 -20 -20 -20 -20 -9 10 6 -16 -19 -20 -20 -20 -20 -20 -20 -20 -20 -20 -20
26 29 16 26 1 23 26 -20 -20 -20 -20 -20 -20 -20 -20 -20 -20 -20 -20 -20 -20 -20 -20 -20 6 -20 -20 -19 -8 14 18 27 13 11 7 -10 -20 -18 -20 -20 -20 -20 -14 -20 -20
28 34 33 31 16 -2 -20 -20 -20 -20 -20 -20 -20 -20 -20 -20 -20 -20 -20 -20 -20 -20 -20 -20 -9 -20 -20 -1 33 23 14 20 28 2 -20 -20 -20 -20 -20 -20 -20 -4 -4 -20 -20
33 18 4 7 24 -20 1 1 -20 -20 -20 -20 -12 -6 -20 -5 -13 -20 -20 -20 -20 -20 -20 -12 -11 -17 -18 -19 26 32 24 8 19 -3 -7 -20 -20 -20 -20 -12 11 -7 -13 -20 -20
34 9 -20 6 12 14 -6 -20 -20 -20 -20 -20 -20 -20 -20 13 -20 -20 -20 -20 -20 -20 -20 10 6 18 -20 -19 19 20 17 18 -11 -20 -20 -20 -20 -20 -20 -15 -19 29 -19 -20 -19
18 8 -17 -15 14 -20 -20 -20 -20 -20 -20 -10 -20 -10 9 2 -6 -12 -10 -13 -17 -16 -19 18 8 9 -6 11 32 10 2 12 0 -19 -20 3 8 14 22 38 29 17 6 7 7

GFSSW_prec_radar_012.txt.gz
Reflectivity
6 9 -7 -7 11 -20 -20 -20 -20 -4 -20 -20 -20 -17 10 -9 0 5 -19 -20 -20 -20 -20 -20 -20 -20 -20 -20 -20 -20 -20 -20 -20 -20 -20 -20 -20 -20 -20 -20 -20 -20 -20 -20 -20
10 18 9 0 -2 -20 -20 -20 -20 -20 -20 -20 -20 -10 -16 -9 7 -7 -20 -20 -20 -20 -20 -20 -20 -20 -20 -20 -20 -20 -20 -20 -20 -20 -20 -20 -20 -20 -20 -20 -20 -20 -20 -20 -20
5 14 7 15 -13 16 -20 -20 -20 -20 -20 -20 -20 2 -2 17 19 -19 -1 -19 3 -1 -20 -20 -20 -20 -20 -20 -20 -20 -20 -20 -20 -20 -20 -20 -20 -20 -20 -20 -20 -20 -20 -20 -20
-9 -3 11 4 -0 28 -20 -20 -20 -20 -20 -20 -20 -15 8 -7 2 -20 -20 -20 -10 14 -18 -20 -20 -20 -20 -20 -20 -20 -20 -20 -20 -20 -20 -20 -20 -20 -20 -20 -20 -20 -20 -20 -20
-7 2 3 15 -3 -4 24 -20 -20 -20 -20 -20 -20 -20 -2 6 -7 -20 -20 -20 -12 0 11 -20 -20 -20 -20 -20 -20 -20 -20 -20 -20 -20 -20 -20 -20 -20 -20 -20 -20 -20 -20 -20 -20
7 -4 -9 12 12 16 25 10 -20 -20 -20 -20 -20 -20 -20 2 -20 -20 -20 -20 -20 -4 10 -20 -18 -20 -20 -20 -20 -20 -20 -20 -20 -20 -20 -20 -20 -20 -20 -20 -20 -20 -20 -20 -20
-5 2 -20 -19 9 -3 24 23 -20 -20 -20 -7 -20 -20 -20 -20 -20 -20 -20 -20 -19 -0 25 -20 -6 -20 -20 -19 -13 -20 -20 -20 -20 -20 -20 -20 -20 -20 -20 -20 -20 -20 -20 -20 -20
-20 -8 -20 -20 16 22 16 25 -20 -20 -20 -20 -20 -20 -20 -20 -20 -20 -20 -20 -20 -14 -3 21 8 -4 -20 -20 -20 -20 -20 -20 -20 -20 -20 -20 -20 -20 -20 -20 -20 -20 -20 -20 -20
-20 -17 -16 0 11 32 17 27 27 -20 -20 8 -20 -20 -20 -20 -20 -20 -20 -20 2 -20 -20 -20 -20 -20 -20 -20 -20 -20 -20 -20 -20 -20 -20 -20 -20 -20 -20 -20 -20 -20 -20 -20 -20
-1 -17 -1 -20 14 30 23 35 32 15 11 -1 -20 -20 -20 -20 -20 -20 -20 -20 -20 -20 -20 -20 -20 -20 -20 -20 -20 -20 -20 -20 -20 -20 -20 -20 -20 -20 -20 -20 -20 -20 -20 -20 -20
12 -20 2 -19 -20 34 31 32 34 26 -17 -20 -20 -20 -20 -20 -20 -20 -20 -20 -20 3 9 -20 6 -6 -20 -20 -20 -20 -20 -20 -20 -20 -20 -20 -20 -20 -20 -20 -20 -20 -20 -20 -20
-20 -19 3 7 -6 21 32 42 12 -9 -3 -20 -20 -20 -20 -20 -20 -20 -20 -20 -20 -20 -8 -16 -13 -20 -20 -20 -20 -20 -20 -20 -20 -20 -20 -20 -20 -20 -20 -20 -20 -20 -20 -20 -20
-19 19 -10 -18 -20 5 32 37 3 10 19 -20 -20 -20 -20 -20 -20 -20 -20 -20 -20 -20 -20 -20 -20 -20 -20 -20 -20 -20 -9 -20 -20 -20 -20 -20 -20 -20 -20 -20 -20 -20 -20 -20 -20
18 -20 -0 4 -20 3 28 27 32 30 27 -20 -18 -20 -20 -20 -20 -20 -20 -20 -20 -20 -20 -20 -20 -20 -20 -20 -20 -20 -20 -20 -14 -16 -8 -20 -20 -20 -20 -20 -20 -20 -20 -20 -20
19 17 6 21 20 -19 30 36 21 39 26 -20 -12 -13 -17 -20 -20 -13 -20 -20 -20 -20 -20 -20 -20 -20 -20 -20 -20 -20 -20 -20 -20 0 -6 -20 -9 -20 -20 -20 -20 -20 -20 -20 -20
8 18 14 12 20 9 19 38 38 23 16 0 6 9 3 -3 -15 -15 -19 -6 -20 -19 -20 -20 -20 -20 -20 -20 -20 -20 -12 1 -8 2 8 -20 -20 -20 -20 -20 -20 -20 -20 -20 -20
31 36 27 19 10 -1 21 40 30 19 -19 5 -4 10 -19 -10 11 -16 8 0 -8 7 -1 -14 -17 -20 -20 -13 -20 2 6 -14 0 3 -20 -20 -20 -20 -20 -20 -20 -20 -20 -20 -20
33 17 -11 7 -16 14 27 35 25 -20 -20 -20 5 -12 5 1 11 -10 -3 10 7 -20 -20 -6 -20 -10 -20 -20 -20 -20 -17 -18 -20 -20 -20 -17 -12 -20 -20 -20 -20 -20 -20 -20 -20
32 18 3 6 21 6 29 23 13 -16 0 -20 7 -8 11 3 -12 -19 -8 -13 -20 -20 -20 -10 -20 -20 -20 -20 -20 1 -7 -19 8 -20 7 -19 -20 -20 -20 -20 -20 -20 -20 -20 -20
29 -6 25 2 -16 20 32 25 -15 2 9 -20 -20 -20 -20 -0 -13 -20 -8 -20 -13 -20 -20 -7 -11 -20 -20 -19 -20 -7 -10 9 15 3 9 -20 -18 -20 -20 -20 -13 -20 -20 -20 -20
25 6 30 4 14 3 34 24 5 13 -5 -20 -20 -20 -20 -14 -20 -20 -20 -20 -20 -20 -20 -0 -14 -20 -4 1 -20 -5 1 10 -4 16 10 5 -16 -20 -20 -20 -19 -20 -20 -20 -20
24 36 21 -0 25 32 32 3 3 -19 -20 -20 -20 -20 -20 -20 -20 -20 -20 -20 -20 -20 3 -20 5 6 -19 -20 -20 -20 -20 -3 19 10 18 11 -12 4 -20 -20 -14 -20 -20 -20 -20
31 31 27 21 15 25 27 -20 -20 -20 -20 -20 -20 -20 -20 -20 -20 -20 -20 -20 -20 -20 -20 -6 4 -15 -20 -18 -17 -11 -20 6 17 25 12 14 -8 3 -3 -12 -20 -20 -20 -20 -20
29 21 22 -9 9 2 -17 -20 -20 -20 -20 -20 -20 -20 -20 -20 -20 -20 -20 -20 -20 -20 -20 -20 3 -20 -20 -20 10 19 -14 17 22 15 -20 -3 -19 -12 -9 -20 -20 -20 -20 -20 -20
16 6 -7 8 2 11 -12 -20 -20 -20 -20 -20 -20 -20 -20 -20 -16 -20 -20 -20 -20 -20 -20 -5 -9 -5 -20 -20 -17 -5 -18 4 23 -4 8 -5 -20 -18 -1 -20 -20 -20 -20 -20 -20
23 15 -5 2 -20 -20 -20 -20 -20 -20 -20 -20 -20 -20 -20 -7 -20 -20 -20 -20 -20 -20 -20 9 -5 3 -20 -20 -20 6 -17 1 17 11 2 -1 -16 1 -2 -20 -20 -20 20 -3 -11
9 -10 -1 10 -1 -20 -20 -20 -20 -20 -20 -20 -20 -20 -10 -20 -20 -15 -20 -19 -8 -11 -20 4 -5 -2 -20 -20 -20 -12 18 8 -5 -19 -18 1 8 24 31 34 33 31 8 -16 -20

GFSSW_prec_radar_015.txt.gz
Reflectivity
-11 -3 15 11 4 23 3 -9 -6 -17 -20 -20 -20 -20 -20 -10 7 9 -20 -20 -20 -20 -20 -20 -20 -20 -20 -20 -20 -20 -20 -20 -20 -20 -20 -20 -20 -20 -20 -20 -20 -20 -20 -20 -20
-20 -20 -18 4 8 -7 22 -20 -20 -20 -20 -20 -20 -20 -20 -20 -5 -10 -20 -20 -20 -20 -20 -20 -20 -20 -20 -20 -20 -20 -20 -20 -20 -20 -20 -20 -20 -20 -20 -20 -20 -20 -20 -20 -20
-20 -20 -20 -9 13 8 18 24 -20 -20 -20 -20 -20 -20 -20 -20 12 -17 -20 -20 -20 -20 -20 -20 -20 -20 -20 -20 -20 -20 -20 -20 -20 -20 -20 -20 -20 -20 -20 -20 -20 -20 -20 -20 -20
-20 -20 -20 -20 -5 9 -1 27 -0 -20 -20 -20 -20 -20 -20 22 5 10 -20 -20 -20 -16 -18 -20 -20 -20 -20 -20 -20 -20 -20 -20 -20 -20 -20 -20 -20 -20 -20 -20 -20 -20 -20 -20 -20
-20 -20 -20 -20 -20 8 6 9 25 -20 -20 -20 -20 -20 -20 20 5 -20 -20 -20 -12 -12 -1 -20 -20 -20 -20 -20 -20 -20 -20 -20 -20 -20 -20 -20 -20 -20 -20 -20 -20 -20 -20 -20 -20
-20 -20 -20 -19 -20 -12 10 5 26 -13 -20 -20 -20 -20 -20 11 -16 12 -20 -20 -20 20 4 -12 -5 -20 -20 -20 -20 -20 -20 -20 -20 -20 -20 -20 -20 -20 -20 -20 -20 -20 -20 -20 -20
-20 -20 -20 -20 -20 -20 6 12 16 22 -20 -11 -20 -20 -20 10 -20 -20 -20 -20 -20 22 18 18 -20 -20 -20 -20 -20 -20 -20 -20 -20 -20 -20 -20 -20 -20 -20 -20 -20 -20 -20 -20 -20
-20 -20 -20 -17 -16 -20 -1 3 -1 30 -20 -16 -20 -20 -18 -20 -20 -20 -20 -20 -20 -20 11 14 -20 -18 -0 -20 -20 -20 -20 -20 -20 -20 -20 -20 -20 -20 -20 -20 -20 -20 -20 -20 -20
-20 -7 -5 -20 -16 -20 3 -7 -15 30 17 6 -20 -20 -20 -20 -20 -20 -20 -20 -20 -20 -20 -18 4 -16 -20 -20 -20 -20 -20 -20 -20 -20 -20 -20 -20 -20 -20 -20 -20 -20 -20 -20 -20
12 -20 -11 -6 -20 10 7 -2 -13 36 26 -5 -15 -20 -20 -20 -20 -20 -20 -20 -20 -20 -15 -20 -20 -20 -20 -20 -20 -20 -20 -20 -20 -20 -20 -20 -20 -20 -20 -20 -20 -20 -20 -20 -20
-15 -20 20 -20 29 17 11 7 32 34 36 4 -20 -20 -20 -20 -20 -20 -20 -20 -20 -20 -20 -14 2 -20 -20 -20 -20 -20 -20 -20 -20 -20 -20 -20 -20 -20 -20 -20 -20 -20 -20 -20 -20
-10 -18 22 -10 -5 -4 1 32 40 25 22 4 -5 -20 -20 -20 -20 -20 -20 -20 -17 2 0 -14 -11 -20 -20 -20 -20 -20 -20 -20 -20 -20 -20 -20 -20 -20 -20 -20 -20 -20 -20 -20 -20
-18 -2 23 2 -13 -20 -17 30 35 32 32 18 -13 -20 -20 -20 -20 -20 -20 -20 -4 -17 -20 -11 -20 -20 -20 -20 -20 -20 -20 -20 -20 -20 -20 -20 -20 -20 -20 -20 -20 -20 -20 -20 -20
17 5 19 19 -13 -4 20 30 37 23 30 13 1 -20 -20 -20 -20 -20 -20 -20 -20 -19 -20 1 -20 -20 -20 -20 -20 -20 -20 -20 -20 -20 -20 -20 -20 -20 -20 -20 -20 -20 -20 -20 -20
-19 11 14 21 16 -19 16 29 38 35 23 24 -6 -13 -20 -20 -20 -11 -20 -20 -20 -20 -20 -20 -20 -20 -20 -20 -20 -20 -20 -20 -20 -19 -20 -20 -20 -20 -20 -20 -20 -20 -20 -20 -20
18 32 30 23 11 -20 13 40 38 30 11 15 1 -0 -17 -20 -15 1 -17 -20 -20 -20 -20 -20 -20 -20 -20 -20 -20 -20 -20 -20 -20 -20 -2 -20 -20 -20 -20 -20 -20 -20 -20 -20 -20
7 31 23 23 25 13 18 26 29 25 -10 4 -7 11 -2 -19 -14 -16 -13 7 -20 -6 3 -20 -20 -20 -20 -20 -20 -20 -18 -20 3 7 -20 -20 -20 -20 -20 -20 -20 -20 -20 -20 -20
16 23 3 -18 -9 19 24 5 21 13 -20 -20 8 6 7 -20 -12 -4 -5 -2 -19 -20 -20 -20 -12 -20 -20 -20 -19 -20 -16 -19 -20 -20 -20 -20 -20 -20 -20 -20 -20 -20 -20 -20 -20
18 -5 15 11 22 -4 18 4 30 -10 -20 -17 2 8 7 -20 -6 6 -14 -0 -15 -20 -20 -16 -20 -20 -20 -20 -20 -5 -19 -20 -3 -20 -15 -20 -20 -20 -20 -20 -20 -20 -20 -20 -20
14 -15 20 -18 -20 6 8 29 19 -17 -20 -11 -1 -10 -11 -20 -2 -10 -2 -20 -20 -20 -20 -13 -20 -20 -20 -20 -20 -20 -20 -8 -8 -1 -20 -20 -20 -20 -20 -20 -16 -20 -20 -20 -20
6 34 16 20 14 8 12 32 8 -20 -17 -20 -20 -20 -20 -20 -13 -18 -20 -20 -20 -17 -20 -14 -20 -12 -20 -20 -20 -19 1 4 -13 3 6 -4 -20 -18 -20 -20 -20 -20 -20 -20 -20
-6 31 15 -11 17 22 19 23 7 -20 -20 11 -17 -20 -20 -20 -20 -20 -20 -20 -20 -20 -20 -20 -12 -10 -20 -20 -20 -20 -20 -20 10 -19 11 2 -13 -20 -20 -20 -10 -20 -20 -20 -20
7 15 -1 10 7 -7 14 18 1 23 20 -4 -20 -20 -20 -20 -20 -20 -20 -20 -20 -20 -20 -20 1 -16 -20 -17 -20 -20 -20 -17 10 19 10 15 -8 -5 -13 -18 -20 -20 -20 -20 -20
19 20 2 7 -9 -18 26 14 13 13 -20 -20 -20 -20 -20 -20 -20 -20 -20 -20 -20 -20 -20 -20 -8 -20 -20 -20 -19 12 -9 -4 24 19 -18 -19 -20 7 -5 21 13 -5 -16 -20 -20
-4 10 -1 -3 7 22 2 5 11 -5 -20 -20 -20 -20 -20 -20 -20 -20 -20 -20 -20 -20 -20 -20 4 -3 -20 -20 -20 -20 -20 -15 27 17 12 -2 -14 -8 -4 14 12 -14 -20 -20 -20
-20 -2 -20 -20 -4 -20 -20 11 8 -20 -20 -20 -20 -20 -20 -20 -12 -20 -5 -4 -8 -20 -20 -15 6 5 -20 -20 -20 -14 5 21 5 -7 -8 -8 -6 -17 13 -14 -20 -20 -20 -20 -20
4 -3 1 -19 -20 -19 -3 -20 -20 -20 -20 -20 -20 -20 -20 -8 -20 -20 -20 -20 -20 -20 -18 1 -6 -0 -20 -20 -20 -11 9 6 -13 -20 -13 -1 -14 -13 22 22 23 -15 -17 1 14

GFSSW_prec_radar_018.txt.gz
Reflectivity
-20 -20 -20 -20 4 8 0 24 9 -20 -20 -20 -20 -20 -20 6 -7 6 0 -20 -20 -20 -20 -20 -20 -20 -20 -20 -20 -20 -20 -20 -20 -20 -20 -20 -20 -20 -20 -20 -20 -20 -20 -20 -20
-20 -20 -20 -20 12 3 7 9 21 -20 -20 -20 -11 -20 -20 7 4 4 -20 -20 -20 -20 -20 -20 -20 -20 -20 -20 -20 -20 -20 -20 -20 -20 -20 -20 -20 -20 -20 -20 -20 -20 -20 -20 -20
-20 -20 -20 -20 -13 14 9 8 14 10 -20 -20 -13 -20 -20 -20 9 -20 -20 -20 -20 -20 -20 -20 -20 -20 -20 -20 -20 -20 -20 -20 -20 -20 -20 -20 -20 -20 -20 -20 -20 -20 -20 -20 -20
-20 -20 -20 -20 -20 14 15 12 5 25 21 -20 -20 -16 -20 12 8 -15 -13 -10 -20 -20 -20 -20 -20 -20 -20 -20 -20 -20 -20 -20 -20 -20 -20 -20 -20 -20 -20 -20 -20 -20 -20 -20 -20
-20 -16 -20 -20 -18 -20 10 9 2 14 30 -20 -20 -20 -20 14 8 -19 -20 -20 8 2 -20 -20 -20 -20 -20 -20 -20 -20 -20 -20 -20 -20 -20 -20 -20 -20 -20 -20 -20 -20 -20 -20 -20
4 5 -2 -20 -20 -20 -16 9 12 9 22 -8 -20 -20 -20 13 -20 -7 -20 -20 -20 26 26 -20 -20 -20 -20 -20 -20 -20 -20 -20 -20 -20 -20 -20 -20 -20 -20 -20 -20 -20 -20 -20 -20
-20 -9 -20 3 -20 3 -1 9 15 15 22 24 -3 -20 -20 -20 -20 -20 -0 -7 -11 24 -17 -4 -20 -20 -20 -20 -20 -20 -20 -20 -20 -20 -20 -20 -20 -20 -20 -20 -20 -20 -20 -20 -20
-20 -16 -20 -3 -20 -20 1 -20 16 18 23 32 -15 -17 -18 -20 -20 -20 -16 -5 -20 4 26 22 -14 -20 -19 -20 -20 -20 -20 -20 -20 -20 -20 -20 -20 -20 -20 -20 -20 -20 -20 -20 -20
-19 -12 -13 -19 7 -6 14 5 11 13 20 23 11 -1 -19 -20 -20 -20 -20 -20 -20 -14 27 14 -7 -9 -20 -20 -20 -20 -20 -20 -20 -20 -20 -20 -20 -20 -20 -20 -20 -20 -20 -20 -20
10 -5 -0 13 -16 9 -12 -20 14 12 27 38 15 11 -20 -20 -20 -20 -20 -20 -20 18 24 21 18 13 -20 -20 -20 -20 -20 -20 -20 -20 -20 -20 -20 -20 -20 -20 -20 -20 -20 -20 -20
22 22 -8 19 15 0 21 4 6 7 34 28 0 -20 -20 -20 -20 -20 -20 -20 -17 21 17 0 -6 -17 -20 -20 -20 -20 -20 -20 -20 -20 -20 -20 -20 -20 -20 -20 -20 -20 -20 -20 -20
20 -14 7 18 -20 -16 -20 10 28 28 30 31 -11 -13 -20 -20 -20 -20 -20 -20 -20 -4 -8 -16 -20 -20 -20 -20 -20 -20 -20 -20 -20 -20 -20 -20 -20 -20 -20 -20 -20 -20 -20 -20 -20
-2 10 -7 19 -20 -8 -4 -8 29 36 28 31 9 -14 -18 -20 -20 -20 -20 -20 -20 3 -8 -14 -20 -20 -20 -20 -20 -20 -20 -20 -20 -20 -20 -20 -20 -20 -20 -20 -20 -20 -20 -20 -20
-5 2 11 19 -9 -5 -16 17 39 34 30 32 28 6 -20 -20 -13 -20 -20 -20 -10 12 3 -8 -20 -20 -20 -20 -20 -20 -20 -20 -20 -20 -20 -20 -20 -20 -20 -20 -20 -20 -20 -20 -20
7 -20 7 32 15 -12 14 25 37 35 7 17 20 -2 -20 -18 -20 -19 -20 -20 -20 -20 -11 -4 -20 -20 -20 -20 -20 -20 -20 -20 -20 -20 -20 -20 -20 -20 -20 -20 -20 -20 -20 -20 -20
-20 18 22 38 25 -16 -12 30 36 28 18 29 25 -11 -5 3 -14 -20 12 -20 -20 -20 -5 -20 -20 -20 -20 -20 -20 -20 -20 -20 -20 -20 -20 -20 -20 -20 -20 -20 -20 -20 -20 -20 -20
16 25 22 20 8 -10 21 26 25 22 2 2 -5 5 -10 -8 8 -14 -14 -0 -20 -20 -20 -20 -20 -20 -20 -20 -20 -20 -20 -17 -16 -19 -20 -20 -20 -20 -20 -20 -20 -20 -20 -20 -20
22 2 23 6 -13 6 13 26 17 27 -14 -20 -15 -1 -20 -17 -1 2 2 -14 -11 -20 -20 -20 -20 -20 -20 -20 -20 -20 -20 -20 -20 -20 -20 -20 -20 -20 -20 -20 -20 -20 -20 -20 -20
24 5 -5 21 12 -1 14 10 28 23 -16 -2 10 -12 -10 -2 -5 -14 8 -10 -20 -20 -20 -20 -20 -20 -20 -20 -20 -6 -20 -20 -20 -20 -20 -20 -20 -20 -20 -20 -20 -20 -20 -20 -20
-12 -5 -0 23 -8 2 12 12 35 -14 -20 -20 -20 -4 -7 -17 2 5 -14 -20 -20 -20 -20 -20 -15 -20 -20 -20 -20 -20 -20 -18 -4 -20 -20 -20 -20 -20 -20 -20 -20 -20 -20 -20 -20
-2 26 7 18 3 12 4 37 33 -8 -10 -3 -20 2 -7 -20 -13 -20 -20 -20 -20 -20 -20 -20 -20 -20 -20 -20 -20 -20 -19 -12 -17 -19 -19 -20 -20 -20 -20 -20 -20 -20 -20 -20 -20
-19 6 -8 13 3 10 29 30 27 -20 -20 -20 -20 -20 -20 -20 -20 -20 -20 -20 -20 -20 -20 -20 -20 -19 -20 -20 -20 -20 -20 -20 4 -20 -20 -20 -20 -20 -20 -20 -20 -20 -20 -20 -20
5 7 -1 10 -1 2 23 0 -20 -8 10 -20 -20 -20 -20 -20 -14 -12 -20 -20 -20 -20 -20 -20 -20 -20 -20 -20 -20 -20 -20 -20 -20 3 -8 -20 -20 -20 -17 4 5 2 -1 -8 -20
-18 -8 -20 -5 -20 7 23 13 15 -7 -20 -19 -14 -20 -20 -20 -20 -20 -20 -20 -20 -20 -20 -20 -20 -20 -20 -20 -20 -20 -20 -20 -2 13 -20 -19 -20 -20 0 14 24 -1 9 9 -9
0 -19 -20 -20 -20 -18 7 18 4 -13 -20 -20 -20 -20 -20 -20 -20 -20 -20 -20 -20 -20 -20 -20 -20 -20 -20 -20 -20 -20 -20 -19 20 -3 1 -15 -20 -20 18 21 24 14 28 26 24
-3 -20 -20 -20 -20 -20 -20 -20 -19 -20 -11 -20 -20 -20 -20 -20 5 -20 -20 -20 -20 -20 -20 -20 -14 -15 -20 -20 -20 -20 -20 -20 -12 -6 -10 -18 -10 -6 2 14 -9 -20 -20 -20 -20
-16 -15 -6 -20 -20 -20 -20 -8 -12 -20 -20 -20 -20 -20 -5 -20 -20 -20 -20 -20 -20 -20 -20 -9 -12 -18 -20 -20 -20 -20 -20 -19 5 -10 13 16 5 18 -20 -18 -14 -1 -4 -19 -15

GFSSW_prec_radar_021.txt.gz
Reflectivity
-20 -20 -20 -20 -20 9 14 13 14 22 -18 -20 -20 -20 -20 -19 11 15 -19 -20 -20 -20 -20 -20 -20 -20 -20 -20 -20 -20 -20 -20 -20 -20 -20 -20 -20 -20 -20 -20 -20 -20 -20 -20 -20
-20 -20 -20 -20 -20 -18 13 14 12 7 24 -20 -20 -20 -20 -8 11 4 -20 -20 -20 -20 -20 -20 -20 -20 -20 -20 -20 -20 -20 -20 -20 -20 -20 -20 -20 -20 -20 -20 -20 -20 -20 -20 -20
-20 -20 -20 -20 -20 -20 -18 15 13 7 22 -20 -20 -20 -20 -18 9 -20 -20 -20 -20 -1 -20 -20 -20 -20 -20 -20 -20 -20 -20 -20 -20 -20 -20 -20 -20 -20 -20 -20 -20 -20 -20 -20 -20
-17 14 1 13 19 -15 -20 6 6 7 17 23 -20 -19 -20 14 -20 -20 -20 -20 -20 -20 -20 -20 -20 -20 -20 -20 -20 -20 -20 -20 -20 -20 -20 -20 -20 -20 -20 -20 -20 -20 -20 -20 -20
6 -20 -15 12 13 8 11 -14 -7 12 5 27 6 7 -12 12 -20 -20 -20 -20 -7 -20 -20 -20 -20 -20 -20 -20 -20 -20 -20 -20 -20 -20 -20 -20 -20 -20 -20 -20 -20 -20 -20 -20 -20
-1 4 -20 -20 2 7 8 -20 13 3 14 30 24 6 1 -2 -20 -20 -20 -5 25 -20 -20 -20 -20 -20 -20 -20 -20 -20 -20 -20 -20 -20 -20 -20 -20 -20 -20 -20 -20 -20 -20 -20 -20
17 -20 -20 -2 8 -20 -20 -20 -20 1 18 27 24 6 5 -20 -20 -20 1 -20 -20 -12 -20 -12 -19 -20 -20 -20 -20 -20 -20 -20 -20 -20 -20 -20 -20 -20 -20 -20 -20 -20 -20 -20 -20
21 18 -20 1 -20 -18 4 9 -8 -19 24 24 25 25 -16 -20 -20 -20 -20 -20 -20 -12 -20 17 -20 -20 -20 -20 -20 -20 -20 -20 -20 -20 -20 -20 -20 -20 -20 -20 -20 -20 -20 -20 -20
19 17 12 1 -8 -4 -20 1 -20 -20 12 23 26 18 -20 -20 -20 -20 -20 -2 -20 -15 29 -14 13 -11 -20 -20 -20 -20 -20 -20 -20 -20 -20 -20 -20 -20 -20 -20 -20 -20 -20 -20 -20
12 16 -10 -8 -16 8 7 -20 -20 -20 15 27 31 24 -11 -20 -20 -20 -20 -19 20 -20 19 20 22 7 23 7 -17 -20 -20 -20 -20 -20 -20 -20 -20 -20 -20 -20 -20 -20 -20 -20 -20
-4 21 -14 -20 -20 -16 -20 -20 -14 1 33 34 22 -5 -20 -20 -18 -20 -20 -20 4 2 -20 29 7 27 -11 -11 -20 -20 -20 -20 -20 -20 -20 -20 -20 -20 -20 -20 -20 -20 -20 -20 -20
6 -11 9 8 -20 -20 1 -1 -1 10 38 31 15 4 -20 -15 -20 -20 -20 -20 -11 -12 -10 -19 14 1 -20 -19 -20 -20 -20 -20 -20 -20 -20 -20 -20 -20 -20 -20 -20 -20 -20 -20 -20
-19 -12 -15 7 -16 -8 -10 13 2 17 29 29 25 20 -20 -20 -20 -20 -20 -20 -20 -0 -19 -20 -20 -20 -20 -20 -20 -20 -20 -20 -20 -20 -20 -20 -20 -20 -20 -20 -20 -20 -20 -20 -20
-20 -20 2 -1 16 -9 -20 -8 20 11 26 33 28 1 -20 -20 -20 -20 -20 -19 -20 5 -20 -20 -20 -20 -20 -20 -20 -20 -20 -20 -20 -20 -20 -20 -20 -20 -20 -20 -20 -20 -20 -20 -20
1 18 23 24 30 33 13 16 30 12 23 36 14 7 -5 -20 -20 8 -20 -20 -9 -20 -7 -20 -20 -20 -20 -20 -20 -20 -20 -20 -20 -20 -20 -20 -20 -20 -20 -20 -20 -20 -20 -20 -20
9 20 24 25 32 30 -18 9 1 20 25 32 11 6 11 -10 -10 -20 21 -20 -20 4 -20 -13 -20 -20 -20 -20 -20 -20 -20 -20 -20 -20 -20 -20 -20 -20 -20 -20 -20 -20 -20 -20 -20
12 11 12 -0 2 -20 -0 10 3 23 29 24 9 -9 -17 5 -14 -15 -9 -20 -20 -20 -14 -11 -20 -20 -20 -20 -20 -20 -20 -20 -20 -20 -20 -20 -20 -20 -20 -20 -20 -20 -20 -20 -20
2 22 19 -11 -16 2 20 4 19 25 -5 0 -15 3 0 -20 -8 -7 -20 -16 -20 -20 -20 -20 -20 -20 -20 -20 -20 -20 -20 -20 -20 -20 -20 -20 -20 -20 -20 -20 -20 -20 -20 -20 -20
-20 -20 2 27 -11 -5 22 19 23 22 -14 7 4 -2 6 4 -19 -9 -6 -20 -20 -20 -20 -20 -20 -20 -20 -20 -20 -20 -20 -20 -20 -20 -20 -20 -20 -20 -20 -20 -20 -20 -20 -20 -20
-20 -20 -14 17 5 20 21 24 28 13 -20 -20 -18 -9 -20 6 -20 1 -6 -20 -20 -20 -20 -20 -20 -20 -20 -20 -20 -20 -20 -20 -20 -20 -20 -20 -20 -20 -20 -20 -20 -20 -20 -20 -20
-20 -19 -12 14 12 10 17 28 25 6 -20 -20 -20 -16 -20 1 -7 -17 -20 -20 -20 -20 -20 -20 -20 -20 -20 -20 -20 -20 -20 -20 -20 -20 -20 -20 -20 -20 -20 -20 -20 -20 -20 -20 -20
-20 -20 -7 -19 -20 12 33 29 30 0 -20 -20 -20 -20 -20 -20 -20 -20 -20 -20 -20 -20 -20 -20 -20 -20 -20 -20 -20 -20 -20 -20 -20 -20 -20 -20 -20 -20 -20 -20 -20 -15 -13 -18 21
-20 -20 -20 -20 -20 26 -6 -20 -16 -12 -20 -20 -20 -20 -20 -20 -20 -20 -20 -20 -20 -20 -20 -20 -20 -20 -17 -20 -20 -20 -20 -20 -20 -20 -20 -18 -20 -20 -20 -20 -20 -17 -15 11 2
-20 -20 -20 -20 -20 -20 -15 -20 -20 -20 -20 -20 -20 -20 -20 -20 -20 -20 -20 -20 -20 -20 -9 -20 -20 -20 -20 -20 -20 -20 -20 -20 -18 4 -20 -20 -20 -20 -20 -14 -12 3 -9 -20 -8
-20 -20 -20 -20 -20 -20 -20 -20 -20 -20 -20 -20 -20 -20 -20 -20 -20 -20 -20 -20 -20 -20 -20 -20 -20 -20 -20 -20 -20 -20 -20 -20 -20 -20 9 -19 -20 -20 -19 15 -5 7 -12 -20 -20
-20 -11 -20 -20 -20 -20 -20 -20 -20 -20 -20 -20 -20 -20 -20 -20 -20 -20 -20 -20 -20 -20 -20 -20 -20 -20 -20 -20 -20 -20 -20 -20 -20 -20 -4 -13 -11 -20 -3 4 5 -20 10 7 -7
-6 -16 2 -20 -20 -20 -20 -20 -20 -20 -20 -20 -20 -20 -20 -20 -20 -20 -20 -20 -20 -20 -20 -20 -20 -20 -20 -20 -20 -20 -20 -20 -20 -20 -17 -5 -20 -17 -14 -3 17 -16 -1 5 11

GFSSW_prec_radar_024.txt.gz
Reflectivity
-20 -20 -9 -20 -15 -20 -20 9 11 -1 18 26 -12 -20 -20 -4 5 17 -19 -20 -20 -20 -20 -20 -20 -20 -20 -20 -20 -20 -20 -20 -20 -20 -20 -20 -20 -20 -20 -20 -20 -20 -20 -20 -20
1 -10 -20 -5 -15 4 -12 -10 -1 11 6 14 27 -20 -9 6 10 7 -20 -20 -20 -20 -20 -20 -20 -20 -20 -20 -20 -20 -20 -20 -20 -20 -20 -20 -20 -20 -20 -20 -20 -20 -20 -20 -20
17 10 -15 15 5 1 12 -10 6 -7 -7 -18 26 -5 -1 14 15 -20 -20 -20 -20 -20 -20 -20 -20 -20 -20 -20 -20 -20 -20 -20 -20 -20 -20 -20 -20 -20 -20 -20 -20 -20 -20 -20 -20
2 -11 16 16 -0 7 -19 11 12 -20 3 -1 10 4 -8 8 -20 -20 -20 -20 -20 -19 -20 -20 -20 -20 -20 -20 -20 -20 -20 -20 -20 -20 -20 -20 -20 -20 -20 -20 -20 -20 -20 -20 -20
20 15 4 -6 -2 11 5 -20 -19 -20 -18 -20 3 31 -2 13 -10 -20 -20 1 14 4 -20 -20 -20 -20 -20 -20 -20 -20 -20 -20 -20 -20 -20 -20 -20 -20 -20 -20 -20 -20 -20 -20 -20
-3 8 13 -19 16 -20 -13 -20 -20 -20 -20 -20 -10 39 -18 -4 -9 -20 -20 18 -20 -18 -20 -20 -20 -20 -20 -20 -20 -20 -20 -20 -20 -20 -20 -20 -20 -20 -20 -20 -20 -20 -20 -20 -20
16 18 -16 -4 2 6 -20 -20 -20 -20 -20 -7 -6 30 -12 11 -8 -20 -16 24 -5 -8 -20 -20 -20 -20 -20 -20 -20 -20 -20 -20 -20 -20 -20 -20 -20 -20 -20 -20 -20 -20 -20 -20 -20
16 5 -7 -8 11 -5 -20 4 -20 -20 -20 6 29 36 10 15 -15 -20 -20 10 -20 -20 -20 -20 -20 -20 -20 -20 -20 -20 -20 -20 -20 -20 -20 -20 -20 -20 -20 -20 -20 -20 -20 -20 -20
-6 -9 17 9 7 16 -16 -0 -20 -20 -20 -2 23 32 -7 11 -17 -12 -20 -16 -20 5 27 -9 5 -4 -20 -20 -20 -20 -20 -20 -20 -20 -20 -20 -20 -20 -20 -20 -20 -20 -20 -20 -20
-17 7 1 17 -14 6 -2 -20 -20 -20 -20 -8 39 31 -17 -20 4 -12 5 4 5 22 23 19 21 -11 -20 -20 -20 -20 -20 -20 -20 -20 -20 -20 -20 -20 -20 -20 -20 -20 -20 -20 -20
10 -20 9 18 -20 -3 -15 -20 -13 -13 -15 16 28 22 -20 -17 12 -20 -20 -16 13 24 -20 11 27 25 6 -16 -20 -20 -20 -20 -20 -20 -20 -20 -20 -20 -20 -20 -20 -20 -20 -20 -20
-16 -20 -20 1 1 -13 -20 -20 -20 -5 -0 25 10 15 -20 -20 -9 -18 -15 -15 20 -12 -20 -6 36 19 33 10 -8 -11 -20 -20 -20 -20 -20 -20 -20 -20 -20 -20 -20 -20 -20 -20 -20
-3 5 -18 -6 -20 9 -20 -20 -20 -20 -8 19 34 11 -6 -20 -20 -20 -10 -17 16 -5 -11 8 -18 -4 8 -5 -20 -20 -20 -20 -20 -20 -20 -20 -20 -20 -20 -20 -20 -20 -20 -20 -20
-4 -8 22 25 2 18 -14 -19 -14 -20 23 25 32 -1 -17 -20 -20 -16 -18 -16 -20 -2 -20 -17 -20 -20 -20 -20 -20 -20 -20 -20 -20 -20 -20 -20 -20 -20 -20 -20 -20 -20 -20 -20 -20
10 20 22 27 25 20 13 -2 -20 -8 20 29 33 15 15 -20 -20 18 -7 -20 -20 5 -20 -20 -20 -20 -20 -20 -20 -20 -20 -20 -20 -20 -20 -20 -20 -20 -20 -20 -20 -20 -20 -20 -20
27 23 10 -18 -9 27 -9 -20 -19 14 22 40 34 19 4 -20 -20 -13 3 -20 -19 -6 -20 -20 -20 -20 -20 -20 -20 -20 -20 -20 -20 -20 -20 -20 -20 -20 -20 -20 -20 -20 -20 -20 -20
23 -20 -15 -20 8 -19 -13 -15 13 20 32 22 7 9 -18 -2 -0 10 -10 -20 -20 -12 26 -16 -20 -20 -20 -20 -20 -20 -20 -20 -20 -20 -20 -20 -20 -20 -20 -20 -20 -20 -20 -20 -20
-20 -20 -4 -14 -20 -20 -20 9 14 26 30 -5 -9 7 -20 -8 3 11 -7 -18 -20 -20 -20 -20 -20 -20 -20 -20 -20 -20 -20 -20 -20 -20 -20 -20 -20 -20 -20 -20 -20 -20 -20 -20 -20
-6 -19 -13 4 19 8 12 5 13 26 19 17 8 -12 -18 -20 8 -3 6 -7 -20 -20 -20 -20 -20 -20 -20 -20 -20 -20 -20 -20 -20 -20 -20 -20 -20 -20 -20 -20 -20 -20 -20 -20 -20
4 -5 1 -5 -16 3 -11 20 12 -4 -20 -20 -18 -20 -14 -20 -17 -0 -0 -20 -20 -20 -20 -20 -20 -20 -20 -20 -20 -20 -20 -20 -20 -20 -20 -20 -20 -20 -20 -20 -20 -20 -20 -20 -20
-20 -19 -13 4 -2 -12 13 20 29 10 -19 -15 -20 -20 -20 -15 -20 -18 -20 -20 -20 -20 -20 -20 -20 -20 -20 -20 -20 -20 -20 -20 -20 -20 -20 -20 -20 -20 -20 -20 -20 -20 -20 -20 -20
-20 -20 -20 -20 -20 5 17 -0 -19 -20 -20 -20 -20 -20 -20 -20 -20 -20 -20 -20 -20 -20 -20 -20 -20 -20 -20 -20 -20 -20 -20 -20 -20 -20 -20 -20 -20 -20 -20 -20 -20 -20 -20 -20 -20
-20 -20 -20 -20 -20 -18 -20 -20 -20 -20 -20 -20 -20 -20 -20 -20 -20 -20 -20 -20 -20 -20 -20 -20 -20 -20 -20 -20 -20 -20 -20 -20 -20 -20 -20 -20 -20 -20 -20 -20 -20 -20 -20 -2 -20
-20 -20 -20 -20 -20 -20 -20 -20 -20 -20 -20 -20 -20 -20 -20 -20 -20 -20 -20 -20 -20 -20 -20 -20 -20 -20 -20 -20 -20 -20 -20 -20 -20 -13 -20 -20 -20 -20 -20 -20 -20 -12 -12 -20 -20
-20 -20 -20 -20 -20 -20 -20 -20 -20 -20 -20 -20 -20 -20 -20 -20 -20 -20 -20 -20 -20 -19 -20 -20 -20 -20 -20 -20 -20 -20 -20 -20 -20 -20 -20 -20 -20 -20 -20 -20 -12 -14 -14 -20 -20
-20 -15 -20 -20 -20 -20 -20 -20 -20 -20 -20 -20 -20 -20 -20 -20 -20 -20 -20 -20 -20 -20 -20 -20 -20 -20 -20 -20 -20 -20 -20 -20 -20 -20 -20 -20 -20 -20 -20 -20 -20 -11 -20 -20 -19
-20 -13 -2 -20 -20 -20 -20 -20 -20 -20 -20 -20 -20 -20 -20 -20 -20 -20 -20 -20 -20 -20 -20 -20 -20 -20 -20 -20 -20 -20 -20 -20 -20 -20 -20 -20 -20 -20 -20 -20 -15 12 -18 -15 8

GFSSW_prec_radar_027.txt.gz
Reflectivity
18 18 19 9 -14 -1 10 5 -20 2 8 -20 5 34 -19 -20 3 10 -4 -20 -20 -20 -20 -20 -20 -20 -20 -20 -20 -20 -20 -20 -20 -20 -20 -20 -20 -20 -20 -20 -20 -20 -20 -20 -20
17 18 6 21 -14 22 5 -5 -17 -18 -6 -20 -18 33 10 -20 -1 -14 -20 -20 -20 -20 12 -20 -20 -20 -20 -20 -20 -20 -20 -20 -20 -20 -20 -20 -20 -20 -20 -20 -20 -20 -20 -20 -20
0 9 -19 13 -8 19 -16 -9 -20 -20 -20 -16 -20 -4 36 -17 -12 -20 -20 -20 -20 -20 -20 -20 -20 -20 -20 -20 -20 -20 -20 -20 -20 -20 -20 -20 -20 -20 -20 -20 -20 -20 -20 -20 -20
1 -12 19 -20 23 -0 6 -14 -20 -20 -20 -20 -20 -20 34 -12 -20 1 -19 -20 -20 -18 -20 -20 -20 -20 -20 -20 -20 -20 -20 -20 -20 -20 -20 -20 -20 -20 -20 -20 -20 -20 -20 -20 -20
8 3 10 15 -8 -20 -20 -3 -20 -20 -20 -20 -20 -20 34 14 -15 -3 1 -20 -15 13 4 -20 -20 -20 -20 -20 -20 -20 -20 -20 -20 -20 -20 -20 -20 -20 -20 -20 -20 -20 -20 -20 -20
11 17 14 19 6 5 -20 5 -20 -20 2 -20 -20 5 22 17 5 -19 -1 -10 -7 3 -10 -20 -20 -20 -20 -20 -20 -20 -20 -20 -20 -20 -20 -20 -20 -20 -20 -20 -20 -20 -20 -20 -20
-13 19 14 -11 15 -4 2 -1 -2 -20 3 4 -11 13 36 21 -6 -8 -5 -18 0 -20 2 -20 -20 -20 -20 -20 -20 -20 -20 -20 -20 -20 -20 -20 -20 -20 -20 -20 -20 -20 -20 -20 -20
-20 -20 14 -1 -0 -14 -3 10 3 3 -20 8 7 28 35 37 -20 -6 -18 17 15 -0 -20 -20 -20 5 -20 -20 -20 -20 -20 -20 -20 -20 -20 -20 -20 -20 -20 -20 -20 -20 -20 -20 -20
-18 -16 -19 -15 15 11 0 1 -2 4 -2 5 -11 21 23 8 -15 -2 -20 7 28 26 21 -17 -14 -4 -20 -20 -20 -20 -20 -20 -20 -20 -20 -20 -20 -20 -20 -20 -20 -20 -20 -20 -20
11 8 -20 -20 12 -4 -20 -20 -20 -20 -20 -5 15 22 0 -18 20 12 1 -1 17 29 26 13 12 -12 -20 -20 -18 -20 -20 -20 -20 -20 -20 -20 -20 -20 -20 -20 -20 -20 -20 -20 -20
18 -20 -20 1 2 -20 -20 -20 -20 -20 1 -20 17 32 32 24 -8 -9 -6 -19 -1 26 30 24 16 9 -20 -20 -20 -20 -20 -20 -20 -20 -20 -20 -20 -20 -20 -20 -20 -20 -20 -20 -20
-14 -19 7 3 12 -20 -20 -20 -20 -18 -20 9 29 22 15 -18 1 14 -20 -13 24 10 9 19 17 9 -20 -20 -17 -20 -20 -20 -20 -20 -20 -20 -20 -20 -20 -20 -20 -20 -20 -20 -20
8 -0 21 5 7 -20 14 -20 -20 -20 -12 27 15 9 -0 -20 -20 -6 -19 -10 21 21 4 26 24 30 26 15 -5 -19 -20 -20 -20 -20 -20 -20 -20 -20 -20 -20 -20 -20 -20 -20 -20
24 32 21 26 -7 -1 29 15 -20 -20 -20 13 26 20 9 -20 -20 -13 -7 -8 -3 26 22 -20 3 -1 14 23 -19 -20 -20 -20 -20 -20 -20 -20 -20 -20 -20 -20 -20 -20 -20 -20 -20
-20 -16 27 28 -16 -14 21 -20 -20 -20 6 24 23 -7 -16 -20 -20 -15 18 -15 2 22 -14 3 -17 -19 24 8 -20 -20 -20 -20 -20 -20 -20 -20 -20 -20 -20 -20 -20 -20 -20 -20 -20
-20 -20 8 -20 -17 13 6 -20 -20 17 28 32 25 15 -1 -20 -20 -15 -2 5 19 -5 -10 -20 -20 -19 -20 -20 -20 -20 -20 -20 -20 -20 -20 -20 -20 -20 -20 -20 -20 -20 -20 -20 -20
-20 -20 -20 -20 -4 -20 -20 -17 15 14 17 25 26 -15 -7 4 9 4 1 -3 -5 11 14 -20 -20 -20 -20 -20 -20 -20 -20 -20 -20 -20 -20 -20 -20 -20 -20 -20 -20 -20 -20 -20 -20
-2 -20 -20 -20 -20 -18 -1 -5 15 7 28 29 2 -1 -20 -3 -17 -14 -20 -20 -20 -20 -20 -20 -20 -20 -20 -20 -20 -20 -20 -20 -20 -20 -20 -20 -20 -20 -20 -20 -20 -20 -20 -20 -20
-20 -20 -20 -20 -14 -5 -8 6 17 26 25 18 -18 -15 12 -19 10 16 -20 -20 -20 -20 -20 -20 -20 -20 -20 -20 -20 -20 -20 -20 -20 -20 -20 -20 -20 -20 -20 -20 -20 -20 -20 -20 -20
-20 -20 -20 -20 -20 -20 -20 7 -2 -8 -20 -20 -20 -20 -6 -20 -20 -1 -19 -20 -20 -20 -20 -20 -20 -20 -20 -20 -20 -20 -20 -20 -20 -20 -20 -20 -20 -20 -20 -20 -20 -20 -20 -20 -20
-20 -20 -20 -20 -20 -20 9 6 -12 -20 -20 -20 -20 -20 -20 -20 -20 -20 -20 -20 -20 -20 -20 -20 -20 -20 -20 -20 -20 -20 -20 -20 -20 -20 -20 -20 -20 -20 -20 -20 -20 -20 -20 -20 -20
-20 -20 -20 -20 -20 -20 -20 -19 -20 -20 -20 -20 -20 -20 -20 -20 -20 -20 -20 -20 -20 -20 -20 -20 -20 -20 -20 -20 -20 -20 -20 -20 -20 -20 -20 -20 -20 -20 -20 -20 -20 -20 -20 -18 -18
-20 -20 -20 -20 -20 -20 -20 -20 -20 -20 -20 -20 -20 -20 -20 -20 -20 -20 -20 -20 -20 -20 -20 -20 -20 -20 -20 -20 -20 -20 -20 -20 -20 -20 -20 -20 -20 -20 -20 -20 -20 -20 -20 -1 -13
-20 -20 -20 -20 -20 -20 -20 -20 -20 -20 -20 -20 -20 -20 -20 -20 -20 -20 -20 -20 -20 -20 -20 -20 -20 -20 -20 -20 -20 -20 -20 -20 -20 -20 -20 -20 -20 -20 -20 -20 -20 -20 -16 -6 -20
-20 -20 -17 -20 -20 -20 -20 -20 -20 -20 -20 -20 -20 -20 -20 -20 -20 -20 -20 -20 -20 -5 -20 -20 -20 -20 -20 -20 -20 -20 -20 -20 -20 -20 -20 -20 -20 -20 -20 -20 -20 -20 -13 -20 -20
-20 -20 -20 -20 -20 -20 -20 -20 -20 -20 -20 -20 -20 -20 -20 -20 -20 -20 -20 -20 -20 -20 -20 -20 -20 -20 -20 -20 -20 -20 -20 -20 -20 -20 -20 -20 -20 -20 -20 -20 -20 -20 -20 -20 -20
-16 -8 -15 -20 -20 -20 -20 -20 -20 -20 -20 -20 -20 -20 -20 -20 -20 -20 -20 -20 -20 -20 -20 -20 -20 -20 -20 -20 -20 -20 -20 -20 -20 -20 -20 -20 -20 -20 -20 -20 -20 -20 -20 -20 -20

GFSSW_prec_radar_030.txt.gz
Reflectivity
-20 -5 -7 -10 20 25 10 23 -10 -20 -20 -20 -20 2 20 24 9 5 -5 -20 -20 -20 -5 -20 -20 -20 -20 -20 -20 -20 -20 -20 -20 -20 -20 -20 -20 -20 -20 -20 -20 -20 -20 -20 -20
-20 -20 7 -12 -8 -13 -1 5 21 -20 -20 -20 -20 -20 23 28 13 4 -20 -19 -20 -20 -13 -20 -20 -20 -20 -20 -20 -20 -20 -20 -20 -20 -20 -20 -20 -20 -20 -20 -20 -20 -20 -20 -20
16 -9 21 -8 -12 21 21 24 -5 -14 -20 -20 -20 -20 -2 29 21 -20 -11 1 -20 -20 17 -20 -20 -20 -20 -20 -20 -20 -20 -20 -20 -20 -20 -20 -20 -20 -20 -20 -20 -20 -20 -20 -20
10 -1 -5 18 -5 9 -20 -19 -10 -20 -20 -20 -20 -18 -1 32 29 -16 -20 4 -20 -20 10 14 -20 -20 -20 -20 -20 -20 -20 -20 -20 -20 -20 -20 -20 -20 -20 -20 -20 -20 -20 -20 -20
-8 6 -13 6 3 16 -14 -14 -2 7 4 -20 -16 -4 12 35 29 2 -17 2 -19 5 -1 1 -10 -20 -20 -20 -20 -20 -20 -20 -20 -20 -20 -20 -20 -20 -20 -20 -20 -20 -20 -20 -20
-8 9 -8 -5 12 -9 -20 1 -7 -20 11 16 15 3 14 16 -4 1 12 14 -17 11 9 9 8 -20 -20 -20 -20 -20 -20 -20 -20 -20 -20 -20 -20 -20 -20 -20 -20 -20 -20 -20 -20
21 -12 -20 16 -18 2 3 2 2 15 12 15 15 8 17 17 -18 -16 -12 -9 -11 -16 10 -20 -20 -20 -20 -20 -20 -20 -20 -20 -20 -20 -20 -20 -20 -20 -20 -20 -20 -20 -20 -20 -20
17 23 -7 -1 -20 -14 16 3 18 12 9 0 6 12 19 -16 -20 -20 -15 23 27 21 -20 -20 -20 -20 -20 -20 -20 -20 -20 -20 -20 -20 -20 -20 -20 -20 -20 -20 -20 -20 -20 -20 -20
-14 -6 22 3 -20 -20 -20 -20 -20 -15 4 21 -1 -3 20 -20 -9 -17 -20 20 17 29 23 17 -13 -2 -20 -20 -20 -20 -20 -20 -20 -20 -20 -20 -20 -20 -20 -20 -20 -20 -20 -20 -20
-10 -17 9 5 -3 -18 -20 -20 -20 -20 -20 -20 -14 12 2 -15 35 -17 22 10 7 25 20 16 9 -11 -20 -18 -20 -20 -20 -20 -20 -20 -20 -20 -20 -20 -20 -20 -20 -20 -20 -20 -20
16 16 5 10 4 7 -20 -20 -20 -20 -20 -20 -10 22 21 22 35 10 24 28 36 30 -3 -3 11 9 -20 -20 -20 -20 -20 -20 -20 -20 -20 -20 -20 -20 -20 -20 -20 -20 -20 -20 -20
25 19 32 12 24 -4 -20 -18 -20 -10 -20 -12 -12 19 -20 -10 -2 17 -3 36 21 41 37 12 -3 -20 -20 -20 -20 -20 -20 -20 -20 -20 -20 -20 -20 -20 -20 -20 -20 -20 -20 -20 -20
5 17 15 -2 17 -20 -20 -20 -20 -20 -20 15 13 25 -8 -9 11 14 -3 1 13 14 32 13 -3 9 8 -17 1 -12 -20 -20 -20 -20 -20 -20 -20 -20 -20 -20 -20 -20 -20 -20 -20
13 21 21 -5 -13 -20 -20 -20 -20 -20 9 11 40 29 27 21 16 -1 21 20 24 21 25 30 3 -6 1 16 -9 -20 -20 -20 -20 -20 -20 -20 -20 -20 -20 -20 -20 -20 -20 -20 -20
5 -5 -20 16 -20 -20 -20 -20 -20 10 7 21 19 23 19 -8 -2 9 18 6 11 13 27 8 31 28 28 25 25 -0 -20 -20 -20 -20 -20 -20 -20 -20 -20 -20 -20 -20 -20 -20 -20
11 16 -17 -9 -11 -20 -20 -20 -20 -15 5 23 20 17 -20 -10 -20 19 30 26 9 19 29 -18 7 25 29 29 7 -18 -20 -20 -20 -20 -20 -20 -20 -20 -20 -20 -20 -20 -20 -20 -20
-20 -20 -20 -20 -20 -20 -20 -20 -20 -9 8 25 23 -20 -20 11 -5 -12 11 -19 18 8 14 -20 -20 -17 -18 -20 -18 -20 -20 -20 -20 -20 -20 -20 -20 -20 -20 -20 -20 -20 -20 -20 -20
-20 -20 -20 -20 10 8 -20 -20 -19 12 9 19 -13 -20 -11 6 -12 -4 -19 -8 -20 -20 -20 -20 -20 -20 -20 -20 -20 -20 -20 -20 -20 -20 -20 -20 -20 -20 -20 -20 -20 -20 -20 -20 -20
-20 -20 -20 -20 -20 -20 -20 -20 10 19 17 1 -20 -10 -14 5 -3 -20 -20 -20 -20 -20 -20 -20 -20 -20 -20 -20 -20 -20 -20 -20 -20 -20 -20 -20 -20 -20 -20 -20 -20 -20 -20 -20 -20
-20 -20 -20 -20 -20 -20 -20 4 -17 -20 -20 -20 -20 -20 -20 -6 -17 -20 -20 -20 -20 -20 -20 -20 -20 -20 -20 -20 -20 -20 -20 -20 -20 -20 -20 -20 -20 -20 -20 -20 -20 -20 -20 -20 -20
-20 -20 -20 -20 -20 -20 -20 -20 -20 -20 -20 -20 -20 -20 -20 -20 -20 -20 -20 -20 -20 -20 -20 -20 -20 -20 -20 -20 -20 -20 -20 -20 -20 -20 -20 -20 -20 -20 -20 -20 -20 -20 -20 -20 -20
-20 -20 -20 -20 -20 -20 -20 -20 -20 -20 -20 -20 -20 -20 -20 -20 -20 -20 -20 -20 -20 -20 -20 -20 -20 -20 -20 -20 -20 -20 -20 -20 -20 -20 -20 -20 -20 -20 -20 -20 -20 -20 -20 -20 -20
-20 -20 -20 -20 -20 -20 -20 -20 -20 -20 -20 -20 -20 -20 -20 -20 -20 -20 -20 -20 -20 -20 -20 -20 -20 -20 -20 -20 -20 -20 -20 -20 -20 -20 -20 -20 -20 -20 -20 -20 -20 -20 -20 -20 -20
-20 -20 -20 -20 -20 -20 -20 -20 -20 -20 -20 -20 -20 -20 -20 -20 -20 -20 -20 -20 -20 -20 -20 -20 -20 -20 -20 -20 -20 -20 -20 -20 -20 -20 -20 -20 -20 -20 -20 -20 -20 -20 -20 -20 -20
-20 -20 -10 -20 -20 -20 -20 -20 -20 -20 -20 -20 -20 -20 -20 -20 -20 -20 -20 -20 -20 -20 -20 -20 -20 -20 -20 -20 -20 -20 -20 -20 -20 -20 -20 -20 -20 -20 -20 -20 -20 -20 -20 -20 -20
-20 -20 -20 -20 -20 -20 -20 -20 -20 -20 -20 -20 -20 -20 -20 -20 -20 -20 -20 -20 -20 -20 -20 -20 -20 -20 -20 -20 -20 -20 -20 -20 -20 -20 -20 -20 -20 -20 -20 -20 -20 -20 -20 -20 -20
-1 -20 -11 -20 -20 -20 -20 -20 -20 -20 -20 -20 -20 -20 -20 -20 -20 -20 -20 -20 -20 -20 -20 -20 -20 -20 -20 -20 -20 -20 -20 -20 -20 -20 -20 -20 -20 -20 -20 -20 -20 -20 -20 -20 -20

GFSSW_prec_radar_033.txt.gz
Reflectivity
-13 12 -11 1 -11 -13 -7 22 13 23 -20 -20 -20 -20 -20 1 22 18 1 -10 -20 -18 11 -20 -15 -18 -20 -20 -20 -20 -20 -20 -20 -20 -20 -20 -20 -20 -20 -20 -20 -20 -20 -20 -20
-20 16 9 -13 -20 7 3 -14 17 21 -12 -20 -20 -20 -20 6 25 12 -20 -20 -20 -20 -20 -20 11 10 -20 -20 -20 -20 -20 -20 -20 -20 -20 -20 -20 -20 -20 -20 -20 -20 -20 -20 -15
-19 12 2 20 14 -10 17 -20 21 24 -14 -20 -20 -20 -20 -15 28 8 -1 -20 -20 -20 -20 -20 -9 -20 -19 -20 -20 -20 -20 -20 -20 -20 -20 -20 -20 -20 -20 -20 -20 -20 -20 -20 -19
13 -2 20 19 -8 -16 -10 0 18 7 -20 -18 -3 -20 -1 14 33 -6 9 -20 -20 -19 11 9 16 13 -20 -20 -20 -20 -20 -20 -20 -20 -20 -20 -20 -20 -20 -20 -20 -20 -20 -20 -20
19 7 14 -1 -1 -17 2 -5 -1 -4 -20 -17 -19 5 6 -4 16 -20 -9 -20 -20 -7 9 -10 6 -17 -19 -20 -20 -20 -20 -20 -20 -20 -20 -20 -20 -20 -20 -20 -20 -20 -20 -20 -20
22 11 26 -16 -15 -18 -20 -18 18 -13 -20 -12 -0 -5 5 10 7 28 24 12 -20 16 8 1 -20 -20 -20 -20 -20 -20 -20 -20 -20 -20 -20 -20 -20 -20 -20 -20 -20 -20 -20 -20 -20
18 18 22 -1 16 19 -1 -20 1 5 5 -20 24 -4 3 -17 6 22 26 24 -20 12 11 5 -20 -20 -20 -20 -20 -20 -20 -20 -20 -20 -20 -20 -20 -20 -20 -20 -20 -20 -20 -20 -20
20 17 21 -12 -11 6 -20 -20 -14 -8 5 2 -1 12 -2 -18 12 41 11 26 5 -10 11 -14 -1 -20 -20 -20 -20 -20 -20 -20 -20 -20 -20 -20 -20 -20 -20 -20 -20 -20 -20 -20 -20
21 22 12 4 13 10 -20 -20 -20 -20 2 -20 -20 -0 -19 -20 -2 13 -12 23 19 24 27 27 5 -1 -20 -20 -20 -20 -20 -20 -20 -20 -20 -20 -20 -20 -20 -20 -20 -20 -20 -20 -20
16 20 22 8 -20 -20 -20 -20 -20 -20 -2 16 -13 11 -17 -20 -20 -20 -20 16 23 24 31 28 14 6 -20 -20 -20 -20 -20 -20 -20 -20 -20 -20 -20 -20 -20 -20 -20 -20 -20 -20 -20
17 23 24 -4 -20 -1 -20 -20 -20 -20 12 -20 -4 -5 -17 -20 -20 -20 -20 25 28 28 15 23 -20 2 4 -20 -20 -20 -20 -20 -20 -20 -20 -20 -20 -20 -20 -20 -20 -20 -20 -20 -20
1 -1 3 -20 22 -4 -20 -20 -20 -20 -20 -20 -13 28 23 3 -20 -18 31 22 24 39 17 12 -11 -20 -20 -20 -20 -20 -20 -20 -20 -20 -20 -20 -20 -20 -20 -20 -20 -20 -20 -20 -20
12 -16 -18 -19 -6 -20 -19 -20 -20 -20 -12 -14 -17 22 18 10 -2 8 44 26 21 22 17 -17 5 -20 -20 10 4 -20 -20 -20 -20 -20 -20 -20 -20 -20 -20 -20 -20 -20 -20 -20 -20
1 -15 -20 -20 -20 -20 -20 -20 -20 -20 -20 4 5 21 6 23 30 38 41 40 44 36 32 25 17 8 -20 -20 -20 -20 -20 -20 -20 -20 -20 -20 -20 -20 -20 -20 -20 -20 -20 -20 -20
-18 -11 -20 -20 -20 -20 -20 -20 -20 -20 12 25 30 13 18 -20 8 -5 24 25 10 34 28 32 11 39 17 9 -20 -20 -20 -20 -20 -20 -20 -20 -20 -20 -20 -20 -20 -20 -20 -20 -20
-20 -20 -20 -20 -20 -5 -6 -19 -19 3 22 32 24 17 15 11 2 4 -14 -14 16 29 26 34 20 26 13 20 -3 -20 -20 -20 -20 -20 -20 -20 -20 -20 -20 -20 -20 -20 -20 -20 -20
-20 -20 -20 -20 -20 -20 -20 -20 -20 -6 17 24 13 10 -17 2 15 5 33 30 12 25 32 24 -18 -11 30 33 24 -4 -20 -20 -20 -20 -20 -20 -20 -20 -20 -20 -20 -20 -20 -20 -20
-20 -20 -20 -20 -20 -20 -20 -20 -20 6 14 -1 -17 -20 -20 -17 19 -6 -4 -17 -19 6 -17 -19 -17 -20 -12 -6 6 -20 -20 -20 -20 -20 -20 -20 -20 -20 -20 -20 -20 -20 -20 -20 -20
-20 -20 -20 -20 -20 -20 -20 -20 -20 -8 5 -20 -20 -20 -20 -20 -20 -20 -20 -20 -20 -8 -20 -20 -20 -20 -20 -20 -20 -20 -20 -20 -20 -20 -20 -20 -20 -20 -20 -20 -20 -20 -20 -20 -20
-20 -20 -20 -20 -20 -20 -20 -2 4 -20 -20 -20 -20 -20 -20 -20 -20 -20 -20 -20 -20 -20 -20 -20 -20 -20 -20 -20 -20 -20 -20 -20 -20 -20 -20 -20 -20 -20 -20 -20 -20 -20 -20 -20 -20
-20 -20 -20 -20 -20 -20 -20 -20 -20 -20 -20 -20 -20 -20 -20 -20 -20 -20 -20 -20 -20 -20 -20 -20 -20 -20 -20 -20 -20 -20 -20 -20 -20 -20 -20 -20 -20 -20 -20 -20 -20 -20 -20 -20 -20
-20 -20 -20 -20 -20 -20 -20 -20 -20 -20 -20 -20 -20 -20 -20 -20 -20 -20 -20 -20 -20 -20 -20 -20 -20 -20 -20 -20 -20 -20 -20 -20 -20 -20 -20 -20 -20 -20 -20 -20 -20 -20 -20 -20 -20
-20 -20 -20 -20 -20 -20 -20 -20 -20 -20 -20 -20 -20 -20 -20 -20 -20 -20 -20 -20 -20 -20 -20 -20 -20 -20 -20 -20 -20 -20 -20 -20 -20 -20 -20 -20 -20 -20 -20 -20 -20 -20 -20 -20 -20
-20 -20 -20 -20 -20 -20 -20 -20 -20 -20 -20 -20 -20 -20 -20 -20 -20 -20 -20 -20 -20 -20 -20 -20 -20 -20 -20 -20 -20 -20 -20 -20 -20 -20 -20 -20 -20 -20 -20 -20 -20 -20 -20 -20 -20
-20 -20 -20 -20 -20 -20 -20 -20 -20 -20 -20 -20 -20 -20 -20 -20 -20 -20 -20 -20 -20 -20 -20 -20 -20 -20 -20 -20 -20 -20 -20 -20 -20 -20 -20 -20 -20 -20 -20 -20 -20 -20 -20 -20 -20
-20 -20 -20 -20 -20 -20 -20 -20 -20 -20 -20 -20 -20 -20 -20 -20 -20 -20 -20 -20 -20 -20 -20 -20 -20 -20 -20 -20 -20 -20 -20 -20 -20 -20 -20 -20 -20 -20 -20 -20 -20 -20 -20 -20 -20
-20 -16 2 -20 -20 -20 -20 -20 -20 -20 -20 -20 -20 -20 -20 -20 -20 -20 -20 -20 -20 -20 -20 -20 -20 -20 -20 -20 -20 -20 -20 -20 -20 -20 -20 -20 -20 -20 -20 -20 -20 -20 -20 -20 -20

GFSSW_prec_radar_036.txt.gz
Reflectivity
-20 -20 -20 3 -1 -4 11 -15 15 25 20 -18 -20 -20 -20 -20 23 7 14 -7 -20 -20 2 -20 -18 11 -20 -20 -20 -20 -20 -20 -20 -20 -20 -20 -20 -20 -20 -20 -20 -20 -20 -20 -20
-13 -20 13 2 -9 -8 -20 -18 19 19 25 22 -20 -20 -20 -20 -18 13 26 -9 -20 -20 15 -20 -12 14 -20 -20 -20 -20 -20 -20 -20 -20 -20 -20 -20 -20 -20 -20 -20 -20 -20 -20 -20
20 16 10 -20 -14 -17 26 -1 -1 23 11 25 24 -20 -20 -20 -20 4 -18 11 -9 -20 7 -6 -1 -1 -20 -20 -20 -20 -20 -20 -20 -15 -19 -20 -20 -20 -20 -20 -20 -20 -20 -20 -20
17 8 20 20 -13 -20 26 28 -20 -18 -20 -20 -20 8 -20 5 -20 -20 -17 16 -1 -20 7 10 8 9 -3 -20 -20 -20 -20 -20 -20 -8 -20 -20 -20 -20 -20 -20 -20 -20 -20 -20 -20
-1 19 19 21 21 -20 -20 -15 -20 -3 -20 -20 -20 -6 -20 -3 -20 -20 9 -4 14 -8 2 9 -7 12 5 -20 -20 -20 -20 -20 -19 -8 -20 -20 -20 -20 -20 -20 -20 -20 -20 -20 -20
7 14 -20 -3 24 -4 -20 26 -12 -20 -20 -20 21 -20 -18 -8 -20 3 30 -20 9 1 3 7 -20 10 10 -6 -20 -20 -20 -20 -20 -20 -20 -20 -20 -20 -20 -20 -20 -20 -20 -20 -20
23 25 18 -20 -10 26 -20 -12 -12 0 -20 23 1 -20 1 -20 11 -20 31 -20 18 -20 5 25 -20 -18 -19 7 -19 -20 -20 -20 -20 -20 -20 -20 -20 -20 -20 -20 -20 -20 -20 -20 -20
16 20 23 -9 -13 19 22 -20 -14 -13 -14 15 -1 11 -16 -20 -20 -20 22 -4 18 -18 3 21 -20 14 -20 -20 -20 -20 -20 -1 2 -20 -20 -20 -20 -20 -20 -20 -20 -20 -20 -20 -20
11 15 21 24 4 -3 -20 -20 -7 -11 4 -20 -17 -7 -20 -20 -20 -11 13 4 2 9 21 13 -7 -20 -20 -20 -20 -20 -20 -20 -18 -20 -20 -20 -20 -20 -20 -20 -20 -20 -20 -20 -20
10 9 -2 24 -20 -20 -20 -20 -20 -20 1 -14 -15 3 -20 -15 7 20 16 30 1 22 26 27 23 17 1 -20 -20 -20 -20 -20 -20 -20 -20 -20 -20 -20 -20 -20 -20 -20 -20 -20 -20
-2 19 -20 -11 -20 -20 -20 -20 -20 -20 -20 -20 -20 6 21 22 27 27 1 34 15 19 13 29 19 7 -15 -20 -20 -20 -20 -20 -17 -20 -20 -20 -20 -20 -20 -20 -20 -20 -20 -20 -20
7 -7 -0 -20 -20 -20 -20 -20 -20 -11 -20 4 15 20 5 24 21 23 28 39 6 9 13 25 14 -4 9 -20 -20 -20 -20 -20 -10 -20 -20 -20 -20 -20 -20 -20 -20 -20 -20 -20 -20
2 -20 -20 -20 -20 -20 -20 -20 -20 -20 10 9 31 25 -4 10 -13 15 10 43 7 15 22 11 5 -20 -11 -20 -7 -20 -20 -20 -20 -20 -20 -20 -20 -20 -20 -20 -20 -20 -20 -20 -20
-20 -19 -20 -20 -20 -20 -20 -6 -19 23 35 19 29 25 13 25 18 -13 21 36 30 21 23 35 17 -20 -20 -3 -20 -20 -20 -20 -20 -20 -20 -20 -20 -20 -20 -20 -20 -20 -20 -20 -20
-20 -20 -20 -20 -20 -13 9 -20 -20 -6 16 28 20 3 -9 -17 -3 15 32 31 37 34 28 13 0 5 -3 -13 -20 -20 -20 -20 -20 -20 -20 -20 -20 -20 -20 -20 -20 -20 -20 -20 -20
-14 -20 -20 -20 -20 -20 -20 -20 -20 -14 12 20 20 -7 13 29 32 34 32 32 31 25 30 24 12 20 1 -20 10 -20 -20 -20 -20 -20 -20 -20 -20 -20 -20 -20 -20 -20 -20 -20 -20
-19 -20 -20 -20 -20 -20 -20 -20 -10 -11 3 5 24 8 11 19 15 15 11 19 25 33 37 34 24 34 21 -13 -20 -20 -18 -1 -20 -20 -20 -20 -20 -20 -20 -20 -20 -20 -20 -20 -20
-20 -20 -20 -20 -20 -20 -7 -20 -20 -9 2 -6 13 -17 2 9 17 26 32 -7 2 -20 22 24 16 29 36 29 18 -19 -4 -18 -20 -20 -20 -20 -20 -20 -20 -20 -20 -20 -20 -20 -20
-20 -20 -20 -20 -20 -20 -20 -20 -20 -20 2 -2 -20 -20 -10 -20 -18 -2 -19 -17 -17 -18 -4 -20 -12 -20 12 27 25 20 -3 -20 -20 -20 -20 -20 -20 -20 -20 -20 -20 -20 -20 -20 -20
-20 -20 -20 -20 -20 -20 -20 2 -8 -20 -20 -20 -20 -20 -20 -20 -20 -20 -20 -20 -20 -20 -20 -20 -15 -20 -20 -15 -12 -6 -4 -20 -20 -20 -20 -20 -20 -20 -20 -20 -20 -20 -20 -20 -20
-20 -20 -20 -20 -20 -20 -20 3 -5 -20 -20 -20 -20 -20 -20 -20 -20 -20 -20 -20 -20 -20 -20 -20 -20 -20 -20 -20 -20 -20 -20 -20 -20 -20 -20 -20 -20 -20 -20 -20 -20 -20 -20 -20 -20
-20 -20 -20 -20 -20 -20 -20 -20 -20 -15 -20 -20 -20 -20 -20 -20 -20 -20 -20 -20 -20 -20 -20 -20 -20 -20 -19 -20 -20 -20 -20 -20 -20 -20 -20 -20 -20 -20 -20 -20 -20 -20 -20 -20 -20
-20 -20 -20 -20 -20 -20 -20 -20 -20 -20 -20 -20 -20 -20 -20 -20 -20 -20 -20 -20 -20 -20 -20 -20 -20 -6 -16 -16 -20 -20 -20 -20 -20 -20 -20 -20 -20 -20 -20 -20 -20 -20 -20 -20 -20
-20 -20 -20 -20 -20 -20 -20 -20 -20 -20 -20 -20 -20 -20 -20 -20 -20 -20 -20 -20 -20 -20 -20 -20 -20 -20 -20 -20 -20 -20 -20 -20 -20 -20 -20 -20 -20 -20 -20 -20 -20 -20 -20 -20 -20
-20 -20 -20 -20 -20 -20 -20 -20 -20 -20 -20 -20 -20 -20 -20 -20 -20 -20 -20 -20 -20 -20 -20 -20 -20 -20 -20 -20 -20 -20 -20 -20 -20 -20 -20 -20 -20 -20 -20 -20 -20 -20 -20 -20 -20
-11 -20 -20 -20 -20 -20 -20 -20 -20 -20 -20 -20 -20 -20 -20 -20 -20 -20 -20 -20 -20 -20 -20 -20 -20 -20 -20 -20 -20 -20 -20 -20 -20 -20 -20 -20 -20 -20 -20 -20 -20 -20 -20 -20 -20
-20 -19 -13 -20 -20 -20 -20 -20 -20 -20 -20 -20 -20 -20 -20 -20 -20 -20 -20 -20 -20 -20 -20 -20 -20 -20 -20 -20 -20 -20 -20 -20 -20 -20 -20 -20 -20 -20 -20 -20 -20 -20 -20 -20 -20

GFSSW_prec_radar_039.txt.gz
Reflectivity
12 9 16 -10 9 -20 -7 -18 19 -6 12 19 25 -19 -20 -20 -20 6 6 2 -20 -20 -16 -20 -20 -19 -20 1 -17 -20 -8 0 -20 -20 -20 -20 -20 -20 -20 -20 -20 -20 -20 -20 -20
8 5 17 -13 14 -5 -20 -20 -12 18 6 26 25 -0 -20 -20 -20 -4 -12 20 -20 -20 -1 -20 -19 -2 -20 -0 -17 -20 -8 -20 -20 -20 3 -20 -20 -20 -20 -20 -20 -20 -20 -20 -20
3 6 -12 11 1 13 10 11 -16 25 -5 22 27 30 -20 -20 -20 -20 17 17 1 -20 12 -20 -18 -2 -20 -5 -15 -20 -20 -20 -20 -17 -8 -17 -20 -20 -20 -20 -20 -20 -20 -20 -20
-20 6 3 14 -8 8 17 23 16 19 20 19 24 -7 -20 -20 -20 -16 -20 14 3 -10 9 4 -20 13 -18 -9 -20 -20 -20 -20 -20 -20 -3 -14 -20 -20 -20 -20 -20 -20 -20 -20 -20
18 14 22 17 -20 -1 6 6 -6 -0 -20 -4 7 -13 -18 -13 -20 9 -17 -14 12 -9 -20 12 -20 -1 -5 -20 -20 -20 -20 -20 -20 -13 7 4 -20 -20 -20 -20 -20 -20 -20 -20 -20
19 19 19 24 -20 -14 -20 23 -16 7 -20 -20 0 -4 -12 -2 -20 -20 5 -15 23 25 -20 -20 -20 -20 -20 -20 -20 -20 -20 -20 -19 7 11 -5 -20 -20 -20 -20 -20 -20 -20 -20 -20
7 21 20 -14 25 18 21 24 -16 -20 -18 -20 -20 -20 -3 -19 -20 -2 21 -20 20 24 -20 -20 -20 -20 -18 -0 -20 -20 -20 -19 -2 11 -6 -20 -20 -20 -20 -20 -20 -20 -20 -20 -20
17 20 18 21 24 -20 -20 -20 -20 -20 -20 -20 -20 -20 -20 -20 -20 -20 -0 -20 -20 -2 -20 -20 -20 -20 -18 -20 -20 2 -13 -20 -5 8 -3 -20 -20 -20 -20 -20 -20 -20 -20 -20 -20
16 14 -7 -20 -20 -20 -20 -20 -20 -20 -20 -20 -13 14 -10 -20 -20 -20 -1 -15 8 27 -20 -20 2 -20 -20 4 14 -6 -20 -20 2 14 -4 -20 -20 -20 -20 -20 -20 -20 -20 -20 -20
5 -13 -20 -20 -20 -20 -20 -20 -20 -20 -15 14 19 19 -20 -20 -20 -7 21 10 28 19 17 20 13 14 10 -12 -13 -20 -20 -20 -20 -12 -20 -20 -20 -20 -20 -20 -20 -20 -20 -20 -20
5 11 12 -20 -20 -20 -20 -20 26 21 19 19 14 16 23 -20 23 16 -3 9 16 15 5 26 20 11 -20 -20 -20 -20 -20 -20 -17 -20 -20 -20 -20 -20 -20 -20 -20 -20 -20 -20 -20
-20 -20 -20 -20 -20 -18 -20 1 -4 -13 -1 -14 -8 -20 17 0 16 21 -19 37 15 15 -16 17 3 -20 -20 -20 -20 -20 -20 -20 -10 -20 -20 -14 -20 -20 -20 -20 -20 -20 -20 -20 -20
-20 -20 -20 -20 -20 2 15 1 -13 4 33 25 -3 -5 14 22 33 32 26 15 14 19 10 -4 -5 25 -19 -20 -20 -20 -20 -20 -5 -20 -20 -20 -20 -20 -20 -20 -20 -20 -20 -20 -20
5 -20 -20 -20 -20 -20 -16 -16 -16 5 32 28 8 26 29 40 35 29 29 37 9 11 8 18 21 -5 -20 -18 -20 -20 -20 -20 -20 -20 -20 -20 -20 -17 -20 -20 -20 -20 -20 -20 -20
-20 -20 -20 -20 -20 -20 -20 -20 -20 -4 24 29 17 19 26 27 12 -1 24 36 9 6 19 25 23 20 -0 -20 -20 -7 -20 -20 -20 -7 -20 -20 -20 -20 -20 -20 -20 -20 -20 -20 -20
13 -20 -20 -20 -20 -20 -20 -20 -10 -10 11 16 11 18 -11 4 8 11 26 3 21 25 29 9 26 29 7 -16 -9 -20 -20 -20 -20 -20 -20 -20 -20 -20 -20 -20 -20 -20 -20 -20 -20
12 -4 -20 -20 -20 -20 -20 -20 -18 -0 -9 8 9 6 -5 11 31 31 25 36 35 29 31 31 26 18 -20 4 4 -20 -12 6 6 -4 -16 -20 -20 -20 -20 -20 -20 -20 -20 -20 -20
-20 -20 -20 -20 -20 -13 7 -20 -20 -13 0 10 9 -6 5 6 7 3 13 29 35 31 26 29 18 20 26 -20 -20 -20 -3 16 -3 -18 -20 -20 -20 -20 -20 -20 -20 -20 -20 -20 -20
-20 -20 -20 -20 -20 -10 -18 -20 1 -8 -8 -19 -20 -20 -15 -20 -18 6 -4 21 11 4 13 15 10 28 37 -6 -20 -18 -17 -20 -20 -20 -20 -20 -20 -20 -20 -20 -20 -20 -20 -20 -20
-20 -20 -20 -20 -20 -12 -18 -14 5 -20 -20 -20 -20 -20 0 -15 -12 -7 6 -14 -12 -14 15 2 -9 10 18 24 26 -3 -20 -15 -20 -20 -20 -20 -20 -20 -20 -20 -20 -20 -20 -20 -20
-20 -20 -20 -20 -20 -20 -20 -20 5 -20 -20 -20 -20 -20 -20 -20 -20 -8 -20 -20 -20 -20 -20 -20 -20 -9 -20 -1 7 11 26 -15 -20 -20 -20 -20 -20 -20 -20 -20 -20 -20 -20 -20 -20
-20 -9 -20 -20 -1 -20 -20 -20 -20 -20 -20 -20 -20 -20 -20 -20 -20 -20 -20 -20 -20 -20 -20 -20 -20 -20 2 -20 -19 -7 -11 -2 -20 -20 -20 -20 -20 -20 -20 -20 -20 -20 -20 -20 -20
-20 -20 -20 -20 -3 -20 -20 -20 -20 -20 -20 -20 -20 -20 -20 -20 -20 -20 -20 -20 -20 -20 -20 -20 -20 -20 -17 -20 -20 -20 -20 -20 -20 -20 -20 -20 -20 -20 -20 -20 -20 -20 -20 -20 -20
-20 -17 -20 -20 -20 -20 -20 -20 -20 -20 -20 -20 -20 -20 -20 -20 -20 -20 -20 -20 -20 -20 -20 -20 -20 -20 -20 -20 -20 -20 -20 -20 -20 -20 -20 -20 -20 -20 -20 -20 -20 -20 -20 -20 -20
-20 -20 -20 1 -20 -20 -20 -20 -20 -20 -20 -20 -20 -20 -20 -20 -20 -20 -20 -20 -20 -20 -20 -20 -20 -20 -20 -20 -20 -20 -20 -20 -20 -20 -20 -20 -20 -20 -20 -20 -20 -20 -20 -20 -20
-18 -12 -20 -20 -20 -20 -20 -20 -20 -20 -20 -20 -20 -20 -20 -20 -20 -20 -20 -20 -20 -20 -20 -20 -20 -20 -20 -20 -20 -20 -20 -20 -20 -20 -20 -20 -20 -20 -20 -20 -20 -20 -20 -20 -20
-20 -7 1 -20 -20 -20 -20 -20 -20 -20 -20 -20 -20 -20 -20 -20 -20 -20 -20 -20 -20 -20 -20 -20 -20 -20 -20 -20 -20 -20 -20 -20 -20 -20 -20 -20 -20 -20 -20 -20 -20 -20 -20 -20 -20

GFSSW_prec_radar_042.txt.gz
Reflectivity
13 3 -1 2 12 3 8 16 -17 8 -20 -20 -11 22 16 -20 -20 -6 -20 -11 -8 -20 -20 -20 -20 -11 -3 -20 -16 24 21 35 -20 -15 -19 -7 -20 -20 -20 -20 -20 -20 -20 -20 -7
-20 10 8 12 -3 3 3 19 6 -6 -20 -20 4 11 28 -20 -20 -20 -20 10 -20 -13 -20 -20 -20 -20 -2 -19 -14 22 5 -2 3 -0 -14 24 -17 -20 -20 -20 -20 -20 -20 -20 -20
9 22 23 -2 -1 22 0 21 -10 -20 -13 -19 -6 31 29 2 -20 -20 -20 22 2 14 -20 -20 -20 -20 -17 -20 -20 -17 -4 -1 26 4 15 32 -15 -20 -20 -20 -20 -20 -20 -20 -20
17 18 17 -2 28 4 13 20 -19 -18 -16 -20 -18 30 34 23 -5 -20 -20 -15 -9 24 24 -20 -20 3 6 -20 -20 -15 6 13 9 13 11 10 -16 -20 -20 -20 -20 -20 -20 -20 -20
6 11 19 -11 11 5 -20 -20 20 -20 22 -20 12 30 28 8 -20 -20 -20 -20 -12 27 -20 -20 -20 -20 -10 -20 -20 -20 6 11 4 3 -19 15 -19 -0 -20 -20 -20 -20 -20 -20 -20
4 3 10 15 -6 11 24 21 -20 17 -20 -20 -19 10 13 -7 -20 -20 -20 11 23 3 -20 13 -20 -20 -14 -20 -20 -20 1 5 11 -20 -20 -19 1 -20 -20 -20 -20 -20 -20 -20 -20
12 9 8 -2 13 20 -20 -20 -8 4 -20 -20 -20 -20 4 -3 -20 -20 -20 13 29 30 -20 -20 -20 1 -20 -11 -20 -20 -13 -8 16 -20 -16 13 10 -20 -20 -20 -20 -20 -20 -20 -20
6 4 -17 -20 -20 -20 -20 -20 -20 -20 -20 -20 -20 -2 -16 -20 -20 -20 -20 7 19 8 -7 -20 -20 -8 -18 -20 -20 -20 -20 6 -19 -20 1 1 -20 -20 -20 -20 -20 -20 -20 -20 -20
7 1 -20 -20 -20 -20 -20 -20 -20 -20 -20 -20 -20 -20 -20 -20 -20 -15 18 18 -14 27 30 -5 -20 -15 -4 12 12 -2 -20 -20 -20 -20 4 -8 -20 -20 -20 -20 -20 -20 -20 -20 -20
-15 -2 -20 -13 -17 -20 -20 -20 -20 -20 -20 -20 -20 -20 -20 -20 -20 -19 16 7 -3 24 29 10 24 -4 -10 -3 -12 -15 -20 -20 -20 -20 -20 -18 -20 -13 -20 -20 -20 -20 -20 -20 -20
-20 -20 -20 -20 4 4 -2 -20 25 4 -20 -16 -3 -20 -20 -20 -20 -20 14 -8 19 45 16 -9 -5 -20 -20 -20 -20 -20 -20 -20 -20 -20 -20 -20 -20 -2 -20 -20 -20 -20 -20 -20 -20
14 -20 -18 -20 -20 -12 14 4 -20 -20 3 -20 -20 -20 3 -20 8 17 30 27 32 33 -3 14 -6 -20 -20 -20 -20 8 -20 -20 -20 -20 -20 -20 -20 -20 -20 -20 -20 -20 -20 -20 -20
6 8 -20 -20 -20 -8 18 19 -10 -16 18 -20 2 19 8 21 21 22 10 26 15 -5 -2 0 -16 -3 -20 -20 -20 -20 -20 -20 -20 -20 -20 -20 -20 -20 -20 -20 -20 -20 -20 -20 -20
10 2 -12 -20 -19 -20 -20 -7 -20 -20 -2 9 -3 5 8 20 41 34 34 26 11 14 -14 13 14 -16 10 -1 -20 -7 -20 -20 -20 -20 -20 -18 -20 -20 -20 -20 -20 -20 -20 -20 -20
-20 -14 -6 -20 -20 -20 -20 -20 -20 -9 21 30 30 -4 -9 33 24 22 12 25 -14 10 9 5 -14 -18 -17 -19 -19 -4 -20 -20 -20 -20 -20 -20 -20 -20 -20 -20 -20 -20 -20 -20 -20
-20 14 -20 -20 -20 -20 -20 -19 -15 -13 -13 36 34 32 35 21 14 12 10 27 13 10 3 -20 -20 32 19 19 19 -18 -20 -20 -20 -20 -20 -20 -20 -20 -20 -20 -20 -20 -20 -20 -20
-20 -9 -16 -20 -14 -20 -4 10 -20 -3 -20 8 23 13 -12 14 12 16 18 24 -14 14 17 6 -1 -19 15 27 19 1 -20 -9 3 -9 -20 -20 -20 -20 -20 -20 -20 -20 -20 -20 -20
-20 -20 -20 -20 -20 -20 15 2 -20 -14 1 -20 9 4 10 9 11 9 23 23 14 -20 16 36 19 22 32 14 -20 -20 -20 -8 -20 -19 -20 -20 -20 -20 -20 -20 -20 -20 -20 -20 -20
-20 -20 -20 -20 -20 -20 -4 -20 -20 -12 -7 -19 -20 -0 5 10 14 11 32 28 20 24 26 24 13 24 27 2 -15 -6 -20 -20 -20 -20 -20 -20 -20 -20 -20 -20 -20 -20 -20 -20 -20
-20 -20 -20 -20 -20 -20 -12 -20 -14 -20 -20 -20 -18 -20 -20 -11 -10 -8 6 18 -1 14 12 -18 -10 21 10 22 12 -5 -20 -20 -20 -20 -20 -20 -20 -20 -20 -20 -20 -20 -20 -20 -20
-20 -20 -20 -20 -20 -20 -20 -20 -20 -20 -20 -20 -20 -20 -20 -20 -20 1 -20 -20 -20 -4 -7 -4 -20 17 20 28 15 -20 -20 -20 -20 -20 -20 -20 -20 -20 -20 -20 -20 -20 -20 -20 -20
-20 -20 -20 -20 -5 -1 -20 -20 -20 -20 -20 -20 -20 -20 -20 -20 -20 -20 -20 -20 -20 -20 -20 -20 -20 -2 5 -16 10 11 -0 -20 -20 -20 -20 -20 -20 -20 -20 -20 -20 -20 -20 -20 -20
-20 -20 -20 -20 9 -20 -20 -20 -20 -20 -20 -20 -20 -20 -20 -20 -20 -20 -20 -20 -20 -20 -20 -20 -20 -20 -20 -20 -20 7 -1 -17 21 -7 -20 -11 -20 -20 -20 -20 -20 -20 -20 -20 -20
-20 -20 -9 -20 -20 -19 -17 -20 -20 -20 -20 -20 -20 -20 -20 -20 -20 -20 -20 -20 -20 -20 -20 -20 -20 -20 -20 -20 -20 -20 -20 -20 -14 -13 -19 -18 -20 -20 -20 -20 -20 -20 -20 -20 -20
-20 -20 -20 -20 -20 -20 -20 -20 -20 -5 -20 -20 -20 -20 -20 -20 -20 -20 -20 -20 -20 -20 -20 -20 -20 -20 -20 -20 -20 -20 -20 -20 -20 -20 -18 -15 -20 -20 -20 -20 -20 -20 -20 -20 -20
-20 -20 -20 -20 -20 -20 -20 1 -4 2 -20 -8 -20 -20 -20 -18 -20 -20 -20 -20 -20 -20 -20 -20 -20 -20 -20 -20 -20 -20 -20 -20 -20 -20 -20 -20 -20 -20 -20 -20 -20 -20 -20 -20 -20
-20 -20 -10 -20 -20 -18 -20 -20 -20 -20 -15 -20 -20 -20 -20 -6 -20 -20 -20 -20 -20 -20 -20 -20 -20 -20 -20 -20 -20 -20 -20 -20 -20 -20 -20 -20 -20 -20 -20 -20 -20 -20 -20 -20 -20

GFSSW_prec_radar_045.txt.gz
Reflectivity
9 11 15 -5 -19 -19 -20 12 12 5 -18 -20 -20 -20 15 -12 -15 1 -8 -20 10 -20 -20 -20 -20 -20 -20 6 -6 28 27 26 26 30 7 13 24 -12 -20 -20 -20 -20 -20 -20 -20
20 15 15 20 0 -6 8 -10 -7 -3 -20 -20 -20 -20 26 19 6 -20 -4 6 -8 -9 -20 -20 -20 -20 17 -4 2 23 27 -16 -6 -16 25 15 -3 8 -20 -20 -20 -20 -20 -20 -20
-16 15 -13 13 20 6 30 -19 -10 -16 -20 -20 -20 9 -9 25 20 -20 -20 9 -10 -13 -20 -20 -20 17 -20 -20 15 12 17 -20 20 20 35 21 -19 8 -20 -20 -20 -20 -20 -20 -20
7 14 25 8 9 0 -18 26 23 -20 -17 -17 -20 -20 -20 8 33 -20 -20 -18 17 28 7 -20 -20 -17 -16 -20 -3 2 5 0 16 15 35 34 -8 -4 -6 -20 -20 -20 -20 -20 -20
14 11 4 9 1 -8 14 -20 -20 -20 -20 23 -10 -16 7 20 29 -20 -20 -20 22 31 23 -20 -13 -10 -20 -20 -20 -18 3 5 17 -2 13 25 28 25 -8 -20 -20 -20 -20 -20 -20
9 6 1 -7 -20 -13 -20 -20 -20 -20 -20 -20 -20 10 22 20 23 -9 -20 -20 26 28 22 -20 -20 -20 -20 -20 -20 -20 -1 9 5 15 12 30 26 4 1 -20 -20 -20 -20 -20 -20
16 5 2 -20 -20 -20 -20 -20 -20 -20 -20 -20 -20 -8 8 25 -16 -20 29 15 22 29 22 -20 -20 -20 -20 -20 -20 -14 -19 0 -8 -12 6 -20 -20 18 -20 -20 -20 -20 -20 -20 -20
-18 5 3 -20 -20 -7 -20 -20 -20 -20 -20 -20 -20 -20 -17 16 -20 -20 -12 -2 -19 18 25 13 -17 -12 7 -20 -20 -3 -20 -20 -20 -8 4 5 -20 -16 -19 -20 -20 -20 -20 -20 -20
-20 -20 -8 -19 -17 11 -20 -20 -20 -20 -20 -20 -20 -17 -20 -20 -20 -20 -14 6 5 13 5 -2 -5 -20 -19 -4 2 -6 -20 -20 -20 -20 -20 -1 -4 -20 -20 -20 -20 -20 -20 -20 -20
13 -20 -20 -20 -20 15 -20 -20 -20 -20 -20 -20 -20 -15 -20 -20 -20 -20 -18 25 38 37 40 23 20 -12 -12 -6 -14 -19 -20 -20 -20 -19 -3 0 -20 -20 -20 -20 -20 -20 -20 -20 -20
12 7 -20 -20 -20 -5 -20 -20 -20 -20 -20 7 -20 -20 -20 -20 -20 -20 -20 28 39 32 20 -17 -20 -14 -20 -20 -20 -20 -20 -20 -20 -20 -14 -13 -20 -14 -20 -20 -20 -20 -20 -20 -20
15 -16 -18 -20 -20 -20 -20 -20 -15 -11 -20 -20 -20 -20 -20 -20 6 15 0 -10 14 16 37 40 -20 -20 -20 -20 -20 -20 -20 -20 -20 -20 -13 -15 -20 -20 -20 -20 -20 -20 -20 -20 -20
-1 12 -15 -20 -20 -20 -20 -20 -20 -20 -5 -20 -20 -20 -7 -3 21 23 37 19 14 6 29 -12 -20 -20 -20 -20 -20 -20 -20 -20 -20 -20 -20 -20 -20 -20 -20 -20 -20 -20 -20 -20 -20
-2 8 -15 -20 -20 -20 -20 -20 -19 -16 -18 1 -13 -5 18 17 -5 11 -12 15 23 37 23 4 -20 -20 -20 -20 -20 -20 -20 -20 -20 -20 -20 -20 -20 -20 -20 -20 -20 -20 -20 -20 -20
-2 -1 -2 -20 -20 -20 -20 -20 -20 -20 1 15 9 26 24 17 14 21 36 33 20 25 2 1 1 4 -2 -20 -20 -20 -20 -20 -20 -20 -20 -20 -20 -20 -20 -20 -20 -20 -20 -20 -20
-20 8 13 -20 -20 -20 -20 -20 -20 -20 4 26 41 29 35 32 18 -12 11 6 19 4 -20 -20 -20 2 -20 -14 -20 -20 -20 -20 -20 -20 -20 -20 -20 -20 -20 -20 -20 -20 -20 -20 -20
-20 10 -1 -20 -20 -20 -9 -20 -20 -20 -20 7 4 16 -1 11 9 -10 -7 -12 -15 8 -8 -18 -4 -20 -18 -20 -20 -20 -18 -20 -8 -20 -20 -20 -20 -20 -20 -20 -20 -20 -20 -20 -20
-20 -20 -20 -20 -20 -20 -20 -20 -20 -20 -3 -20 11 -18 -19 -5 8 13 14 10 -20 -20 -20 -15 11 8 18 -13 -19 -20 -1 -20 -20 -20 -20 -20 -20 -20 -20 -20 -20 -20 -20 -20 -20
-20 -20 -20 -20 -20 -20 -20 -20 -20 -20 -20 -19 -20 5 13 12 11 29 17 -3 -17 -20 -20 -20 -20 19 -15 -20 -15 15 19 -19 -20 -20 -20 -20 -20 -20 -20 -20 -14 0 -20 -20 -20
-20 -20 -20 -20 -20 -20 -20 -20 -20 -20 -20 -20 -20 -20 -20 -14 -20 -10 29 9 -9 -20 -20 -20 6 19 -8 21 15 17 13 7 -20 -8 -20 -20 -20 -20 -20 -20 -16 -19 -20 -20 -20
-20 -20 -20 -20 -20 -20 -20 -20 -20 -20 -20 -20 -20 -20 -20 -20 -20 -13 -20 -19 -18 -20 -20 -20 -20 12 21 31 24 -18 -17 -20 -20 -20 -20 -20 -20 -20 -20 -20 -20 -20 -20 -20 -20
-20 -18 -20 -20 -20 -17 -20 -20 -20 -20 -20 -20 -20 -20 -20 -20 -20 -20 -20 -20 -20 -20 -15 -20 -20 -9 -20 -19 -14 19 15 26 -16 -20 -20 -20 -20 -20 -20 -20 -20 -20 -20 -20 -20
-20 -20 -20 -20 -20 -20 -20 -20 -20 -20 -20 -20 -20 -20 -20 -20 -20 -20 -20 -20 -20 -20 -20 -20 -20 -20 -9 -20 -7 10 -20 -20 -20 -20 -20 -20 -20 -20 -20 -20 -20 -20 -20 -20 -20
-20 -20 -20 -20 -20 -20 -20 -20 -20 -20 -20 -20 -20 -20 -20 -20 -20 -20 -20 -20 -20 -20 -20 -20 -20 -20 -20 -20 -20 -20 -20 -11 -16 -20 -13 -20 -20 -20 -20 -20 -20 -20 -20 -20 -20
-20 -20 -20 -20 -20 -20 -20 -20 -20 -20 -20 -20 -20 -20 -20 -20 -20 -20 -20 -20 -20 -20 -20 -20 -20 -20 -20 -20 -20 -20 -20 -20 -10 -7 8 8 6 -20 -20 -20 -20 -20 -20 -20 -20
-20 -20 -20 -19 -20 -20 -20 -20 -20 -8 -20 -20 -20 -20 -20 -20 -20 -20 -20 -20 -20 -20 -20 -20 -20 -20 -20 -20 -20 -20 -20 -20 -20 -20 -20 -20 -20 -20 -20 -14 -20 -20 -20 -20 -20
-20 -20 -20 -20 -16 -20 -15 -20 -20 -20 -18 -20 -20 -20 -20 -20 -20 -20 -20 -20 -20 -20 -20 -20 -20 -20 -20 -20 -20 -20 -20 -20 -20 -20 -20 -20 -20 -20 -20 -20 -20 -20 -20 -20 -20

GFSSW_prec_radar_048.txt.gz
Reflectivity
8 12 9 14 10 -13 6 -17 28 -18 24 8 -20 -14 -20 -20 15 17 -3 -20 -20 -20 -20 -20 -20 -20 -20 -20 35 -6 8 -3 -8 23 28 -14 -20 -20 -20 -20 -20 -20 -20 -20 -20
-20 12 -0 14 6 -13 -19 -20 6 -17 -16 -20 -20 -15 -20 -7 -18 -20 9 -5 -20 17 -4 -20 -20 -20 -14 -20 -20 17 -14 -16 -20 -3 18 -6 -20 -20 -20 -20 -20 -20 -20 -20 -20
15 9 -8 12 -3 -10 -20 -20 15 -20 -20 -20 -20 -20 -20 -14 18 -20 -12 12 -16 25 -20 -20 -20 -20 -17 -4 -18 14 26 5 11 -7 36 24 13 -20 -20 -20 -20 -20 -20 -20 -13
10 16 11 8 0 -15 -20 16 -20 -20 -20 -20 -20 -20 -20 6 8 -20 -20 3 16 22 24 -20 -20 9 -16 4 -20 -5 10 10 22 21 32 19 11 3 -20 -20 -20 -20 -20 -20 -20
-13 15 4 8 11 -20 -20 -20 -20 -20 -20 22 -20 -20 -11 -17 -15 -20 5 -10 6 25 24 -17 -20 -3 8 -20 -20 -20 -18 10 12 26 24 30 36 -4 -20 -20 -20 -4 -20 -20 -20
-6 -20 -4 -13 -4 -20 -20 -20 -20 -20 -20 -20 -20 1 -6 13 -20 -20 -20 -20 -20 16 27 4 -20 8 -20 -20 -20 -20 -20 23 28 24 18 20 31 19 -20 -20 -20 -20 -19 -20 -20
-20 -12 -12 -9 -20 -9 -20 -20 -20 -20 -20 -20 -20 -1 -0 27 18 23 22 -20 -20 26 -2 8 -20 -17 -20 -20 -20 -20 1 20 19 -2 -20 10 28 27 22 -20 -20 -20 -20 -20 -20
10 -20 -3 -20 -20 -20 -20 -20 -20 -20 -20 -20 -20 -20 -3 12 33 2 -18 22 16 21 28 20 -3 7 -20 -20 -20 -20 -20 -3 3 -0 -19 8 6 20 28 22 -5 -20 -20 -20 -19
8 -3 -20 -20 -20 -20 -20 -20 -20 -20 -20 -20 -20 -20 -19 -14 -16 -20 -20 29 28 32 22 31 19 -20 -20 -20 -16 -10 -20 -20 -5 -2 7 -15 9 10 15 20 -15 -20 -20 -20 -20
14 3 -14 -20 -20 -20 -20 -20 -20 -20 -20 -20 -20 -20 -16 -19 -20 -20 -20 12 29 34 31 31 23 -13 -20 6 -14 -19 -20 -20 -10 -1 -8 -17 3 13 2 -20 -20 -20 -20 -20 -20
-20 -20 -1 -20 -20 -20 -20 -20 -20 -20 -20 -20 -20 -20 -20 -20 -20 -20 9 -20 18 18 35 27 -10 -20 -20 -20 -20 -20 -20 -20 -20 -5 -0 -6 -7 10 6 -20 -20 -20 -20 -20 -20
-16 -18 -6 -20 -20 -20 -20 -20 -20 -20 -20 -20 -20 -20 -20 -20 9 -20 5 -14 20 33 22 18 -10 -20 -20 -20 -20 -20 -20 -20 -20 -11 -12 -19 -20 -14 -10 -20 -20 -20 -20 -20 -20
11 1 7 -6 -20 -20 -20 -20 -20 -13 -20 -20 -20 -20 -20 -18 8 -7 7 34 36 13 33 32 1 -20 -20 -20 -20 -20 -20 -20 -20 -20 -20 -20 -20 -19 -20 -20 -20 -20 -20 -20 -20
13 -1 14 4 -20 -20 -20 -20 -20 -12 -18 -14 4 3 -16 19 6 7 21 26 37 36 11 1 -3 -20 -20 -20 -20 -20 -20 -20 -20 -20 -20 -20 -20 -20 -20 -20 -20 -20 -20 -20 -20
-3 -16 9 3 -20 -20 -20 -20 -20 -20 8 -3 16 -17 -0 -9 9 42 32 18 30 39 37 21 -19 -20 -20 -20 -20 -20 -20 -20 -20 -20 -20 -20 -20 -20 -20 -20 -20 -20 -20 -20 -20
-20 -20 2 -20 -20 -20 -18 -20 -20 -20 -12 30 25 33 30 8 9 2 16 4 25 36 -5 -15 -20 -20 -20 -20 -20 -20 -20 -20 -20 -20 -20 -20 -20 -20 -20 -20 -20 -20 -20 -20 -20
-20 -20 -20 -20 -20 -20 -11 -20 -20 -20 -20 1 14 29 12 9 4 -19 -0 20 20 5 -20 -13 -20 -20 -20 -20 -20 -20 -20 -20 -20 -20 -20 -20 -20 -20 -20 -20 -20 -20 -20 -20 -20
-20 -20 -20 -20 -20 -20 -20 -20 -20 -20 10 -17 -4 -16 19 4 11 18 -12 -10 -20 -20 -20 -13 18 10 -20 -20 -16 -20 -20 -20 -20 -20 -20 -20 -20 -20 -20 -20 -20 -20 -20 -20 -20
-20 -20 -20 -20 -20 -6 -18 -20 -20 -20 -20 -19 -1 8 -11 7 -17 11 28 -20 -20 -20 -20 -20 -20 -15 -20 -18 -20 -17 -20 -20 -20 -20 -20 -20 -20 -20 -20 -20 -20 -20 -20 -20 -20
-20 -20 -20 -20 -20 -20 -20 -20 -20 -20 -20 -20 -20 -20 -5 -10 24 -1 4 -19 -19 -20 -20 -20 -15 -20 -20 -19 -3 -20 -20 -20 -20 -20 -20 -20 -20 -20 -20 -20 -20 -20 -9 -20 -20
-20 -20 -20 -20 -15 -10 -20 -20 -20 -20 -20 -20 -20 -20 -20 -20 -20 -20 -14 -13 -20 -20 -20 -8 -20 18 12 17 -20 -1 17 -19 -19 -20 -20 -20 -20 -20 -20 -20 -20 -20 -4 -20 -20
-20 -20 -20 -20 3 -20 -20 -20 -20 -20 -20 -20 -20 -20 -20 -20 -20 -20 -20 -20 -20 -20 -20 -20 -20 -2 -8 -6 -19 -6 -20 -20 -2 -1 -20 -20 -20 -20 -20 -20 -20 -20 -20 -13 -3
-20 -20 -20 -20 10 -20 -20 -20 -20 -20 -20 -20 -20 -20 -20 -20 -20 -20 -20 -20 -20 -20 -20 -20 -20 -20 -20 -20 -20 13 22 -20 -20 -20 -20 -20 -20 -20 -20 -20 -20 -20 -20 -19 -20
-20 -20 -20 -20 -20 -20 -20 -20 -20 -20 -20 -20 -20 -20 -20 -20 -20 -20 -20 -20 -20 -20 -20 -20 -20 -20 -20 -20 -20 -20 -10 -20 -20 -16 -20 -20 -20 -20 -20 -20 -13 -15 -20 -20 -20
-20 -20 -20 -20 -8 6 -20 -14 -20 -20 -20 -20 -20 -20 -20 -20 -20 -20 -20 -20 -20 -20 -20 -20 -20 -20 -20 -20 -20 -20 -20 -20 -20 8 -11 8 -20 -20 -20 -20 -20 -20 -20 -20 -20
-20 -20 -20 -20 -20 -1 -0 -20 -13 4 -20 -20 -20 -20 -20 -20 -20 -20 -20 -20 -20 -20 -20 -20 -20 -20 -20 -20 -20 -20 -20 -20 -20 -20 -20 -20 -20 -20 6 6 5 -17 -20 -20 -20
-20 -20 -20 -20 -20 -19 -19 -18 -20 -20 -18 -20 -20 -20 -20 -20 -20 -20 -20 -20 -20 -20 -20 -20 -20 -20 -20 -20 -20 -20 -20 -20 -20 -20 -20 -20 -20 -20 -20 -20 5 -13 -20 -20 -20

GFSSW_prec_radar_051.txt.gz
Reflectivity
-9 8 -7 14 13 16 11 20 -19 27 28 25 23 -15 -12 -15 -20 7 5 -18 -20 1 23 -20 -20 -20 -19 -20 -8 17 9 -20 -2 19 17 -19 -20 -20 -20 -20 -20 -20 -20 -20 -20
4 4 18 3 9 -20 -7 -20 -1 27 26 -1 -18 -20 -20 -20 -20 1 -20 -6 6 1 -20 -20 -20 -20 13 5 -1 6 26 -11 -20 -16 18 -11 -20 -20 -20 -20 -20 7 -20 -20 -20
4 4 13 6 -1 6 -20 -20 -20 5 -20 -20 -20 -20 -20 -13 -9 -20 -20 6 13 -9 10 -20 -20 -20 3 -6 16 19 19 -16 -16 15 23 30 13 -20 -20 -20 -20 -20 28 -20 -20
-15 -20 -19 3 2 -20 -20 -20 -20 -20 -20 -20 -20 -20 -20 -20 -20 -20 -20 -15 6 12 22 -10 -20 -20 0 6 -20 -20 -20 -20 0 22 1 13 27 3 -20 -20 -20 -20 19 30 17
-19 9 3 -20 -4 -20 -20 -20 -20 -20 -20 -20 -20 -20 -11 7 -20 15 2 6 8 17 -10 -15 -20 -20 -20 -20 9 -20 -20 -6 15 18 -3 13 32 29 -20 -20 -20 -20 -20 22 -13
14 2 11 -8 -20 -20 -20 -20 -20 -20 -20 -20 -10 -20 -12 -6 -20 -20 -15 -20 -20 -0 11 8 -20 -20 -17 8 -16 -17 -9 20 -17 22 -19 7 14 33 12 -20 -20 -20 -20 -20 -3
15 12 7 1 -20 -20 -20 -20 -20 -20 -20 -20 -19 -5 1 7 -20 -20 2 7 -20 2 -4 15 -20 11 -18 -20 4 9 20 17 19 9 12 13 29 31 24 -8 -20 -20 -17 27 -20
16 14 6 2 -20 -20 -20 -20 -20 -20 -20 -20 -20 -20 2 22 16 0 -5 -13 -20 2 30 30 19 10 -20 -20 -3 -15 19 5 17 9 3 24 22 3 31 21 -20 -20 -20 -2 -18
6 15 13 8 -20 -20 -20 -20 -20 -20 -20 -20 -20 -20 -19 14 35 12 -4 6 10 13 21 30 23 -2 -20 -20 -20 -20 -20 -20 -20 -20 7 4 -16 16 22 16 -20 -20 -20 -20 -20
7 -7 13 0 -1 -20 -20 -20 -20 -20 -20 -20 -20 -20 -20 18 12 13 -4 -20 15 25 26 27 24 7 -20 -7 -18 -20 -20 -20 -20 -20 -7 -8 -12 8 12 17 19 -5 -14 -20 -20
18 8 -13 -20 5 -20 -20 -20 -20 -20 -20 -20 -20 -20 -20 -20 -20 -20 -20 -20 -2 -5 25 34 32 -17 -20 -20 -20 -20 -20 -20 -20 -20 -1 -4 10 7 11 10 -5 1 -17 -20 -20
16 14 -7 -10 -7 -20 -20 -20 -20 -20 -20 -20 -20 -20 -20 -20 -20 6 -9 32 15 10 42 24 19 -20 -20 -20 -20 -20 -20 -20 -20 -20 -15 -14 -3 -9 4 9 -20 3 -20 -20 -20
15 16 1 8 -14 -20 -20 -20 -20 -18 -20 -20 -20 -20 -20 -20 9 13 8 19 36 32 31 18 -7 -9 9 -11 -10 -20 -20 -20 -20 -20 -20 -14 -1 -0 -6 -6 2 -20 -20 -20 -20
16 16 1 13 -20 -20 -20 -20 -20 -20 -20 -15 -20 -7 -16 9 -4 -20 16 27 44 30 35 11 -9 -15 17 -20 -20 -20 -20 -20 -20 -20 -20 -20 -20 -4 -20 2 -9 -20 -20 -20 -20
16 2 1 16 -20 -20 -20 -20 -20 -20 -20 -14 11 -19 -18 12 -20 6 -0 17 18 21 35 30 -12 -20 -18 -20 -20 -20 -20 -20 -20 -20 -20 -20 -20 -20 -20 -20 -20 -20 -20 -20 -20
-18 2 14 1 -15 -20 -20 -12 -20 -20 -20 17 18 -5 30 13 7 6 25 23 10 15 14 19 18 -20 -20 -20 -20 -20 -20 -20 -20 -20 -20 -20 -20 -20 -19 -20 -20 -20 -20 -20 -20
-20 -20 -5 -20 -20 -20 -20 -20 -20 -20 -20 -11 4 -5 -4 7 -5 34 18 29 35 27 27 19 -8 -20 -20 -20 -20 -20 -20 -7 -16 -19 -20 -20 -20 -20 -19 -20 -20 -20 -20 -20 -20
-20 -20 -9 -20 -20 -20 -20 -20 -20 -20 4 3 -6 18 -12 -17 -13 20 33 30 20 3 -12 -19 5 -20 -20 -20 -20 -20 -20 -20 -20 -20 -20 -20 -20 -20 -20 -20 -20 -20 -20 -20 -20
-20 -20 -20 -20 -20 -0 -19 -20 -20 -20 -20 -20 -13 -4 13 9 -20 -16 5 -6 9 -18 -20 -20 -20 -20 -20 -20 -20 -20 -20 -20 -20 -20 -20 -20 -20 -20 -20 -20 -20 -20 -20 -20 -20
-20 -20 -20 -20 -20 -10 -17 -20 -20 -20 -20 -20 -20 -20 -0 9 3 -16 -7 -19 -20 -20 -20 -20 -20 -13 -20 -20 -20 -20 -20 -20 -20 -20 -20 -20 -20 -20 -20 -20 -20 -20 -20 -20 -20
-20 -20 -20 -20 -20 -5 -20 -20 -20 -20 -20 -20 -20 -20 -20 -20 2 -15 -13 -20 -20 -20 -20 -20 -20 1 9 -15 -12 -20 -16 -20 -20 -20 -20 -20 -20 -20 -20 -20 -20 -20 -20 -20 -20
-20 -20 -20 -20 1 10 -20 -20 -20 -20 -20 -20 -20 -14 -20 -20 -20 -20 -20 -20 -20 -20 -20 -20 -20 5 -19 -20 -20 -16 -20 -20 -6 -20 -20 -20 -20 -20 -20 -20 -20 -20 -20 -20 -20
-20 -20 -20 -20 -20 -20 -20 -20 -20 -20 -20 -20 -20 -20 -20 -20 -20 -20 -20 -20 -20 -20 -20 -20 -20 -20 -20 -16 -16 9 -11 -20 -20 -20 -20 -20 -20 -17 -20 -20 -20 -20 -20 -20 -20
-20 -20 -20 -20 -20 -20 -20 -20 -20 -20 -20 -20 -20 -20 -20 -20 -20 -20 -20 -20 -20 -5 10 15 -17 -20 -18 -20 -20 -16 -18 2 -2 -1 -20 -20 -20 -20 -20 -20 -20 -20 -20 -20 -20
-20 -20 -20 -20 -20 -20 -20 -20 -20 -20 -20 -20 -20 -20 -20 -20 -20 -20 -20 -20 -20 -20 -12 -19 -20 -20 -20 -20 -20 -20 -20 -15 0 5 -20 10 -15 -20 -20 -20 -20 -20 -20 -20 -20
-20 -20 -20 -20 -20 -20 -20 -6 -20 -20 -20 -20 -20 -20 -20 -20 -20 -20 -20 -20 -20 -20 -20 -20 -20 -20 -20 -20 -20 -20 -20 -20 -20 -20 -20 -20 -20 7 -20 -20 -20 -20 -20 -20 -20
-20 -20 -20 -20 -20 -20 -20 -20 -20 -20 -20 -20 -20 -20 -20 -20 -20 -20 -20 -20 -20 -20 -20 -20 -20 -20 -20 -20 -20 -20 -20 -20 -20 -20 -20 -20 -0 -20 -20 -20 -20 -13 -15 -19 -20

GFSSW_prec_radar_054.txt.gz
Reflectivity
15 1 10 12 4 2 -15 -20 -20 -20 -20 -20 6 5 14 4 -20 -13 10 4 1 -19 -3 -4 -20 -20 -20 -4 18 15 17 16 -20 -9 22 -4 -20 -20 -20 -20 -20 -20 -20 -20 -20
-1 -20 -20 -14 13 2 -20 -20 -20 -20 6 22 24 -10 -1 -20 -20 -20 -20 -9 10 5 0 17 -20 -20 -12 -20 24 18 23 6 -20 -15 12 9 -7 -20 -20 -20 -20 -20 -15 -1 27
-11 6 11 -20 15 3 -17 -20 -20 -20 -20 -20 -20 -20 -20 -20 -17 -20 -20 2 31 6 -19 18 -4 -20 -20 -7 -2 21 0 -20 -20 -12 20 27 2 -11 -20 -20 -20 -20 -20 -5 20
15 -18 11 -3 -20 7 -20 -20 -20 -20 -20 -20 -20 -20 -20 4 -20 -7 -15 -12 33 8 -7 18 7 -20 -20 -16 -20 -20 -20 -20 -16 6 19 17 -19 -20 -20 -20 -20 -20 -20 -20 16
17 13 17 10 -19 2 -15 -20 -20 -20 -20 -20 -20 -20 -11 2 -20 -4 -20 -20 23 18 10 19 15 -20 -20 -20 -20 -18 -20 -20 -5 4 12 18 14 -3 -20 -20 -20 -20 -20 -20 -20
-9 3 11 -0 5 -11 -20 -20 -20 -15 -20 -20 -20 -20 -20 -19 -20 -20 -2 -20 -5 14 6 27 -5 -20 -20 -20 -12 9 2 -5 -20 7 29 22 19 -7 -10 -20 -20 -20 -20 -20 -20
1 11 10 3 2 0 -20 -20 -20 -20 -20 -18 -20 -19 -7 -20 -20 -20 4 0 -20 5 -1 20 10 -20 -20 -20 -20 -20 6 19 2 7 22 24 24 -1 5 1 -20 -20 -20 -20 -20
12 -18 8 7 -8 3 -20 -20 -20 -20 -20 -20 -18 -20 -20 1 -1 -20 -19 4 -15 -6 7 18 -5 2 -12 -20 -20 7 8 16 3 14 9 -0 3 -17 12 28 -20 -20 -20 -20 -20
8 11 -1 10 -12 5 -20 -20 -17 -20 -20 -20 -20 -5 -20 5 12 -19 -20 6 21 -14 11 28 19 -3 -20 7 -9 -17 -20 -20 -20 -20 -7 -9 -20 7 22 26 -0 -20 -20 -20 -17
-18 12 14 -19 6 9 -16 -20 -20 -20 -20 -20 -20 -20 8 1 12 0 -20 -18 28 16 17 28 36 -12 -20 -4 -20 -19 -20 -20 -20 -20 -20 -20 -20 10 11 -1 26 4 -15 -20 -20
6 11 8 13 15 -7 -20 -20 -20 -20 -20 -20 -20 -20 -20 -20 -14 10 8 34 24 4 29 34 21 -8 -20 -20 -20 -20 -20 -20 -20 -20 -20 -20 7 1 13 -20 22 22 2 -20 -20
2 10 12 13 16 12 -20 -20 -20 -20 -20 -20 -20 -20 -20 -20 -9 -13 4 21 18 9 38 42 10 -20 -20 -20 -20 -20 -20 -20 -20 -20 -20 -20 -20 -20 3 -20 18 16 -9 -18 -16
15 -5 12 13 12 -20 -20 -20 -20 -20 -20 -20 -20 -20 -20 -17 13 -14 -20 -5 -20 6 36 10 -20 -20 -20 1 -11 -20 -20 -20 -20 -20 -20 -20 -11 -5 -20 -20 1 21 -13 -6 -20
16 8 13 13 -20 -20 -20 -20 -20 -20 -20 3 28 2 14 -13 -20 -4 -9 -20 -20 -19 4 -10 8 -20 -18 13 -20 -20 -20 -20 -20 -20 -20 -20 -20 -20 -19 -20 0 7 8 -20 -20
16 9 -5 12 -20 -20 -20 -20 -20 -20 -20 -5 19 -20 -17 20 -20 -12 -19 -20 -20 -13 34 34 -12 8 -18 -2 -20 -20 -20 -20 -20 -20 -20 -20 -20 -20 -20 -20 -20 -9 11 -1 -20
14 10 11 -20 -13 -20 -3 2 -20 -20 -20 19 8 11 27 29 25 11 10 5 5 12 37 6 -1 15 1 -20 -19 -20 -20 -20 -20 -20 -20 -20 -20 -20 -20 -20 -20 -5 12 5 -16
10 -20 4 -20 -20 -20 -9 -20 -20 -20 -20 -18 2 -4 -15 14 16 13 27 22 38 31 29 29 14 -8 16 -0 -20 -20 -20 -20 -20 -20 -20 -20 -20 -20 -20 -19 -20 -18 10 6 -15
-20 -17 -20 -20 -20 -20 -18 -20 -20 -20 -16 -5 11 -14 11 -6 21 21 32 28 4 13 28 17 16 -20 -20 -20 -18 -20 -10 -20 -20 -20 -20 -20 -20 -20 -20 -20 -19 -20 -18 -7 -11
-20 -20 -20 -20 -11 -6 -3 -20 -20 -20 -20 -17 -17 -7 -15 -17 -20 6 14 -4 -7 15 -8 -18 16 -13 -18 -20 -20 -20 -20 -20 -20 -20 -20 -20 -20 -20 -20 -20 -20 -20 -20 -20 -20
-20 -20 -20 -20 -16 6 -16 -20 -20 -20 -20 -20 -15 -4 22 -20 -20 -12 2 7 -19 -20 -20 -20 -16 8 -12 -20 -20 -20 -20 -20 -20 -20 -20 -20 -20 -20 -20 -20 -20 -20 -20 -20 -20
-20 -20 -20 -20 -20 -2 -2 -20 -20 -20 -20 -20 -20 -13 17 31 -3 -20 -20 -20 -20 -20 -20 -20 -20 -8 -18 -20 -1 -20 -20 -20 -20 -20 -20 -20 -20 -20 -20 -20 -20 -20 -20 -20 -20
-20 -20 13 -20 7 -8 -20 -20 -20 -20 -20 -20 -20 -20 -20 -9 10 20 -20 -20 -20 -20 -20 -20 -20 -20 -4 -20 -20 -17 -20 -20 -20 -20 -20 -20 -20 -20 -20 -20 -20 -20 -20 -20 -20
-20 -20 -17 -20 -20 -20 -20 -20 -20 -20 -20 -20 -20 -20 -20 -20 -20 -6 -17 -20 -20 -20 -20 -20 -20 -14 -19 -13 -19 -5 -20 -20 -20 -20 -20 -20 -20 -20 -3 -20 -20 -20 -20 -20 -20
-20 -20 -20 -20 -20 -20 -20 -20 -20 -20 -20 -20 -20 -20 -20 -20 -20 -20 -20 16 -20 -20 -20 -20 -20 -20 -20 -20 -20 -20 -20 -20 -20 -2 -20 -20 -20 -20 -20 -20 -20 -20 -20 -20 -20
-20 -20 -20 -20 -20 -20 -20 -20 -20 -20 -20 -20 -20 -20 -20 -20 -20 -20 -20 -19 -19 -4 -14 -20 -20 -20 -20 -20 -20 -20 -20 -18 -16 -20 -20 -20 -20 16 -18 -20 -20 -20 -20 -20 -20
-20 -20 -20 -20 -20 -20 -3 -20 -20 -20 -20 -20 -20 -20 -20 -20 -20 -20 -20 -20 -20 -20 -20 9 -20 -20 -20 -20 -20 -20 -20 -20 -20 -20 -20 -18 -8 6 -20 -20 -20 -20 -20 -20 -20
-20 -20 -20 -20 -20 -20 -20 -20 -20 -20 -20 -20 -20 -20 -20 -20 -20 -20 -20 -20 -20 -20 -20 -20 -20 -20 -20 -20 -20 -20 -20 -20 -20 -20 -20 -20 -20 -16 -19 -20 -20 -20 -20 -20 -20

GFSSW_prec_radar_057.txt.gz
Reflectivity
-20 -1 12 -20 -13 15 6 5 -7 -20 -20 -20 -20 -11 23 14 19 22 -20 13 -5 9 -2 -20 -3 -20 10 22 10 4 19 -11 -20 -20 1 4 -13 -16 -20 -20 -20 -20 -17 -20 -15
13 -10 -14 4 -20 14 10 -6 -20 -20 -20 -20 -20 -15 -17 -5 3 -20 -20 10 21 16 3 -2 -0 -20 4 11 22 -16 32 -5 -20 -20 0 12 6 6 -20 -20 -20 -20 -20 -14 17
12 15 -8 17 0 -7 8 1 -20 -20 -20 -20 -20 -20 -20 -20 -20 -20 16 -16 24 30 4 21 1 -20 12 17 17 15 -20 -20 -13 7 9 15 7 -10 -14 -20 -20 -20 -20 -20 -7
-3 15 11 14 16 -19 11 2 -18 -20 -20 -20 -20 -20 -20 -20 -20 -20 20 -17 10 36 24 0 -2 5 8 -10 -1 -1 26 -18 14 17 23 -13 -4 -7 -19 -20 -20 -20 -20 -20 -20
-20 -2 -12 13 -19 10 1 6 8 5 -20 -20 -20 -20 -20 -20 -20 -20 -20 -20 13 36 28 22 4 -17 -7 -20 -11 -20 17 3 31 22 8 8 20 5 -11 -20 -20 -20 -20 -20 -20
13 -20 -17 4 10 -8 5 3 7 -17 -20 3 -20 -20 -20 -20 -20 -20 -20 -20 -18 31 20 10 5 -11 -20 10 -20 -20 15 20 22 8 -17 -20 -10 -8 -20 -20 -20 -20 -20 -20 -20
12 -8 2 -20 -14 5 1 4 6 -20 -20 -20 -20 -20 -20 -20 -20 -20 -20 -20 -20 19 19 5 13 21 -18 -9 -20 -20 -18 -8 22 11 -14 -20 -20 -20 -20 -20 -20 -20 -20 -19 -20
14 13 9 12 -5 -5 14 5 9 -20 -20 -20 -20 -20 -20 -20 -16 -20 -20 -20 -16 27 5 8 1 -6 -19 -15 -4 12 4 -20 -20 -13 -20 -10 -20 -20 10 5 -20 -20 -20 -20 -13
15 13 11 5 12 -6 7 1 -1 -20 -20 -20 -20 -20 -20 -20 11 -20 -19 -17 -11 4 14 13 26 2 -7 7 -20 -10 -20 -20 -20 -10 -20 -20 3 -10 19 20 4 -20 -20 -20 -17
0 13 11 8 12 5 -16 -20 -20 -20 -20 -20 -20 -20 -20 -20 15 -18 -20 -12 21 20 24 27 40 21 10 -13 -20 -20 -20 -20 -20 -20 3 -2 7 10 3 10 -20 22 -20 -20 -5
14 13 12 12 5 10 -20 -20 -20 -20 -20 -20 -20 -20 -20 -8 1 -13 7 18 22 24 2 23 39 19 2 -20 -20 -20 -20 -20 -20 -20 -7 -3 -2 5 -20 -20 -20 8 -20 -20 -20
14 17 12 12 16 11 -20 -20 -20 -20 -20 -20 -20 -20 -20 -20 -10 5 -20 -18 18 18 4 26 30 26 -13 -20 -20 -20 -20 -18 -20 -0 12 -20 -14 -15 -20 -20 -11 2 -19 -20 -20
18 16 9 14 10 -19 -20 -20 -20 -20 -20 -4 -6 -20 -20 1 -1 -1 22 35 19 1 3 31 25 6 -18 -1 -20 -20 -20 -20 -20 -20 -20 -20 -20 -20 -20 -20 -20 -20 -20 -20 -20
15 13 5 11 -20 -20 -20 -20 -20 -20 -20 -16 7 16 17 -12 -6 8 21 31 0 -15 36 32 16 -9 -20 -16 -20 -20 -20 -20 -20 -20 -20 -20 -20 -20 -20 -20 -20 -20 -20 -20 -1
15 13 15 8 -20 -20 -20 -20 -20 -20 -20 -10 12 9 -0 18 -19 -9 -20 -19 -20 5 26 27 -16 -20 -18 -4 -20 -19 -20 -20 -20 -20 -20 -20 -20 -20 -20 -20 -20 -20 -20 8 -10
15 8 11 -20 -10 -20 -17 -18 -20 -20 -20 -3 11 12 21 12 -6 -2 9 -20 -20 -13 3 0 -20 15 -20 -11 -20 -20 -20 -20 -20 -20 -20 -20 -20 -20 -20 -20 -20 -1 -20 -1 2
4 -10 -16 -20 -20 -19 -20 -17 -20 -20 -20 -19 -4 23 21 20 17 15 -0 -20 -20 -17 5 25 15 -7 -1 6 -20 -20 3 -14 1 -19 -20 -20 -20 -20 -20 -20 -20 -12 6 -19 -20
-20 5 -20 -20 -20 -12 -13 -20 -20 -17 -0 6 5 -12 15 18 17 9 -2 -19 -20 -20 23 28 23 -8 -20 -20 -20 -19 -17 -20 -20 -20 -20 -20 -20 -20 -20 -20 -20 -20 -19 -19 -20
-20 -20 -20 -20 -15 -19 -18 -20 -19 -20 -11 -19 -20 -20 7 -11 18 18 18 -8 -20 -2 28 5 19 23 -20 -20 -20 -20 -20 -20 -20 -20 -20 -20 -20 -20 -20 -20 -20 -20 -20 -20 -20
-20 -20 -20 -10 -18 -15 -16 -20 -14 -20 -15 -20 -11 7 -1 -20 -4 26 26 -7 15 36 21 -19 1 -9 -6 -16 -20 -20 -20 -20 -20 -20 -20 -20 -20 -20 -20 -20 -20 -20 -20 -20 -20
-20 -20 -20 6 -20 -14 -15 -20 5 -20 -20 -20 -20 -1 17 12 -20 -12 10 0 20 29 5 -20 -20 11 -18 -11 -17 -20 -20 -20 -20 -20 -20 -20 -20 -20 -20 -20 -20 -20 -20 -20 -20
-20 -20 -18 -20 -19 -15 2 -20 4 -15 -20 -20 -4 1 5 -13 -9 -13 -20 -20 -14 -20 -20 -20 -20 -20 -19 -20 -20 -20 -20 -20 -20 -20 -20 -20 -20 -20 -20 -20 -20 -20 -20 -20 -20
-20 -20 -2 -20 -20 -20 -2 -20 -20 -20 -20 -20 -20 -15 -19 -20 -20 -20 -20 -20 -20 -20 -20 -20 -20 -20 -20 -20 -20 -20 -20 -20 -20 -20 -20 -20 -20 -20 -20 -20 -20 -20 -20 -20 -20
-20 -20 -20 -2 -8 -20 -20 -20 -20 -20 -20 -20 -20 -20 -20 -20 -20 -20 -20 -12 -20 -20 -20 -20 -20 -20 -20 -20 -20 -20 -20 -20 -20 -11 -20 -20 -20 -19 -20 -20 -20 -20 -20 -20 -20
-20 -20 -20 -20 -20 -20 -20 -19 -20 -20 -20 -20 -20 -20 -20 -20 -20 -20 -20 -20 -20 -20 -20 -20 -20 -20 -20 -20 -20 -20 -20 -20 -20 -20 -20 5 -18 6 -16 -20 -20 -20 -20 -20 -20
-20 -20 -20 -20 -20 -20 -10 -20 -20 -20 -20 -20 -20 -20 -20 -20 -20 -20 -20 -20 -20 -20 -20 -20 -20 -20 -20 -20 -20 -20 -20 -20 -20 -20 -20 -20 -20 9 -13 -20 -20 -20 -20 -20 -20
-20 -20 -20 -20 -20 -20 -20 -17 -4 -20 -20 -20 -20 -20 -20 -20 -20 -20 -20 -20 -20 -20 -20 -20 -20 -20 -20 -20 -20 -20 -20 -20 -20 -20 -20 -20 -20 -20 -20 -20 -20 -20 -20 -20 -20

GFSSW_prec_radar_060.txt.gz
Reflectivity
12 13 -20 8 4 -13 -20 -20 -20 -5 -19 -20 -20 -20 -20 -20 -20 8 6 -20 9 10 23 -20 -20 -20 1 6 -11 -20 21 12 13 -20 -12 -8 -15 12 -17 -20 -20 -20 -20 -20 -8
-10 14 3 8 9 -20 1 -16 -20 -20 -20 -20 -20 -20 -20 -17 14 13 -19 -20 -20 25 23 -3 -4 0 7 8 21 22 -18 -20 -20 2 -20 -5 -5 -1 2 -20 -20 -20 -20 -20 -19
-20 -18 9 -18 10 -1 -10 -19 -7 -20 -20 -20 -20 -20 -20 -20 -13 -16 17 -20 -20 29 24 23 21 23 1 12 32 18 -20 -20 -20 21 -6 9 10 -20 -10 -7 -20 -20 -20 -20 15
-14 -19 -20 11 7 -11 -20 -7 4 -2 -20 -20 -20 -20 -20 -20 -20 -20 -20 -8 -7 22 34 12 24 25 -18 5 24 20 16 -20 -20 -5 4 -12 -7 -20 -20 -11 -12 -20 -20 -20 -20
-7 1 -2 -9 13 -19 -19 -20 -8 -20 -20 -20 -20 -20 -20 -20 -20 -20 -20 -20 -6 9 23 19 23 17 -20 -17 24 24 15 -12 -20 11 -20 24 10 3 -19 -20 -17 -20 -20 -20 -20
7 3 7 9 -13 12 -20 -11 -20 -20 -20 -20 -20 -20 -20 -20 -20 -20 -20 -20 7 36 14 22 23 16 -20 -20 22 -17 22 -20 -20 8 -20 8 -19 15 -15 -12 -20 -20 -20 -20 -20
-17 10 0 8 8 -20 4 0 -20 -11 -20 -19 -4 -20 -20 -20 -20 -20 -20 -20 -13 15 14 38 25 2 -20 2 -20 -20 24 24 -6 -20 4 -15 16 7 -16 -16 -20 -20 -20 -20 -20
12 8 7 14 -1 1 -20 4 -20 -20 -20 -20 3 -2 -20 -20 -20 -20 -20 -20 -15 15 7 38 25 12 -19 -20 -7 -20 22 22 14 28 7 33 1 -20 15 4 -20 -20 -20 -20 -20
15 11 10 12 -5 7 -20 -13 -12 -20 -17 8 0 -20 -20 -20 -20 -20 -20 -20 -11 -10 30 32 28 27 -8 -16 7 10 -20 -20 22 -4 15 14 -12 -20 -10 -17 -20 -20 -20 -20 -20
3 10 9 14 9 3 -20 -15 -20 -20 -20 -20 -20 -5 -20 6 -15 -15 3 -20 23 14 14 34 39 19 6 1 -14 -14 -18 -8 -2 -15 4 -0 6 -20 -5 -20 -20 -20 -20 -20 -20
12 3 14 9 6 7 -16 -20 -20 -20 -20 -20 -20 -20 -20 -17 -20 -9 -20 -12 10 19 17 28 42 11 -20 -19 -20 -20 -16 7 -11 14 -2 -9 1 -3 -20 -20 -20 -20 -20 -20 -20
12 13 13 8 0 8 -20 -20 -20 -20 -20 -20 -18 -20 -20 -9 19 -20 17 22 30 38 3 17 6 -15 14 -20 -20 -20 -20 -20 -20 -20 14 -2 -16 -16 -20 -20 -20 -20 -6 -20 -20
11 12 10 10 2 1 -20 -20 -20 -20 -20 -20 -20 -20 -20 -2 19 15 20 -16 23 16 -20 -3 11 34 21 -20 -5 -6 -20 -20 -20 5 -2 -6 -13 -20 -20 -20 -20 -20 -20 -20 -20
10 6 14 11 -18 -20 -20 -20 -20 -20 -20 -17 -2 -6 9 21 11 23 5 -16 19 11 2 14 15 28 20 4 -18 1 -20 -19 -20 -20 -20 -20 -20 -20 -20 -20 -20 -7 -20 -20 -20
4 13 13 11 -20 -20 -20 -20 -20 -20 7 -20 19 -2 5 16 -9 19 26 -8 -13 -8 10 5 20 34 18 -10 -20 -20 -20 -20 -20 -20 -20 -20 -20 -20 -20 -20 -20 -20 -20 -19 -20
5 9 9 -13 -13 -20 -20 -20 -20 -20 -12 7 -2 0 -18 -20 18 1 32 -1 -7 16 36 23 30 20 -20 -5 -20 -20 -20 -20 -20 -20 -20 -20 -20 -20 -20 -20 -20 -20 3 -20 -4
3 11 -20 -20 -20 -20 -20 -20 -20 -14 -20 -19 18 29 27 -10 -20 23 -4 -20 -3 -3 22 21 15 -14 -20 -5 -20 -20 -20 4 1 -10 -20 -20 -20 -20 -20 -20 -20 -20 -20 -10 -20
-0 -19 -20 -20 -20 -20 -20 -20 -20 -20 3 2 -13 27 2 9 11 -16 -20 5 -1 -18 -6 19 9 4 -20 8 -18 6 -20 -20 -20 -20 -20 -20 -20 -20 -20 -20 -20 -20 -20 -20 -20
-6 -20 -20 -20 -20 -20 5 -20 -20 -20 8 -20 -9 -20 28 21 -2 21 14 7 -15 2 -20 25 18 -6 -20 -20 -20 -20 -3 -20 -20 -20 -20 -20 -20 -20 -20 -20 -20 -20 -20 -20 -20
-20 -20 -20 -20 -20 -20 -16 -20 -20 -20 -20 -13 -16 13 -19 29 23 3 9 -8 -6 -20 -20 -20 5 -2 -20 -15 -20 -9 -20 -20 -20 -20 -20 -20 -20 -20 -20 -20 -20 -20 -20 -20 -20
-20 -20 -20 -20 -20 -2 -15 -12 -20 -20 -20 -20 -9 12 -6 6 9 -3 5 -20 -4 -20 -20 9 -7 12 3 15 -20 -20 -20 -20 -15 -20 -20 -20 -20 -20 -20 -20 -20 -20 -20 -20 -20
-20 -6 -20 -20 4 2 -18 -20 -20 -20 -20 -20 -19 -20 -20 -17 -9 -20 -14 3 9 15 18 7 -10 8 27 -20 -19 -20 -20 -6 -6 -18 -20 -20 -20 -20 -20 -20 -20 -20 -20 -20 -20
-20 -20 -20 -20 5 -9 -20 -18 -20 -20 -20 -20 -20 -20 -20 -20 -20 -20 -20 4 13 2 8 -20 -20 -6 -3 -20 -20 -20 -20 -20 -20 -20 -16 -11 -20 -20 -20 -20 -20 -20 -20 -20 -20
-20 -20 -18 3 -12 -20 -12 -20 -19 -20 -20 -20 -20 -20 -20 -20 -20 -20 -20 -15 6 -20 -20 -20 -20 -20 -20 -20 -20 -20 -20 -20 -20 4 -20 -20 -20 -20 -20 -20 -20 -20 -20 -20 -20
-20 -20 -20 -14 -20 -20 -20 -20 -20 -20 -20 -20 -20 -20 -20 -20 -20 -20 -20 -20 -20 -20 -20 -20 -20 -20 -20 -20 -20 -20 -20 -20 -20 -20 -0 -20 -20 -20 -20 -20 -20 -20 -20 -20 -20
-20 -20 -20 -20 -20 -20 -20 -20 -20 -20 -20 -20 -20 -20 -20 -20 -20 -20 -20 -20 -20 -20 -20 -20 -20 -20 -20 -20 -20 -20 -20 -20 -20 -20 -20 -20 -20 -7 -20 -20 -20 -20 -20 -20 -20
-20 -20 -20 -20 -20 -20 -20 -20 -20 -20 -20 -20 -20 -20 -20 -20 -20 -20 -20 -20 -20 -20 -20 -20 -20 -20 -20 -20 -20 -20 -20 -20 -20 -20 -20 -20 -20 -20 -20 -20 -20 -20 -20 -20 -20

GFSSW_prec_radar_063.txt.gz
Reflectivity
-20 3 17 -19 -20 -20 -15 -20 -20 -20 -20 -20 -20 -20 -20 -20 -20 -20 -20 11 26 -20 23 -6 3 20 -6 10 27 -20 17 -18 -11 6 19 -20 -7 -20 9 -20 -20 -20 -20 -20 -15
6 -20 0 15 0 -16 -20 -6 -9 -20 -20 -20 -20 -20 -20 -20 -20 -18 -20 -18 19 -20 7 22 5 19 7 7 26 27 23 29 -20 -20 11 -18 -13 -20 -19 1 -20 -20 -20 -20 -11
-18 14 -6 -20 13 -20 -20 -20 8 -20 -20 -20 -20 -20 -20 -20 -3 -20 2 -10 -4 9 11 6 12 24 9 10 17 26 -6 -19 -20 14 13 -20 -15 -20 -20 -1 -2 -20 -20 -20 1
11 12 -9 -20 -20 18 -4 -20 0 -18 -15 -20 -20 -20 -20 -20 1 19 -15 -7 11 23 21 16 20 24 20 10 22 -10 -20 -20 13 24 -20 -20 -20 -20 -12 -18 -11 -19 -20 -20 -20
8 17 -20 -20 -20 -20 11 -12 10 5 -20 -20 -20 -20 -20 -20 -20 -20 -20 -6 -15 -6 30 26 18 7 13 -20 24 21 -20 -18 20 3 -18 -13 8 -20 -18 -20 -18 -1 -20 -20 -20
12 12 -20 -19 11 0 -20 20 -14 12 -20 -20 -20 -20 -20 -20 -20 -20 -20 -18 -18 -13 4 27 25 18 -16 -20 -12 -18 -20 9 23 -14 -9 2 -1 -11 -20 -20 -19 -20 -1 -20 -20
8 8 -18 -20 14 2 6 -7 22 1 3 -20 -20 -20 -20 -20 -20 -20 -20 -20 -20 19 28 23 20 28 -8 -20 -20 -15 27 28 30 -19 13 -6 -10 25 -20 -16 -20 -20 -20 -9 -20
-20 0 -9 7 -9 9 7 9 1 7 7 -20 -20 -18 -20 -20 -20 -20 -20 -20 -20 5 -4 31 6 34 -19 -20 -20 1 26 35 18 31 19 -20 -20 -20 12 22 -1 -20 -20 -20 -20
4 -3 -6 12 -15 12 -10 -4 1 -4 -1 -6 1 -1 -5 -20 -20 -20 -20 -6 -18 14 9 30 20 30 7 15 16 22 9 35 34 -20 -13 -20 -20 -10 26 16 -20 5 -20 -20 -20
12 -5 7 10 1 10 -5 -20 -20 -20 -17 -20 -20 -17 -0 -20 -20 -20 -20 24 11 20 32 34 29 39 23 15 7 -12 -20 -6 23 5 -10 -2 -20 -19 -16 -10 -20 -4 -3 -20 -20
-20 -20 12 12 10 3 -11 4 -15 -5 -20 -20 -14 -20 -20 -20 -20 -20 -20 -19 25 31 31 30 41 31 -14 -20 -20 -20 -20 -20 -20 26 -20 -20 -1 21 -6 -20 -20 -20 -20 -20 -20
-19 -3 -5 3 9 11 3 -2 -20 -20 -13 -20 -20 -20 -20 26 3 -14 -20 23 26 24 24 17 40 19 9 -9 -20 -20 -7 -20 3 25 -20 10 15 12 4 -20 -20 -20 -20 -20 -20
-17 9 3 -5 4 -6 -9 -20 -20 -20 -13 -20 -20 -20 3 11 23 -18 -10 20 15 36 11 23 30 12 -10 -1 -20 -19 -16 -20 -20 -20 -17 5 -16 -20 -20 -20 -20 -20 -20 -20 -12
3 5 7 8 -20 -18 -6 -20 -20 -20 -11 8 1 8 12 19 24 20 32 19 41 31 22 17 30 4 -18 -20 -20 -20 -14 -20 -20 -19 -16 -20 -20 -20 -20 -20 -20 -20 -20 -20 -20
-20 2 11 -17 3 -12 -20 -20 -20 -19 12 -20 12 -20 -15 7 13 9 -9 22 18 -12 -12 3 1 24 8 -19 -19 -20 -1 -20 -20 8 -20 -20 -20 -20 -20 -20 -20 -6 -20 -20 5
-19 11 7 -20 -20 -20 -20 -20 -19 2 -9 -11 -0 -14 5 -1 -4 -6 -9 -11 1 -11 -20 8 9 20 15 -10 -17 -20 -9 -12 -1 -20 -20 -20 -20 -20 -20 -20 -20 -20 -20 -20 -20
-17 -16 -20 -20 -6 -20 -20 -2 6 -3 -20 -13 11 -17 -10 7 6 12 8 -4 -10 -9 13 13 24 25 15 -12 -20 -20 -20 -20 -14 -8 -15 -20 -20 -20 -20 -20 -20 -20 -20 -20 -20
-20 -20 -20 -20 -20 -20 5 5 -11 -17 6 -18 6 14 19 16 -4 -19 3 -3 16 6 33 29 24 7 -20 -11 -17 -20 -20 -19 -20 -20 -20 -20 -20 -20 -20 -20 -20 -20 -20 -20 -20
-20 -20 -19 -20 -20 -19 7 7 -2 6 9 6 2 29 33 1 -6 -15 -19 10 -4 4 27 9 -8 -17 -18 -20 -20 20 -4 -20 -20 -20 -20 -20 -20 -20 -20 -20 -20 -20 -20 -20 -20
-20 -13 -11 -20 -20 -14 15 -20 8 -20 -20 5 -4 -11 23 16 11 6 8 3 2 -15 -15 2 1 -11 -20 -16 -20 0 -16 -14 -20 -20 -20 -20 -20 -20 -20 -20 -20 -20 -20 -20 -20
-18 1 -14 -20 -15 3 13 -6 -17 -20 -20 -20 -4 -14 7 31 9 12 4 -8 -13 -17 -20 6 15 19 15 17 -10 -20 -15 -7 2 -20 -3 -20 -20 -20 -20 -20 -20 -20 -20 -20 -20
-10 -6 -20 -20 0 -0 8 -20 -20 -20 -20 -20 -20 8 -17 -17 -20 -3 9 2 -20 -20 -20 -20 -11 11 17 -20 -18 6 2 -20 1 -17 -20 -19 -20 -20 -20 -20 -20 -20 -20 -20 -20
-6 -20 -9 3 5 -3 -16 -20 -20 -20 -20 -20 -20 -20 -20 7 -9 -13 3 -19 -20 -20 -20 -20 6 -1 9 -14 -20 -20 -20 -20 -16 -18 2 -1 -15 -20 -20 -20 -20 -20 -20 -20 -20
-20 -20 -8 8 -20 -20 -13 -20 -10 -20 -20 -20 -20 -20 -20 -20 -20 -0 -2 -2 -19 -20 -20 6 -14 -7 11 -16 -20 -20 -20 -11 11 10 -20 -20 -20 -20 -20 -20 -20 -20 -20 -20 -20
-20 -20 -20 -19 -20 -20 -4 -14 5 -14 -20 -20 -20 -20 -20 4 -20 -17 -20 -20 -14 -20 -20 -18 -20 -20 -20 -20 -20 -20 -20 -20 -15 -20 8 -20 -20 -20 -20 -20 -20 -20 -20 -20 -20
-20 -20 -20 -20 -20 -20 -20 6 10 -20 -20 -20 -20 -20 -20 -20 -20 -20 -20 3 -3 -20 -20 -20 -20 -20 -20 -20 -20 -20 -20 -20 -20 -20 1 -20 -20 -20 -20 -20 -20 -20 -20 -20 -20
-20 -20 -20 -20 -20 -15 -20 6 -20 -20 -20 -20 -20 -20 -20 -20 -20 -20 -20 -20 -20 5 7 -2 -20 -20 6 -20 -20 -20 -20 -20 -20 -20 -20 -5 -20 -20 -20 -20 -20 -20 -20 -20 -20

GFSSW_prec_radar_066.txt.gz
Reflectivity
0 9 -20 -20 15 -16 -20 -20 -14 -20 -20 -20 -20 -20 -20 -20 -20 -20 -20 -20 -19 -20 29 -20 1 7 -20 -1 12 -18 27 2 -20 -20 9 -7 -20 -20 2 -4 -20 -5 -20 -5 -1
-20 -20 -15 -10 -20 13 -1 -20 -20 -13 -20 -20 -20 -20 -20 -20 -20 -20 -20 15 -12 -15 -20 20 -6 -4 21 -4 23 26 24 -4 -20 -20 11 -13 -20 -20 -16 -8 -20 -20 -4 8 4
1 9 14 2 -20 -20 13 8 -20 12 -7 -20 -20 -20 -20 -20 -20 -20 -20 -10 -15 30 21 14 -3 20 15 12 23 11 -16 -19 -20 21 17 13 -20 -20 -20 -20 -20 -20 -14 2 -6
1 -6 5 9 -20 -20 -20 23 -20 -20 -14 -20 -20 -20 -20 -20 -16 -20 -20 -2 -2 24 24 16 17 22 2 -8 15 26 -11 -20 22 19 -20 -20 -20 -20 -15 -20 -20 -20 -20 4 -4
-11 -16 10 9 8 -4 -20 -20 18 -7 -5 -20 -20 -20 -20 -17 -12 -20 -20 -20 -20 20 30 17 -1 17 13 -20 5 23 -2 9 11 19 -14 1 -14 -20 -20 -20 -20 -20 -20 -20 -12
11 -4 8 18 2 -7 -8 -20 -11 20 -15 -20 -20 -20 -20 -20 -20 -20 -20 -20 -20 17 12 11 19 -4 -19 -0 -8 -20 25 17 13 17 48 9 -20 -20 -20 -20 -20 -10 -8 -20 -20
7 -19 -16 10 -20 -19 -7 -0 -17 -15 6 7 -20 -20 0 -20 -20 -20 -20 -20 -20 8 32 29 -6 36 22 15 -20 19 29 10 22 21 18 -18 -20 -20 -20 -20 -20 -13 -8 -20 -20
8 7 3 5 -15 8 11 -18 1 -18 18 -5 -20 -20 -17 -20 -20 -20 -20 -20 -20 -20 19 24 9 18 35 2 7 2 29 11 -9 -1 39 2 10 -20 -20 -20 -20 -20 -20 -20 -20
7 -9 1 9 11 15 -6 -20 -20 -17 -17 -17 -4 9 -19 -20 -20 -20 -20 -20 -20 11 15 30 31 19 30 2 5 23 26 12 12 -20 28 28 15 -20 -20 -20 -20 -20 -20 -20 -20
2 4 -20 -13 -15 10 -20 -20 -20 -20 -20 -20 -20 -20 -20 -20 -20 -20 -20 -20 4 19 16 22 24 16 35 9 -3 0 13 10 -20 -8 35 37 27 14 -20 -20 -20 2 6 -20 -20
-4 5 -11 4 15 -5 -20 -20 -20 -20 -20 -20 -20 -20 -20 -20 -20 -20 -17 14 26 16 9 30 22 4 21 -20 -20 -20 -20 -2 26 26 39 36 19 2 -20 -20 -20 -20 -20 -20 -11
-4 1 4 4 3 13 -18 -20 -20 -20 -20 -20 -20 -20 -20 20 3 -9 -20 -12 12 7 24 31 -13 6 20 -11 -18 -20 -20 15 22 21 25 15 -20 -6 -20 -20 -20 -16 -20 -20 -20
-19 -0 -20 -8 2 -20 -20 -20 -20 -20 -0 -20 -20 -20 -2 -18 2 -5 -20 -18 7 26 26 12 20 21 26 25 17 -20 -20 8 25 21 30 22 -20 -20 -20 -20 -20 -20 -20 -20 -20
-19 -7 -1 11 -20 -20 -14 -20 -20 -20 -5 9 1 5 -7 6 18 -20 -20 5 24 18 30 -4 16 27 28 7 -20 -8 -20 -5 -20 15 13 1 -20 -20 -19 -20 -20 -20 -18 -20 -20
-20 -17 9 10 -20 -20 -15 -20 -20 -20 7 7 -20 -20 -20 -7 -16 -15 -19 37 39 25 12 23 36 25 14 -10 -3 -12 17 -2 -20 -13 6 -13 -20 -20 -20 -20 -20 -18 -20 -20 -20
-20 -3 5 -20 -20 -9 -20 -20 -20 -5 -20 -6 -20 -20 -8 13 -4 -13 22 28 14 1 6 25 6 -3 -20 2 -20 -20 -20 -20 -20 -7 -20 -20 -20 -20 -20 -20 -20 -20 -20 -20 -20
-20 -20 -20 -20 3 -20 -20 -20 -0 -13 -20 -3 -13 -20 -7 16 11 2 7 5 -4 16 -3 5 24 -20 -20 -20 -20 -20 -20 -20 -20 -20 -20 -20 -20 -20 -20 -20 -20 -20 -20 -20 -20
-20 -20 -20 -20 -20 -20 -7 -10 -8 -3 -20 1 -3 3 13 -16 -20 -9 4 -18 -20 -20 -15 -2 -4 -16 11 -18 -20 6 -20 -20 -20 -20 -20 -20 -20 -20 -20 -20 -20 -20 -20 -20 -20
-20 -20 -20 -20 -20 -7 4 -5 -0 -1 -11 -7 30 23 -20 -20 -10 -20 -3 -18 1 11 27 1 26 31 6 -11 -20 -20 -16 -20 -20 -20 -20 -20 -20 -20 -20 -20 -20 -20 -20 -20 -20
-20 -20 -13 -20 -20 -5 8 11 -9 -20 -20 -20 -5 -11 12 -8 -10 -10 -6 -19 -6 -15 4 -18 1 3 -20 -20 -20 -20 -20 -20 -20 -16 -17 -20 -20 -20 -20 -20 -20 -20 -20 -20 -20
-18 0 -20 -20 -20 10 6 -12 -12 -20 -20 -20 -20 -20 -16 -20 -13 -3 -18 -8 -20 -20 -20 -20 -20 -16 -20 -11 -20 4 -1 -20 -20 -20 8 -14 -20 -20 -20 -20 -20 -20 -20 -20 -20
0 -20 -20 -18 -5 -9 10 -20 -20 -19 -20 -20 2 -20 0 8 -20 13 -19 -4 -13 -20 -20 -20 -20 -12 -18 -20 -20 -20 -20 -20 -20 -20 -20 -20 -20 -20 -20 -20 -20 -20 -20 -20 -20
-19 -11 -15 -19 -18 -8 -20 -16 -7 -10 -20 -20 -20 -20 -20 1 -11 -7 -20 0 -20 -20 -20 -20 -12 -17 -14 -18 -20 -20 -20 -20 -20 -20 -20 -20 -20 -20 -20 -20 -20 -20 -20 -20 -20
-20 -20 6 1 -20 -20 -18 -20 -13 -20 -20 -20 -20 -20 -20 -0 -15 4 -20 -12 -20 -20 -20 -20 -6 -15 -6 -20 -20 -20 -20 -20 5 -20 -16 -13 -18 -20 -20 -20 -20 -20 -20 -20 -20
-20 -20 -20 -20 -20 -20 -20 -0 -17 -20 -20 -20 -20 -20 -20 4 -3 -20 -20 -20 -20 -20 -20 -18 -20 -20 -20 -20 -20 -20 -20 -17 -11 -20 -20 -20 -20 -20 -20 -20 -20 -20 -20 -20 -20
-20 -20 -20 -20 -20 -20 -20 -20 -20 -20 -12 -20 -20 -20 -20 -20 -20 -17 -20 -15 -20 -20 -20 -20 -20 -20 -20 -20 -20 -20 -20 -20 -20 -20 -7 -20 -20 -20 -20 -20 -20 -20 -20 -20 -20
-20 -20 -20 -20 -20 -20 -20 -15 -20 -20 -20 -20 -20 -19 -20 -20 -20 -20 -20 -20 -20 -17 -20 -20 -20 -20 -20 -20 -20 -20 -20 -20 -20 -20 -20 -14 -18 -20 -20 -20 -20 -20 -20 -20 -20

GFSSW_prec_radar_069.txt.gz
Reflectivity
1 -12 2 -12 -20 -20 2 5 -20 -3 1 -20 -20 -20 -20 -20 -20 -20 -20 -20 -20 -20 -20 -20 -20 16 -14 -20 -8 27 16 -3 -20 -20 -20 -15 -16 -20 -20 -20 -16 5 11 18 -16
-3 3 12 13 -20 -20 -20 -9 -20 -20 12 0 -20 -20 -20 -20 -20 -20 -20 -20 -20 -20 28 -20 12 17 5 -20 -13 25 16 -17 -20 7 -20 -20 -20 -20 -20 -20 -2 -1 12 21 1
-3 -11 7 10 7 -20 -20 -20 16 -20 -20 -17 -13 -20 -20 -20 -20 -20 -20 -20 -20 17 24 -20 26 22 13 12 3 20 -20 -15 -20 -20 -13 -20 -20 -20 -20 -20 -8 -1 1 5 13
-0 4 -4 11 12 6 -20 -20 -20 9 3 -16 -20 -20 -20 -20 -20 -20 -20 -20 -20 -20 21 14 30 5 12 -8 -6 17 -20 -5 -5 -20 22 -20 -17 -20 -20 -20 -20 -20 -20 -2 -2
-9 12 -12 3 -15 -8 0 1 -20 -20 18 12 -20 -20 -20 -20 -20 -20 -20 -20 -20 -17 -6 -12 33 14 22 15 7 -14 17 1 17 10 11 -20 -12 -20 -2 -20 -20 -20 -20 -20 19
0 8 -19 -19 -20 -9 -20 -20 -7 -20 2 8 -20 -20 -20 -20 -20 -20 -20 -20 -20 2 19 35 8 31 7 21 18 -20 -20 3 19 32 27 -15 -11 -20 -20 -20 -20 -20 -20 -20 -17
1 11 6 7 -18 9 8 -20 1 -20 -19 14 1 -10 -20 -20 -20 -20 -20 -20 -20 -20 18 39 -15 40 -2 6 -20 -18 9 14 25 -15 24 23 18 12 13 -20 -14 -20 -9 -17 -20
1 10 -9 -13 4 7 -20 -20 -20 -20 7 21 1 -20 -17 -20 -20 -20 -20 -20 -20 -20 25 27 9 5 11 -20 1 -20 -1 19 30 30 15 27 -20 15 9 -18 -20 -20 -20 -18 -20
-0 8 3 -20 -20 8 8 -20 -20 -20 -13 9 -20 -9 -20 -20 -20 -20 -20 -20 -15 -16 -4 18 27 33 15 -11 -18 18 -16 30 30 32 30 23 31 13 10 -20 -20 -20 -20 -20 -20
-12 2 1 -19 -14 6 -20 -20 -20 -20 -20 -20 -20 -6 -20 -20 -20 -20 -20 -20 -1 11 -20 8 21 25 36 15 16 -12 9 11 27 27 5 2 40 21 21 -20 -20 -20 -20 -20 -20
-8 1 -20 -20 -3 -20 -20 -20 -20 -20 -20 -20 -20 -20 -20 -19 -20 -20 -20 14 22 11 -10 27 -9 -15 32 12 -20 -19 -20 6 -20 9 1 35 26 -7 -20 -20 -20 -20 -20 -20 -20
-11 -7 -20 -20 -20 8 -15 -20 -20 -20 -20 -20 -20 -20 -20 -20 -16 -1 21 17 -8 7 -1 18 -7 -20 2 30 14 5 9 12 25 -0 13 19 18 -12 8 7 -14 -20 -20 -20 -20
-20 -20 -20 -20 3 -20 -20 -20 -20 -20 -20 -20 -20 -20 -18 -16 3 2 0 19 -11 -5 9 9 -7 6 23 19 24 10 -20 7 24 -10 -15 -1 17 35 -14 -11 -19 -20 -20 -20 -20
-20 -20 -20 -20 -20 -20 -20 -20 -20 -20 -20 -19 -2 -12 4 -7 4 -20 1 9 -11 4 38 33 17 12 28 22 -19 -20 -20 -0 13 -1 35 21 22 -3 3 -13 -20 -20 -20 -20 -20
-20 -20 -20 -19 -20 -20 -20 -20 -20 -20 -20 1 -20 -20 -18 5 12 18 9 26 -11 22 30 1 17 13 -12 4 8 -20 -20 -20 -4 29 3 18 -2 -20 -6 -14 -20 -20 -20 -20 -20
-7 -20 -20 -20 -20 -20 -20 -20 -20 -20 -20 -19 -20 -20 -6 6 -11 -4 28 33 31 15 -19 10 27 30 26 23 -19 -20 -10 -9 -16 5 13 10 3 -20 -20 -20 -20 -20 -20 -20 -20
4 -20 -20 -20 -14 -20 -20 -20 -20 -20 -20 -2 -20 -20 -4 -3 5 -20 6 -10 -15 13 18 33 24 28 20 10 -2 12 -10 16 20 -3 -7 -20 3 -20 -20 -20 -20 -20 -20 -20 -20
9 -20 -20 -20 -20 -20 -20 -20 -20 -20 11 3 -20 -19 -16 8 -4 -20 1 -20 -14 9 -12 20 2 -20 -17 -19 -20 -19 -2 -1 -20 -20 -20 -20 -10 -1 -20 -20 -20 -20 -12 -20 -20
8 -20 -20 -20 -20 -20 -20 -20 -20 -6 -18 -1 30 -18 -20 -20 -9 -9 -20 -20 -20 -20 -20 2 -19 -20 -20 -20 -20 -17 -20 -20 -20 -20 -20 -20 -16 -11 -20 -20 -20 -20 -20 -20 -20
7 -20 -20 -20 -20 -20 -20 -20 -19 -20 -20 18 5 3 -4 -20 -12 -20 -19 -20 -20 -20 -20 -20 -19 -20 -20 -20 -20 -20 -20 -20 -20 -20 -20 -20 -20 -20 -20 -20 -20 -20 -20 -20 -20
2 -14 -20 -20 -20 -16 -10 -20 -20 -20 -20 -19 -20 -20 -20 -13 -20 -20 -20 -20 -20 -20 -20 -20 0 -17 -20 -20 -20 -20 -20 -20 -20 -20 -20 -20 -20 -20 -20 -20 -20 -20 -20 -20 -20
-15 -14 -10 -20 -20 -16 -0 -20 -20 -9 -20 -20 -12 -20 -20 -20 -20 -20 -20 -20 -20 -20 -20 -20 -20 -20 -20 -20 -20 -20 -20 -20 -20 -20 -20 -20 -20 -20 -20 -20 -20 -20 -20 -20 -20
-18 -17 7 -20 -20 -18 -2 -20 -20 -16 -20 -17 3 -20 4 -3 6 4 -20 -1 -20 -20 -20 -20 -20 -20 -20 -20 -20 -20 -20 -2 -20 -20 -20 -20 -20 -20 -20 -20 -20 -20 -20 -20 -20
2 -17 9 -5 -20 -20 -20 -20 -15 -20 -20 -20 -20 -20 -20 -20 -15 -17 -20 -8 -20 -20 -20 -20 -20 -20 -20 -20 -20 -20 -20 -20 -20 -20 -20 -20 -20 -20 -20 -20 -20 -20 -20 -20 -20
6 -20 -20 -15 -20 -20 -20 -20 -3 -20 -20 -20 -20 -20 -15 -5 -4 -4 4 1 -20 -20 -20 -20 -20 -20 -20 -20 -20 -20 -20 -20 -20 -20 -20 -20 -20 -20 -20 -20 -20 -20 -20 -20 -20
3 -20 -20 -20 -20 -20 -20 -20 -16 -20 -20 -20 -20 -20 -20 -20 -20 -20 -1 -20 -20 -20 -20 -20 -20 -20 -20 -20 -20 -20 -20 -20 -20 -20 -20 -20 -20 -20 -20 -20 -20 -20 -20 -20 -20
-20 -20 -20 -20 -20 -20 -20 -20 -1 -20 -20 -20 -20 -20 -20 -20 -20 -20 -20 -20 -20 -20 -20 -20 -20 -20 -20 -20 -20 -20 -20 -20 -20 -20 -20 -20 -20 -20 -20 -20 -20 -20 -20 -20 -20

GFSSW_prec_radar_072.txt.gz
Reflectivity
-20 -13 7 11 3 -20 -20 -20 7 -20 -20 -11 -20 -20 -15 -20 -20 -20 -20 -20 -20 -20 -20 -20 -20 -20 -9 6 10 12 27 -6 -20 -20 -20 -20 -20 -13 -20 -17 -3 7 1 13 15
-16 -12 -20 6 -20 3 -20 -20 -15 12 -20 8 -3 -17 -13 -20 -20 -20 -20 -20 -20 -20 -20 -20 -17 12 16 7 5 3 15 -7 -20 -20 -20 -20 -20 -20 -20 -13 -5 6 14 9 6
-19 -3 -15 11 -2 14 -3 6 -20 -18 10 -20 -20 -20 -20 -20 -20 -20 -20 -20 -20 -20 -20 -20 -20 -16 19 20 22 -16 17 -20 -20 -9 -18 -20 -20 -20 -20 -2 -4 8 12 8 17
-20 -12 12 -8 -15 -6 2 13 -13 -20 -14 4 4 -20 -20 -20 -20 -20 -20 -20 -20 -20 -20 -20 -20 20 23 -14 -18 11 23 25 -20 4 4 -18 15 -20 -20 -20 -20 -11 11 11 -0
-19 -1 8 -16 -12 -20 -2 -20 -15 7 -20 10 17 -17 -20 -20 -20 -20 -20 -20 -20 -20 -20 -20 -20 -20 31 2 8 -17 -9 14 1 10 13 -7 24 21 -20 -20 -20 -20 -0 18 10
-12 -2 0 8 -20 9 -15 -17 -17 13 -20 6 18 -20 -20 -20 -20 -20 -20 -20 -20 -20 -20 -20 21 1 21 16 -13 -20 -20 17 22 0 6 26 11 7 -20 -20 -20 -15 -20 4 8
11 -11 -1 3 -20 -10 9 -18 15 13 -17 -20 18 -9 -20 -20 -20 -20 -20 -20 -20 -20 -20 -20 5 38 34 16 4 12 11 3 17 23 25 5 23 -17 15 -20 -20 -19 -20 -14 9
18 -2 -5 -19 -20 -20 -1 12 7 -20 -20 -19 18 -20 -20 -20 -20 -20 -20 -20 -20 -20 7 14 24 22 12 -0 12 25 -14 6 23 30 15 26 32 17 -13 -14 15 -20 -20 -20 -6
9 22 -3 -19 -20 -11 -3 -20 -20 -14 -20 14 -20 -20 -20 -20 -20 -20 -20 -20 -20 2 24 19 24 32 40 8 6 18 11 -11 28 24 20 15 35 19 17 -7 -20 -8 -20 -20 -20
22 12 8 -8 -20 -17 -20 -20 -20 -20 -20 -20 -18 -13 -20 -20 -20 -20 -20 -12 11 -5 5 15 29 25 37 -0 22 14 8 3 30 26 35 10 15 31 -17 -20 -20 -20 -20 -20 -20
9 11 7 8 -17 -20 -20 -20 -20 -20 -20 -20 -20 -20 -20 -20 -20 -20 -20 18 28 12 -13 -7 6 9 26 -20 -20 -20 -20 -20 27 2 17 25 21 39 23 -20 -20 -20 -20 -20 -20
22 -0 -20 14 -20 -20 -20 -20 -20 -20 -20 -20 -20 -20 -20 -20 -3 -17 -20 -20 19 -20 1 6 12 -18 -13 1 -20 -20 -19 -3 13 34 22 34 13 23 16 -13 -20 -20 -20 -20 -20
18 2 12 10 -16 -20 -20 -20 -20 -20 -20 -20 -20 -20 -20 -17 23 -13 -20 1 -11 -7 -3 10 6 -20 -20 3 -2 -19 -12 3 -10 17 33 21 24 26 32 1 -20 -20 -20 -20 -20
27 -20 -20 10 -14 -20 -20 -20 -20 -20 -20 -20 -20 -20 -20 -3 11 -20 -20 -8 5 -9 -6 22 12 12 2 -18 2 24 -5 -0 28 30 11 -1 4 19 -5 -12 -20 -20 -20 -20 -20
28 3 -12 -6 -20 -20 -20 -20 -20 -20 -20 -20 -20 -20 -20 8 -10 14 -16 27 24 31 25 28 14 12 3 38 14 -20 11 5 16 38 17 -4 -20 10 3 -8 -20 -20 -20 -20 -20
23 -20 2 -6 -20 -20 -20 -20 -20 -20 -20 -12 -20 -20 6 1 -20 1 33 24 19 26 25 21 2 3 -2 -20 -20 -20 -5 26 18 22 21 15 -20 -20 -20 -13 -20 -20 -20 -20 -20
27 -12 14 10 -20 -20 -20 -20 -20 -20 -20 -20 -18 -20 -18 -3 4 -20 -4 -2 11 -1 21 26 11 15 26 -20 9 -20 -8 18 16 18 3 14 -1 -20 -20 -16 -20 -20 -20 -20 -20
26 11 4 -5 -20 -20 -20 -20 -20 -20 -17 -20 -20 -4 -17 -20 -20 -20 -20 -3 20 -6 25 24 28 32 -20 -20 -6 -12 -20 -20 5 11 -20 -20 -20 -19 -20 -20 -20 -20 -20 -20 -20
1 -17 5 -17 -20 -20 -20 -20 -20 -20 -20 -20 -17 -20 -20 -20 -20 -20 -20 -3 -20 7 16 -8 28 -5 10 -20 7 -17 -20 -20 -20 3 -17 -20 -20 -20 -20 -20 -20 -20 -20 -20 -20
28 14 -2 -17 -20 -20 -4 -20 -20 -20 -20 -19 7 10 -20 -20 -20 -20 -20 -20 -20 -20 -16 -20 -20 -20 -20 -20 -20 -14 -11 -18 -20 -20 -20 -20 -20 -20 -8 -13 -20 -20 -20 -20 -20
28 1 -12 -20 -20 -8 -20 -20 -20 -20 -20 -9 -20 -18 -20 -20 -20 -20 -20 -20 -20 -20 -20 -20 -20 -20 -20 -20 -20 -20 -20 -20 -20 -20 -20 -20 -20 -20 -20 -5 -5 -20 -20 -20 -20
14 -5 -7 -20 -15 10 -20 -19 -13 -8 -20 -20 -20 -20 -20 -20 -20 -20 -20 -20 -20 -20 -20 -20 -20 -20 -20 -20 -20 -20 -20 -20 -20 -20 -20 -20 -20 -20 -20 -20 -20 -20 -20 -20 -20
12 10 -7 -20 -15 -20 -2 -20 3 -12 -20 -20 -12 -20 -20 -20 -20 -20 -20 -20 -20 -20 -20 -20 -20 -20 -20 -20 -20 -20 -20 -20 -20 -20 -20 -20 -20 -20 -20 -20 -20 -20 -20 -20 -20
21 23 14 -3 -20 -20 2 -20 6 -20 -20 -20 -20 -20 -20 1 -20 -20 -20 -15 -20 -20 -20 -20 -20 -20 -20 -20 -20 -20 -20 -20 -20 -20 -20 -15 -19 -20 -20 -20 -20 -20 -20 -20 -20
12 16 -18 9 3 -20 -20 -20 -16 -20 -20 -20 -20 -20 -20 -14 -7 -20 -20 1 -20 -20 -20 -20 -20 -20 -20 -20 -20 -20 -20 -20 -20 -20 -20 -13 -13 -20 -20 -20 -20 -20 -20 -20 -20
28 15 -20 -20 -20 -20 -20 -20 -20 -20 -20 -20 -20 -20 -20 -20 -20 -20 -2 -16 -20 -20 -20 -20 -20 -20 -20 -20 -20 -20 -20 -20 -20 -20 -20 -20 -20 -20 -20 -20 -20 -20 -20 -20 -20
21 -3 -20 -20 -20 -20 -20 -20 -8 -20 -20 -20 -20 -20 -20 -20 -20 -20 -20 -20 -20 -20 -20 -20 -20 -20 -20 -20 -20 -20 -20 -20 -20 -20 -20 -20 -20 -20 -20 -20 -20 -20 -20 -20 -20

GFSSW_prec_radar_075.txt.gz
Reflectivity
2 -18 -20 -20 -3 6 -18 -20 -20 -4 -10 -19 13 3 -20 -20 -20 -20 -20 -20 -20 -20 -20 -20 -20 -20 -18 1 7 15 7 3 -18 -20 -20 -20 -20 -19 -20 -20 -20 7 1 7 25
13 -0 3 -20 -3 6 13 11 -20 -20 -9 2 -18 3 -20 -20 -20 -20 -20 -20 -20 -20 -20 -20 -20 -20 -20 -4 14 10 10 -16 -20 -7 -20 -20 -14 -20 -20 -19 6 3 10 11 22
13 2 -18 8 -6 -20 -20 3 15 -20 -20 -8 20 3 -20 -20 -20 -20 -20 -20 -20 -20 -20 -20 -20 -20 -20 -13 -20 -15 3 -20 9 25 -19 -2 -6 -20 -20 -10 -20 -4 27 -19 -5
19 6 12 18 -19 -17 -20 6 -20 -20 -12 -20 9 11 -20 -20 -20 -20 -20 -20 -20 -20 -20 -20 -20 -20 0 -20 -20 19 -20 8 8 20 -9 28 10 8 -20 -20 -13 -1 10 -12 -3
31 16 23 8 13 -20 -20 10 -20 -15 11 -20 8 13 -19 -20 -20 -20 -20 -20 -20 -20 -20 -20 -20 -20 -20 -12 -13 20 -20 -13 21 3 22 1 3 19 -4 -20 5 -9 13 -16 -4
31 22 22 -8 16 -9 -20 3 8 9 -8 -20 -1 7 -20 -20 -20 -20 -20 -20 -20 -20 -20 -20 -20 -20 -20 -20 17 -4 -20 -20 22 22 25 -20 -20 23 -20 -20 2 -20 -11 -20 8
27 15 25 12 16 -20 -20 5 -2 -1 0 -20 -15 1 -9 -20 -20 -20 -20 -20 -20 -20 -20 -20 -20 -20 6 -3 -16 -20 -20 -20 -20 23 25 -10 27 16 24 2 -10 -16 -8 -16 -19
30 26 24 24 -10 -11 -17 12 -0 -2 -20 -20 4 -9 -20 -20 -20 -20 -20 -20 -20 -20 -20 -20 -20 -5 21 14 17 -11 26 -4 -20 20 26 23 7 19 20 3 27 -6 19 -2 17
26 9 10 19 -0 -20 5 3 -20 -20 8 -0 8 -20 -20 -20 -20 -20 -20 -20 -20 -6 11 -9 5 29 30 1 37 3 27 -20 5 16 28 33 -14 -12 23 20 20 24 -3 0 34
23 3 15 25 4 -5 0 1 -20 -20 -15 -16 -9 -5 -20 -20 -20 -20 -20 -20 -9 16 20 17 31 24 25 39 14 4 8 -7 -12 -14 23 31 -15 -20 30 -0 -10 -18 15 -10 -17
25 13 23 31 18 -7 -0 -20 -20 -20 -20 -20 -20 -20 -20 -20 -20 -20 -20 -16 -2 9 15 14 13 14 18 6 21 -20 -20 -20 -8 19 9 27 -20 -11 28 -1 -20 -1 -20 -20 -13
25 25 7 29 -8 -0 8 -20 -20 -20 -20 -20 -20 -20 -20 -20 -20 -20 -20 -20 -10 -20 -0 4 -15 -0 28 38 17 -2 17 17 -8 0 34 10 18 18 15 34 -15 -20 -14 -20 -20
27 25 28 16 2 4 -6 -20 -20 -20 -20 -20 -20 -20 -20 -20 -7 -20 -20 -20 -20 -20 1 8 -10 -19 24 5 32 -15 -19 10 -20 18 29 37 36 25 38 35 9 -18 -15 -20 -20
30 23 25 24 15 10 -17 -20 -20 -20 -20 -20 -20 -20 -20 -8 1 -20 -20 -18 14 -16 -20 8 -19 0 2 -20 -8 -20 -16 16 -11 30 32 18 25 20 3 8 33 -20 -20 -20 -20
25 18 19 20 14 7 -20 -20 -20 -20 -20 -20 -20 -20 -20 4 -19 12 18 2 -9 3 27 24 21 16 -20 -20 -8 -19 6 19 13 4 19 28 19 9 -11 6 -20 -20 -20 -20 -20
32 26 24 27 20 -12 -20 -20 -20 -20 -20 -15 -20 -20 -20 -7 -18 17 10 30 20 32 34 29 -6 -6 -11 -20 13 24 -7 3 9 34 23 28 -20 -20 -20 3 20 8 -20 -20 -20
31 29 27 24 9 -20 -20 -20 -20 -20 -20 -20 -20 -20 -20 -19 -20 -8 10 15 19 24 13 7 13 18 4 32 -2 2 -17 13 20 19 6 13 3 -20 -5 5 -5 -20 -20 -20 -20
30 34 27 22 -2 -20 -20 -20 -20 -20 -20 -20 -20 -20 -20 -20 -20 -20 8 25 25 32 23 9 11 6 21 -17 -20 -20 0 22 6 -20 -20 -9 -17 -20 -19 -20 -20 -20 -20 -20 -20
30 25 29 13 -20 -20 -20 -20 -20 -20 -20 -20 -20 -20 -20 -20 -20 -20 1 -20 16 -2 -1 4 17 14 -20 -20 -20 -20 -6 -0 -19 -1 7 3 -8 -20 -12 -20 -20 -20 -20 -20 -20
28 26 33 -7 -1 -20 -20 -20 -20 -20 -20 -20 -20 -20 -20 -20 -20 -20 -20 -20 15 13 21 3 4 -15 -20 -20 -20 -20 -20 -20 -20 -20 1 -20 -20 -11 6 -3 -20 -20 -20 -20 -20
28 31 26 -5 -20 -10 -13 -20 -20 -20 -20 -20 -20 -18 -20 -20 -20 -20 -20 -20 -20 -19 -20 -20 -20 -18 -20 -20 -20 -20 -20 -20 -20 -20 -20 -20 -20 -20 -14 3 -12 -20 -20 -20 -20
30 30 29 -11 -16 -20 -20 -20 -20 -20 -20 -20 -20 -20 -20 -20 -20 -20 -20 -20 -20 -20 -20 -20 -20 -20 -20 -20 -20 -20 -20 -20 -20 -20 -20 -20 -20 -20 -19 -20 -20 -20 -20 -20 -20
32 36 30 -3 -13 -20 -20 -20 -19 -20 -20 -20 -20 -20 -20 -20 -20 -20 -20 -20 -20 -20 -20 -20 -20 -20 -20 -20 -20 -20 -20 -20 -20 -20 -20 -20 -20 -20 -20 -20 -20 -20 -20 -20 -20
31 35 31 7 -20 -20 -20 -20 -5 -20 -20 -20 -20 -20 -20 -20 -20 -20 -20 -20 -20 -20 -20 -20 -20 -20 -20 -20 -20 -20 -20 -20 -20 -20 -20 -20 -20 -20 -20 -20 -20 -20 -20 -20 -20
32 35 21 14 -1 -20 -20 -20 -0 -20 -20 -20 -20 -20 -20 -9 -20 -20 -20 -20 -20 -20 -20 -20 -20 -20 -20 -20 -20 -20 -20 -20 -20 -20 -20 -20 -20 -20 -20 -20 -20 -20 -20 -20 -20
30 29 -2 -20 -20 -20 -20 -4 -20 -20 -20 -20 -20 -20 -20 -20 -20 -20 -20 -20 -20 -20 -20 -20 -20 -20 -20 -20 -20 -20 -20 -20 -20 -20 -20 -20 -20 -20 -20 -20 -20 -20 -20 -20 -20
25 29 -20 -7 -20 -20 -20 -20 -20 -20 -20 -20 -20 -20 -20 -20 -20 -20 -20 -20 -20 -20 -20 -20 -20 -20 -20 -20 -20 -20 -20 -20 -20 -20 -20 -20 -20 -20 -20 -20 -20 -20 -20 -20 -20

GFSSW_prec_radar_078.txt.gz
Reflectivity
14 22 6 -20 -14 -20 -17 12 10 -20 -20 -1 -20 -9 -20 -20 -20 -20 -20 -20 -20 -20 -14 -13 -20 -20 -20 11 12 14 12 -5 -17 -16 -20 -20 -20 -2 12 -18 -20 -20 2 8 21
5 16 6 0 -2 2 8 -20 14 -12 -20 -20 -3 -2 -6 -20 -20 -20 -20 -20 -20 -20 -20 -20 -20 -20 -20 4 7 16 7 -20 -20 -20 -20 -20 -1 -17 16 3 -20 -20 -14 15 23
5 4 21 -9 -12 17 12 -20 -2 14 5 -20 -20 13 12 -20 -20 -20 -20 -20 -20 -20 -20 -20 -20 -20 -20 -12 -15 -13 -20 -20 -20 -20 -20 -20 -17 11 12 23 -20 -20 -20 16 3
28 -1 25 18 2 3 11 -20 -3 -8 -20 6 -15 -1 -6 -20 -20 -20 -20 -20 -20 -20 -20 -20 -20 -20 -20 -20 -20 7 -20 -20 -20 -20 -20 -10 21 1 -2 -4 -15 -20 -14 16 14
-10 23 26 23 28 17 9 -20 -11 -19 12 -7 -20 3 -20 -20 -20 -20 -20 -20 -20 -20 -20 -20 -20 -20 -11 -18 -20 -4 -20 -20 -20 -20 -18 -20 -2 0 4 4 -20 -8 -12 1 0
14 -2 22 21 20 24 19 -20 -20 -15 14 -13 -20 -1 -8 -20 -20 -20 -20 -20 -20 -20 -20 -20 -20 -20 -20 -20 -3 -20 -20 -20 -20 -20 -20 9 13 12 -5 -8 8 -20 -8 -4 1
8 -20 20 30 11 21 21 -20 -20 -20 13 -19 -20 13 5 -20 -20 -20 -20 -20 -20 -20 -20 -20 -20 -18 9 -1 -20 -20 -18 13 -20 -19 -3 9 7 6 29 15 -10 25 -12 36 30
1 -13 6 11 11 13 21 -4 -7 -20 6 -20 -20 -10 -14 -20 -20 -20 -20 -20 -20 -20 -20 -20 1 12 9 3 -18 -13 -12 3 -20 -20 7 26 8 15 39 22 25 -20 30 10 28
-20 8 19 18 32 15 25 27 -20 -20 10 -16 -14 -16 -20 -20 -20 -20 -20 -20 -20 -20 -8 21 14 17 23 11 24 -15 8 -12 15 -20 5 13 31 19 23 9 -11 21 12 27 30
-20 -15 30 17 25 11 25 26 -20 -11 12 -20 -16 -14 -20 -20 -20 -20 -20 -20 -11 -16 18 16 17 29 30 30 23 -20 14 1 4 -10 -2 18 39 3 -20 -20 -12 23 20 23 23
-20 1 22 25 20 25 19 27 -5 -12 -19 -20 -20 -20 -20 -20 -20 -20 -20 -20 -20 1 14 13 3 5 -12 23 12 20 8 27 20 18 24 -5 24 19 33 -1 16 22 14 12 20
-12 -20 21 26 19 16 22 -15 15 5 -3 -20 -20 -20 -20 -20 -20 -20 -20 -20 -20 -20 -20 -6 -9 -20 -5 21 26 39 4 21 23 25 19 -3 18 36 20 -7 9 5 -16 11 4
-1 12 25 27 22 22 28 8 12 -16 -5 -20 -20 -20 -20 -20 -17 -20 -20 -20 -20 -20 -20 -11 -20 -20 -5 -7 37 17 -18 -20 -20 0 -20 -6 7 35 4 -20 16 8 19 -1 12
5 2 30 23 24 -1 -1 24 15 4 -19 -20 -20 -20 -20 -20 14 -20 -20 -15 11 0 -20 -17 -20 -17 11 38 22 13 25 26 -2 -20 -14 -11 17 34 -6 -17 13 16 -13 -19 16
-20 -0 26 18 27 1 15 26 16 -8 -13 -20 -20 -20 -20 -17 -15 -20 -17 2 -10 16 25 5 -5 -5 4 14 -17 15 18 23 -4 -18 -8 24 31 29 -18 -14 -4 21 -5 15 1
5 22 27 12 35 16 26 12 -5 6 -20 -20 -20 -20 -20 -9 -20 -16 -3 12 21 32 31 27 17 12 -19 -3 10 3 4 20 -20 -20 -4 -1 -3 13 7 12 -2 -9 -12 11 16
13 26 33 4 29 24 24 19 -9 -20 -20 -20 -20 -20 -20 -20 -20 -20 10 30 33 5 16 3 19 19 -20 -7 8 7 -20 -20 -1 9 -19 18 17 6 -16 -12 8 11 19 -4 14
16 25 32 28 31 32 24 9 -20 -20 -20 -20 -20 -20 -20 -20 -20 -20 -15 32 25 -14 9 -2 -15 -17 -20 20 25 7 18 -20 -2 -12 -0 9 9 -3 -20 -20 -20 1 -3 26 -19
20 27 27 28 29 25 21 -5 -20 -20 -20 -20 -20 -20 -20 -20 -20 -20 -20 9 8 -13 -20 19 28 34 31 -20 3 1 12 -15 -19 4 -0 0 -19 -16 -19 -20 13 23 6 -8 -20
27 18 25 32 25 12 -7 -20 -20 -20 -20 -20 -20 -20 -20 -20 -20 -20 -20 -13 30 19 -20 -16 -6 -16 -19 -9 -20 -20 -13 2 1 0 -16 -15 -15 -20 -20 -20 -20 4 -3 -20 -20
35 27 36 35 31 20 -3 -20 -20 -20 -20 -20 -20 -20 -20 -20 -20 -20 -20 -20 -20 -20 -20 -20 -20 -20 -20 -20 -20 -20 -20 -20 -20 -20 -18 -5 -20 -17 -7 -20 -20 -20 -20 -20 -20
33 31 35 29 30 6 -2 -20 -20 -20 -20 -20 -20 -20 -20 -20 -20 -20 -20 -20 -20 -20 -20 -20 -20 -20 -20 -20 -20 -20 -20 -20 -20 -20 -20 -20 -20 -20 -20 -20 -20 -20 -20 -20 -20
33 34 32 22 19 17 -20 -20 -20 -20 -20 -20 -20 -20 -20 -20 -20 -20 -20 -20 -20 -20 -20 -20 -20 -20 -20 -20 -20 -20 -20 -20 -20 -20 -20 -20 -20 -20 -20 -20 -20 -20 -20 -20 -20
27 29 35 26 28 -17 -20 -20 10 -20 -20 -20 -20 -20 -20 -20 -20 -20 -20 -20 -20 -20 -20 -20 -20 -20 -20 -20 -20 -20 -20 -20 -20 -20 -20 -20 -20 -20 -20 -20 -20 -20 -20 -20 -20
25 27 12 22 18 -20 -20 -20 -20 -20 -20 -20 -20 -20 -20 -20 -20 -20 -20 -20 -20 -20 -20 -20 -20 -20 -20 -20 -20 -20 -20 -20 -20 -20 -20 -20 -20 -20 -20 -20 -20 -20 -20 -20 -20
24 22 30 -20 -20 -20 -20 10 -2 -20 -20 -20 -20 -20 -20 -20 -20 -20 -20 -20 -20 -20 -20 -20 -20 -20 -20 -20 -20 -20 -20 -20 -20 -20 -20 -20 -20 -20 -20 -20 -20 -20 -20 -20 -20
-6 8 6 -20 -7 -20 -20 -1 -20 -20 -20 -20 -20 -20 -20 -20 -20 -20 -20 -20 -20 -20 -20 -20 -20 -20 -20 -20 -20 -20 -20 -20 -20 -20 -20 -20 -20 -20 -20 -20 -20 -20 -20 -20 -20

GFSSW_prec_radar_081.txt.gz
Reflectivity
14 1 -6 11 6 6 -20 -20 -18 9 -20 -20 -20 12 -19 -20 -20 -20 -20 -20 -20 -20 -7 -20 -20 -20 -20 -14 12 14 5 -20 -20 -20 -20 -20 -20 -20 -8 -13 -20 -17 -20 -20 7
18 22 5 4 -6 28 11 -12 -20 -20 10 -4 -20 -20 23 -20 -20 -20 -20 -20 -20 -20 -20 -20 -20 -20 -20 -20 -1 15 -1 -20 -20 -20 -20 -20 -20 -20 -20 -13 -15 -20 -20 -20 4
10 21 24 11 17 11 19 15 -14 -20 -20 10 -20 -20 22 -20 -20 -20 -20 -20 -20 -20 -20 -20 -20 -20 -20 -20 -18 -18 -20 -20 -20 -20 -20 -20 -20 -20 -17 18 -19 -20 -20 -19 -2
2 5 14 25 19 12 15 19 -2 -20 -20 -18 9 -20 1 -20 -20 -20 -20 -20 -20 -20 -20 -20 -20 -20 -20 -20 -20 -17 -20 -20 -20 -20 -20 -20 -18 5 -20 -20 14 -2 -20 -14 -20
15 16 11 -14 10 19 18 8 7 3 0 -20 -20 -20 -20 -20 -20 -20 -20 -20 -20 -20 -20 -20 -20 -20 -20 -20 -20 -18 -20 -20 -20 -20 -20 -20 -14 -20 -20 10 15 27 -0 -20 3
12 8 11 -20 22 5 12 -12 3 -1 -18 -20 -20 -10 -20 -20 -20 -20 -20 -20 -20 -20 -20 -20 -20 -20 -20 -16 -5 -20 -20 -20 -20 -20 -20 -20 -20 6 -20 -15 10 -3 15 -20 25
11 13 -5 -20 15 17 19 16 1 21 -4 -5 -20 -7 6 -20 -20 -20 -20 -20 -20 -20 -20 -20 -20 -20 4 -20 -7 -17 -20 -20 -20 -20 -20 -20 -7 -20 -20 -4 22 14 -1 -19 -13
17 2 -3 11 14 20 19 -2 -16 19 25 5 -19 -17 1 -20 -20 -20 -20 -20 -20 -20 -20 -20 4 10 7 -20 -20 2 3 -19 -20 -20 -20 -3 -18 -20 -20 -20 16 12 6 31 34
13 -4 -0 11 28 18 15 -20 -13 7 5 4 9 -3 -20 -20 -20 -20 -20 -20 -20 -20 -20 -7 19 14 19 0 -3 7 -6 -8 -20 -20 -20 -13 -14 -20 -20 -20 -19 2 13 24 31
14 2 -17 -15 23 26 4 19 14 25 7 -10 -20 -16 -18 -20 -20 -20 -20 -20 -20 -20 10 17 4 12 7 8 16 -10 6 -12 -20 -20 -20 0 2 13 5 -20 -3 12 18 22 31
10 -5 -20 -8 14 13 20 4 -13 6 17 -18 -20 -20 -20 -20 -20 -20 -20 -20 -20 -14 -20 -16 11 16 -20 -4 -6 12 24 -14 -4 -20 -20 -20 -5 7 16 6 -20 8 -20 18 17
-1 2 -20 30 19 17 17 9 18 29 23 -15 3 -11 -20 -20 -20 -20 -20 -20 -20 -18 -20 -2 -10 -20 3 32 19 8 -16 11 21 -20 20 -1 1 9 37 40 35 42 14 16 18
-14 5 -20 28 26 4 25 26 23 17 -15 -20 -2 -19 -20 -20 -20 -20 -20 -15 -20 -9 -20 -20 -20 -16 -7 26 32 28 10 20 33 17 17 16 -6 13 21 4 38 14 25 17 -1
6 -0 -20 13 25 -11 23 15 8 -17 -7 2 -16 -20 -20 -20 -20 -20 -20 -19 3 -7 -20 -20 -20 -20 -14 18 34 15 -9 11 24 4 29 16 6 2 16 12 -15 -20 -11 2 2
12 7 -20 22 25 -20 8 26 11 5 17 10 -20 -20 -20 -20 -20 -16 1 -11 -10 24 -13 -20 -7 -18 21 34 13 9 -20 23 18 6 8 -15 -20 6 8 -1 -20 9 -17 17 17
-20 -3 23 14 6 12 10 29 11 -19 4 2 -15 -20 -20 -20 -15 -18 8 26 33 29 27 -10 -17 17 -10 -20 -7 18 14 16 4 4 -20 -20 -1 -4 14 -17 -19 -20 -20 9 32
12 11 18 33 28 7 31 23 2 14 9 2 -20 -20 -20 -20 -20 -13 6 34 16 -6 -20 -10 -7 17 -18 9 21 17 -0 -8 1 -20 -16 7 -12 -9 6 10 -10 -20 -14 8 23
26 3 13 15 33 22 25 22 18 15 0 -20 -20 -20 -20 -20 -20 -20 -7 29 7 4 9 1 -18 -19 -20 -10 4 -20 -20 -20 -19 -20 -3 -19 -4 -1 7 -19 -20 -20 -9 -20 17
38 21 8 26 22 27 22 3 16 5 -17 -20 -20 -20 -20 -20 -20 -20 6 6 -6 1 23 -19 -1 -15 -20 -19 -11 33 -20 -20 -20 -20 -20 -20 -20 -20 -20 -20 -17 -15 -13 -8 21
24 19 3 18 26 23 23 6 9 -7 -20 -20 -20 -20 -20 -20 -20 -20 -11 32 30 -16 20 34 18 -19 -4 20 2 19 8 -8 4 -17 -20 -20 -20 -20 -20 -20 -15 -20 -18 0 2
16 22 32 31 29 29 16 13 3 -20 -20 -20 -20 -20 -20 -20 -20 -20 -20 4 -14 -20 -20 -20 -17 -9 -20 -20 -20 -20 -8 -20 -20 -20 -20 -20 -20 -20 -20 -20 -20 -20 -20 -17 4
30 29 31 28 31 34 18 6 -20 -20 -20 -20 -20 -20 -20 -20 -20 -20 -20 -20 -20 -20 -20 -20 -20 -20 -20 -20 -20 -20 -20 -20 -20 -20 -20 -20 -20 -20 -20 -20 -20 -20 -14 -20 -19
26 30 34 29 29 29 -6 -20 -20 -20 -20 -20 -20 -20 -20 -20 -20 -20 -20 -20 -20 -20 -20 -20 -20 -20 -20 -20 -20 -20 -20 -20 -20 -20 -20 -20 -20 -20 -20 -20 -20 -20 -20 -20 -20
11 22 32 29 21 11 -9 -20 7 -20 -20 -20 -20 -20 -20 -20 -20 -20 -20 -20 -20 -20 -20 -20 -20 -20 -20 -20 -20 -20 -20 -20 -20 -20 -20 -20 -20 -20 -20 -20 -20 -20 -20 -20 -20
6 19 -3 8 28 -19 -20 -20 5 -20 -20 -20 -20 -20 -20 -20 -20 -20 -20 -20 -20 -20 -20 -20 -20 -20 -20 -20 -20 -20 -20 -20 -20 -20 -20 -20 -20 -20 -20 -20 -20 -20 -20 -20 -20
-20 -20 -4 23 -20 -20 -20 -9 6 -20 -20 -20 -20 -20 -20 -20 -20 -20 -20 -20 -20 -20 -20 -20 -20 -20 -20 -20 -20 -20 -20 -20 -20 -20 -20 -20 -20 -20 -20 -20 -20 -20 -20 -20 -20
-20 -20 -20 -5 -20 -20 -20 8 -6 -20 -20 -20 -20 -20 -20 -20 -20 -20 -20 -20 -20 -20 -20 -20 -20 -20 -20 -20 -20 -20 -20 -20 -20 -20 -20 -20 -20 -20 -20 -20 -20 -20 -20 -20 -20

GFSSW_prec_radar_084.txt.gz
Reflectivity
-14 10 19 22 -7 -11 1 6 10 -20 -11 -20 -20 -20 -12 -20 -20 -20 -20 -20 -20 -20 -20 -20 -20 -20 -20 -5 -14 -14 2 -20 -20 -20 -20 -20 -20 -20 -20 -20 -20 -20 -20 -20 -20
3 -1 12 18 25 8 16 8 -8 -10 -20 9 -20 -20 -1 -20 -20 -20 -20 -20 -20 -20 -20 -20 -20 -20 -20 -20 1 6 -20 -20 -20 -20 -20 -20 -20 -20 -20 -20 -20 -20 -20 -20 -20
12 10 14 16 7 24 15 21 -20 -19 -20 -20 -20 -20 -20 -20 -20 -20 -20 -20 -20 -20 -20 -20 -20 -20 -20 -20 -20 -20 -9 -20 -20 -20 -20 -20 -20 -20 -20 -20 -20 -20 -20 -20 27
-1 10 4 -13 9 6 19 6 14 -19 -20 -20 -20 -20 -20 -20 -20 -20 5 11 -5 -20 -20 -20 -20 -20 -20 -20 -20 -20 -20 -20 -20 -20 -20 -20 -19 -20 -20 -20 -20 -20 18 -20 -20
-20 -19 -2 -10 -20 -20 27 11 18 -18 -20 -20 -20 -20 -20 -20 -20 -20 -20 -18 -20 -20 -20 -20 -20 -20 -20 -20 -20 -20 -20 -20 -20 -20 -20 -20 -20 -20 -20 -20 -20 -20 16 -19 -20
13 3 10 13 -20 -9 17 17 15 16 8 -20 -20 -20 -20 -20 -20 -20 -20 -20 -20 -20 -20 -20 -20 -20 -20 -20 -20 -20 -20 -20 -20 -20 -20 -20 -20 -20 -20 -20 -20 -20 -20 -20 -20
-4 13 5 -12 22 16 18 15 5 -1 -20 -18 -20 -20 -8 -20 -20 -20 -20 -20 -20 -20 -20 -20 -20 -20 -20 -20 -20 -20 -20 -20 -20 -20 -20 -20 -20 -20 -20 -20 -20 -20 -7 -13 -14
14 9 8 -20 7 20 7 17 19 13 2 -20 -20 -7 -19 -20 -20 -20 -20 -20 -20 -20 -20 -20 -20 -16 9 -16 -19 -20 -20 -3 -20 -20 -20 -20 -20 -20 -20 -20 -20 -20 -20 -14 -2
12 5 7 -2 -8 27 32 -3 11 25 -17 8 -20 -16 -20 -20 -20 -20 -20 -20 -20 -20 -20 -20 2 11 19 15 12 -6 -20 -20 -20 -20 -20 -20 -20 -20 -20 -20 -20 -20 -20 9 9
-12 7 -4 -3 -20 29 -12 -2 18 2 30 1 -13 -18 11 2 -20 -20 -20 -20 -20 -2 9 8 11 13 9 11 4 6 4 -6 -20 -20 -20 -5 -20 -20 -20 -2 -16 -3 -20 -17 -13
-20 -9 -20 -15 21 22 13 5 31 2 8 -20 -20 -11 -4 -20 -20 -20 -20 -20 -9 1 6 1 3 1 -20 -11 -5 7 4 6 7 -20 20 -20 -20 -20 -20 17 23 -3 -20 -20 -20
-20 -10 -20 7 37 23 -3 -2 -6 10 14 19 -20 -20 -20 -20 -20 -20 -20 -20 -17 -10 -8 12 -3 -20 -20 -6 1 19 11 -11 -17 23 21 2 -20 -20 23 -9 -20 -1 -0 13 1
-20 -20 -13 -20 24 33 -12 23 24 -20 -10 -20 -20 -20 -20 -19 -20 -20 -20 -13 -8 -8 -0 -1 -20 -20 -19 5 22 21 19 -2 -4 27 -14 18 11 -1 -4 -20 -20 -20 -15 -1 11
-20 -20 0 -20 29 18 16 15 14 -11 -20 -20 -20 -15 -10 -20 -13 -20 -20 -17 8 -11 -20 -8 -20 -20 -20 7 27 17 26 27 21 22 15 21 18 13 -20 -20 -20 -20 -17 -18 20
22 -18 -17 -18 26 7 2 -20 18 -5 -2 -20 -6 -20 -20 -3 -5 -20 -20 8 1 -8 17 -20 -13 17 31 28 20 5 14 29 25 23 16 1 -4 19 -20 -20 -20 -20 4 36 44
-2 25 23 -20 -7 -18 18 9 -0 -8 -20 12 6 -3 5 5 0 15 21 11 3 22 16 -6 -20 -6 5 -20 -8 11 23 26 31 11 19 2 14 -2 -5 -20 -11 19 28 41 44
26 26 -5 25 18 -4 7 19 6 3 -20 5 -4 -7 -20 11 7 5 22 22 7 -11 -14 -14 -20 -1 -8 23 19 20 21 17 5 21 19 -13 -9 -9 -5 6 5 4 2 -5 -8
24 16 -12 -17 25 29 18 21 4 6 -13 -0 -20 -20 4 -20 -17 7 8 17 -14 -13 7 15 -20 -20 -20 -15 16 -16 -11 16 13 18 5 -7 -2 -18 -19 -20 -20 -20 -20 -20 -20
32 21 3 -19 18 17 21 13 17 2 -15 -20 -17 -12 -20 -20 -20 -20 -20 -11 10 5 25 14 -17 -20 -19 -18 -20 -9 17 -20 0 -5 -19 -19 -3 -20 -5 -6 -20 -20 -20 -20 -20
29 18 6 -15 9 25 29 8 11 -17 -20 -20 -20 -20 -20 -20 -20 -20 10 25 28 31 -6 -11 14 -3 32 28 22 11 7 4 -13 4 8 -20 -20 -20 -20 5 7 13 -8 11 3
5 18 24 -7 20 27 25 11 -12 -9 -20 -20 -20 -20 -20 -20 -20 -20 -7 -10 -6 -15 -20 -20 -14 8 -15 9 -13 -20 -20 -20 -20 -20 -16 -20 -20 -20 -20 -20 -20 -20 -20 -1 -12
-20 26 36 29 30 25 21 20 -10 -1 -20 -20 -20 -20 -20 -20 -20 -20 -20 -19 -20 -20 -20 -20 -19 -18 -20 -20 -20 -20 -20 -20 -20 -20 -20 -20 -20 -20 -20 -20 -20 -20 -20 -20 -15
2 31 31 24 22 32 17 -12 19 18 -20 -20 -20 -20 -20 -20 -20 -20 -20 -20 -20 -20 -20 -20 -20 -18 -12 -14 -20 -20 -20 -20 -20 -20 -20 -20 -20 -20 -20 -20 -20 -20 -20 -20 -20
-19 6 21 26 26 1 -20 28 -3 -7 -20 -20 -20 -20 -20 -20 -20 -20 -20 -20 -20 -20 -20 -20 -20 -20 -20 -20 -20 -20 -20 -20 -20 -20 -20 -20 -20 -20 -20 -20 -20 -20 -20 -20 -20
-12 -1 0 19 -17 -20 -18 13 3 -5 -20 -20 -20 -20 -20 -20 -20 -20 -20 -20 -20 -20 -20 -20 -20 -20 -20 -20 -20 -20 -20 -20 -20 -20 -20 -20 -20 -20 -20 -20 -20 -20 -20 -20 -20
-20 -20 -20 -20 -20 -20 -20 -3 -1 -20 -20 -20 -20 -20 -20 -20 -20 -20 -20 -20 -20 -20 -20 -20 -20 -20 -20 -20 -20 -20 -20 -20 -20 -20 -20 -20 -20 -20 -20 -20 -20 -20 -20 -20 -20
-20 -20 -20 -20 -20 -20 -20 -20 -20 -20 -20 -20 -20 -20 -20 -20 -20 -20 -20 -20 -20 -20 -20 -20 -20 -20 -20 -20 -20 -20 -20 -20 -20 -20 -20 -20 -20 -20 -20 -20 -20 -20 -20 -20 -20

GFSSW_prec_radar_087.txt.gz
Reflectivity
-15 11 7 10 14 16 22 -12 2 -4 -14 -20 -20 -20 -20 -20 -20 -20 -20 -20 -20 -20 -20 -20 -20 -20 -20 -20 -20 -20 -5 -20 -20 -20 -20 -20 -20 -20 -20 -20 -20 -20 -12 -15 -10
13 17 8 -13 10 8 -10 30 -18 4 -20 -20 -20 -20 -20 -20 -20 -20 -20 -20 -20 -20 -20 -20 -20 -20 -20 -20 -20 -6 -18 -20 -20 -20 -20 -20 -20 -20 -20 -20 -20 -20 -20 -20 -3
11 -19 6 -19 -19 1 6 20 24 -7 11 -20 -20 -20 -20 -20 -20 -20 -20 -20 -20 -20 -20 -20 -20 -20 -20 -20 -20 -20 -20 -20 -20 -20 -20 -20 -20 -20 -20 -20 -20 -20 -20 -20 -5
15 -16 -19 -20 -20 -20 10 13 16 8 -18 -20 -20 -20 -20 -20 -20 -20 -20 -19 -17 -20 -20 -20 -20 -20 -20 -20 -20 -20 -20 -20 -20 -20 -20 -20 -20 -20 -20 -20 -20 -19 -20 -20 20
10 6 15 -18 -0 -17 -16 5 25 15 -8 -20 -20 -20 -20 -20 -20 -20 -20 -20 -20 -20 -20 -20 -20 -20 -20 -20 -20 -20 -20 -20 -20 -20 -20 -20 -20 -20 -20 -20 -20 12 -4 -20 -11
-16 7 -13 14 -20 9 14 8 12 17 -19 3 -20 -20 -20 -20 -20 -20 -20 -20 -20 -20 -20 -20 -20 -20 -20 -20 -20 -20 -20 -20 -20 -20 -20 -20 -20 -20 -20 -20 -20 -20 -13 -20 -20
-20 5 7 9 6 16 -10 29 25 17 14 3 -20 -20 -20 -20 -20 -20 -20 -20 -20 -20 -20 -20 -20 -20 -20 -20 -20 -20 -20 -20 -20 -20 -20 -20 -20 -20 -20 -20 -20 -20 -20 -20 -20
5 -20 10 0 -20 1 -17 33 2 14 19 20 -20 -20 -20 -20 -20 -20 -20 -20 -20 -20 -20 -20 -20 -20 -15 -20 -16 -1 -20 -20 -20 -20 -20 -20 -19 -20 -20 -20 -20 -20 -20 -20 -20
-20 -20 -12 -20 -18 -20 10 29 11 16 10 6 -6 -20 -20 -20 -20 -20 -20 -20 -20 -20 -20 -20 -5 5 -20 4 -3 8 5 -5 -20 -20 -20 -16 -17 -20 -20 -20 -20 -20 -20 -20 -20
-20 -20 -20 -19 -0 -2 29 -2 31 16 18 -6 -9 -5 -20 -20 -20 -20 -20 -20 -20 -20 6 4 -4 -13 5 11 -6 7 7 0 -1 -20 -20 -20 -20 -20 -20 -20 -20 -20 -20 -20 -20
-20 -20 -20 -16 16 31 22 -13 8 2 -18 -19 -20 -20 -20 -20 -20 -20 -20 -20 -20 0 4 -20 -4 5 -1 4 2 0 0 -5 -20 -20 18 -0 -20 -20 -20 -20 -20 -20 -20 -20 -20
-20 -20 -20 0 3 33 7 15 13 1 21 -19 -12 -20 -20 -20 -20 -20 -20 -19 -11 3 -16 -14 -0 -20 -4 2 -6 -1 0 0 -17 -20 -1 2 -20 -20 -20 -20 -17 -20 -11 25 -17
-20 -20 -20 2 15 30 24 22 5 -17 12 -10 6 -20 -20 -20 -20 -20 -20 -5 -20 -9 -20 3 -20 -20 -20 -15 -11 -2 11 2 12 16 -20 21 4 -20 -20 -20 24 -1 -20 -20 -10
-20 -20 -20 -20 20 29 35 14 25 21 18 -20 -7 -20 -20 -20 -14 -20 -20 -19 -13 -4 -17 -20 -20 -20 -20 3 24 14 20 13 16 21 17 -14 15 -20 -1 -20 -10 -20 -20 -20 -20
-20 -20 -20 -20 2 32 38 18 2 25 12 -2 -8 -20 -20 6 -20 -18 -20 1 0 10 12 -5 5 1 2 6 22 9 32 6 6 4 26 21 28 -20 -20 -13 -15 -20 -20 -20 -20
25 9 -20 6 -20 8 -20 1 -18 21 14 5 8 12 4 7 -8 -3 -18 1 11 18 0 -13 -20 -11 -20 -19 5 36 34 -4 6 20 19 25 10 24 25 19 -20 -20 -20 -1 -13
23 6 -18 15 6 21 -17 6 12 18 -16 1 -10 6 2 -3 -13 -11 15 26 14 -2 -8 -17 -20 -20 -7 28 4 24 37 18 15 30 10 5 39 -8 -15 -20 -20 -20 1 15 -4
26 -11 11 15 -20 10 -0 24 16 -11 10 -4 -20 2 0 -20 -1 14 19 18 -6 7 11 -11 9 -17 -20 11 15 9 18 27 21 15 10 23 26 21 -5 -3 -19 -20 -3 4 22
21 8 -0 6 12 12 16 22 12 13 4 -19 -5 -13 -18 -18 -8 -8 -18 2 10 -19 15 -5 1 -20 0 -12 9 6 18 21 22 1 18 33 14 18 23 -11 -4 14 14 15 16
12 25 8 -8 7 26 31 23 17 -0 -13 -20 -20 -20 -10 -5 2 -12 -4 -3 -20 -17 -20 -3 -4 12 -14 -11 -2 22 20 4 -2 13 8 -2 -20 3 27 5 16 27 -6 1 16
-15 6 22 13 21 26 27 27 14 11 5 -20 -20 -20 -14 -8 -9 -5 -9 7 7 1 -20 -20 8 18 20 8 10 1 -15 -20 -20 -20 8 -7 -17 -20 -16 27 25 12 18 2 6
-19 20 5 3 22 12 27 2 -7 1 -20 -20 -20 -20 -20 -17 -14 -1 -20 1 -20 -20 -20 -20 -5 -8 -18 -20 -20 -20 -20 -20 -19 -20 -20 -20 -14 -20 -20 12 -17 -2 30 26 30
3 23 14 7 6 14 -20 16 8 -15 -20 -1 -20 -20 -20 -20 -18 -20 -20 -20 -20 -20 -20 -20 -20 9 -20 -12 -20 -20 -20 -20 -20 -20 -20 -1 -20 -20 -20 -20 -20 1 -1 26 24
7 -0 -15 -3 -20 -0 3 8 -0 -20 -20 -20 -20 -20 -20 -20 -20 -20 -20 -20 -20 -20 -20 -20 -20 -20 -19 -20 -20 -20 -20 -20 -20 -20 -20 -20 -20 -20 -20 -20 -20 -20 -20 -20 -20
-17 -2 -7 9 -20 -20 -9 -20 -5 -7 -20 -20 -20 -20 -20 -20 -20 -20 -20 -20 -20 -20 -20 -20 -20 -20 -20 -20 -20 -20 -20 -20 -20 -20 -20 -20 -20 -20 -20 -20 -20 -20 -20 -20 -20
-20 -20 -20 -20 -20 -20 -20 -7 -20 -20 -20 -20 -20 -20 -20 -20 -20 -20 -20 -20 -20 -20 -20 -20 -20 -20 -20 -20 -20 -20 -20 -20 -20 -20 -20 -20 -20 -20 -20 -20 -20 -20 -20 -20 -20
-20 -20 -20 -20 -20 -13 -20 -20 -20 -20 -20 -20 -20 -20 -20 -20 -20 -20 -20 -20 -20 -20 -20 -20 -20 -20 -20 -20 -20 -20 -20 -20 -20 -20 -20 -20 -20 -20 -20 -20 -20 -20 -20 -20 -20

GFSSW_prec_radar_090.txt.gz
Reflectivity
5 4 11 14 -4 10 18 13 33 3 -0 -20 -20 -20 -20 -20 -20 -20 2 -20 -20 -20 -20 -20 -20 -20 -20 -20 -20 -20 -20 -20 -20 -20 -20 -20 -20 -20 -20 -20 -20 -20 -20 -20 -20
10 9 1 13 13 -15 14 -0 13 27 13 -20 -20 -20 -20 -20 -20 -20 -20 -20 -20 -20 -20 -20 -20 -20 -20 -20 -20 -20 -20 -20 -20 -20 -20 -20 -20 -20 -20 -20 -20 -20 -20 -20 -20
-20 13 11 1 6 -14 -18 16 0 20 12 15 -20 -20 -20 -20 -20 -20 -20 -20 -20 -20 -20 -20 -20 -20 -20 -20 -20 -20 -20 -20 -20 -20 -20 -20 -20 -20 -20 -20 -20 -20 -20 -20 -20
9 -20 -15 -19 11 -18 -19 2 8 28 28 -19 -20 -20 -20 -20 -20 -20 -20 -20 -20 -20 -20 -20 -20 -20 -20 -20 -20 -20 -20 -20 -20 -20 -20 -20 -20 -20 -20 -20 -20 -19 -10 -20 -20
-14 13 -4 16 -18 8 -1 7 -1 0 20 3 -12 -20 -20 -20 -20 -20 -20 -20 -20 -20 -20 -20 -20 -20 -20 -20 -20 -20 -20 -20 -20 -20 -20 -20 -20 -20 -20 -20 -20 -20 -20 -20 -20
4 2 0 -10 12 -7 -16 20 -5 23 23 15 16 -20 -20 -20 -20 -20 -20 -20 -20 -20 -20 -20 -20 -20 -20 -20 -20 -20 -20 -20 -20 -20 -20 -20 -20 -20 -20 -20 -20 -20 -20 -20 -20
-20 -13 -9 6 8 -5 -17 8 -14 30 16 10 4 -20 -20 -20 -20 -20 -20 -20 -20 -20 -20 -20 -20 -20 -20 -20 -20 -20 -20 -20 -20 -20 -20 -20 -20 -20 -20 -20 -20 -20 -20 -20 -20
13 -20 5 -11 -14 10 3 4 20 10 18 17 22 -20 -20 -20 -20 -20 -20 -20 -20 -20 -20 -20 -20 -20 -20 -20 -20 -20 -20 -20 -20 -20 -20 -20 -20 -20 -20 -20 -20 -20 -20 -20 -20
-5 -20 -11 -20 -13 -11 1 19 29 14 20 20 6 1 -20 -20 -20 -20 -20 -20 -20 -20 -20 -20 -20 -20 -20 -17 -19 -20 -20 -20 -20 -20 -20 -17 -20 -20 -20 -20 -20 -20 -20 -20 -20
14 -6 -20 -20 -8 26 16 17 27 27 7 -8 -10 -10 -20 -20 -20 -20 -20 -20 -20 -20 -20 -20 -12 -20 -20 -4 -17 -20 -7 -20 -18 -20 -20 -11 -20 -20 -20 -20 -20 -20 -20 -20 -20
21 3 -7 -20 6 20 24 18 -4 26 33 10 -20 -20 -20 -20 -20 -20 -20 -20 -20 -20 -20 -20 -20 -9 -20 -20 -20 -20 -9 -20 -20 -20 -20 -9 -20 -20 -20 -9 -19 -20 -20 -20 -20
-20 -20 -9 -20 10 14 28 40 -13 8 37 -16 -20 -20 -20 -20 -20 -20 -20 -16 -13 -5 -20 -17 -20 -20 -20 -20 -14 -20 6 -13 -19 -19 6 9 -20 -20 -20 -20 -20 -15 -20 -6 -20
-1 -20 9 -20 -17 8 24 11 21 -15 -12 -5 -20 -8 -20 -20 -20 -20 -20 -10 -20 -19 -20 -20 -20 -20 -20 -20 -15 -20 4 -16 -1 10 0 -5 -17 -20 -20 -20 -20 -19 2 -20 -20
-20 -20 1 -20 -8 21 32 36 20 -13 -18 1 -15 -12 -20 -20 -20 -20 -20 -9 -3 -10 -20 -20 -20 -20 -20 3 11 -12 5 12 5 18 6 14 -17 -20 -20 -20 -20 -20 -20 -20 -20
-20 -20 -20 -20 -12 17 28 31 28 11 -13 5 -13 -11 -20 -16 -20 -4 -18 8 -10 5 -18 -20 -13 -19 -20 -20 -8 5 8 7 13 12 5 1 12 -20 -10 15 -20 -20 -18 -19 -4
2 8 -20 -8 -10 13 32 4 18 4 6 14 2 -0 -13 2 7 9 -8 -19 -16 -12 -12 -20 -20 -15 -20 -19 15 39 11 -4 2 13 24 16 7 -20 -20 -20 6 -20 -18 -6 -20
33 16 -19 -17 7 23 -16 -13 7 1 -7 -14 -5 -1 -14 -19 -1 -15 11 -2 -6 -16 -20 -20 -20 -20 -20 -13 -10 31 34 24 12 13 25 22 29 33 -4 -20 -10 15 4 13 -17
10 -20 -20 -20 -20 10 -12 -20 15 28 -5 -20 -18 -20 2 -20 -10 -13 13 -17 -12 -6 7 -19 -3 -19 -20 -2 -8 -20 14 16 21 14 16 30 19 26 -11 -20 -20 5 -1 -20 -20
-20 -20 -6 3 -20 -20 -19 -1 5 27 -13 -17 -10 -20 -20 -1 -14 -20 -4 -17 -12 -20 8 -7 -20 -20 -20 -18 -11 11 23 20 27 18 23 32 36 37 25 1 8 20 -20 -13 4
-20 -12 -4 -19 -18 -20 -15 5 25 19 -12 -6 -14 -19 -20 -20 -20 -12 -4 -20 -20 -20 -20 3 -12 -20 -16 9 3 19 -20 -19 -6 15 5 20 -3 27 28 27 30 25 4 5 16
-20 -4 17 -18 -15 -5 20 24 15 6 11 10 -20 -20 -20 -20 -20 -8 -20 -20 -20 -11 -14 -16 28 -19 -8 7 -1 -20 -18 -8 -7 -13 -11 -12 12 32 27 31 23 11 11 28 -11
-19 4 4 -18 -19 21 4 -20 -20 -20 -20 -20 -20 -20 -20 -17 -4 -20 -20 -20 -20 -20 -20 -20 -20 -18 8 -20 -20 -20 -20 -20 -20 -20 -20 -15 9 28 19 17 27 32 17 26 25
-16 5 -20 10 -1 7 -3 -20 -20 -4 -20 -20 -20 -20 -20 -20 -20 -20 -20 -20 -20 -20 -20 -20 -20 -20 -20 -20 -20 -20 -20 -20 -20 -20 -20 -20 -20 -20 -20 -9 25 31 30 30 32
-19 -15 -17 -12 -20 -13 -17 -15 -20 -20 -20 -20 -20 -20 -20 -20 -20 -20 -20 -20 -20 -20 -20 -20 -20 -20 -20 -20 -20 -20 -20 -20 -20 -20 -20 -20 -20 -20 -20 -20 -20 -20 -20 -20 -16
-20 -18 -14 -20 -20 -20 -20 -20 -20 -20 -20 -20 -20 -20 -20 -20 -20 -20 -20 -20 -20 -20 -20 -20 -20 -20 -20 -20 -20 -20 -20 -20 -20 -20 -20 -20 -20 -20 -20 -20 -20 -20 -20 -20 -20
-20 -20 -20 -20 -20 -20 -20 -20 -20 -20 -20 -20 -20 -20 -20 -20 -20 -20 -20 -20 -20 -20 -20 -20 -20 -20 -20 -20 -20 -20 -20 -20 -20 -20 -20 -20 -20 -20 -20 -20 -20 -20 -20 -20 -20
-20 -20 -20 -20 -20 -20 -20 -20 -20 -20 -20 -20 -20 -20 -20 -20 -20 -20 -20 -20 -20 -20 -20 -20 -20 -20 -20 -20 -20 -20 -20 -20 -20 -20 -20 -20 -20 -20 -20 -20 -20 -20 -20 -20 -20

GFSSW_prec_radar_093.txt.gz
Reflectivity
8 -20 10 7 -0 10 -10 12 -19 22 18 0 -20 -20 -20 -20 -20 -20 -20 -20 -20 -20 -20 -20 -20 -20 -20 -20 -20 -20 -20 -20 -20 -20 -20 -20 -20 -20 -20 -20 -20 -20 -20 -20 -20
10 -20 -20 -12 7 10 -17 -2 6 -14 24 27 -18 -20 -20 -20 -20 -20 -20 -20 -20 -20 -20 -20 -20 -20 -20 -20 -20 -20 -20 -20 -20 -20 -20 -20 -20 -20 -20 -20 -20 -20 -20 -20 -20
-20 -20 3 10 2 -18 4 -20 -20 12 27 9 -8 -20 -20 -20 -20 -20 -20 -20 -20 -20 -20 -20 -20 -20 -20 -20 -20 -20 -20 -20 -20 -20 -20 -20 -20 -20 -20 -20 -20 -20 -20 -20 -20
-10 8 -17 -8 -17 -20 -20 -20 -9 3 16 26 5 -20 -20 -20 -20 -20 -20 -20 -20 -20 -20 -20 -20 -20 -20 -20 -20 -20 -20 -20 -20 -20 -20 -20 -20 -20 -20 -20 -20 -20 -20 -20 -20
5 -1 6 -15 -16 7 -13 -20 2 -2 22 17 32 5 -20 -20 -20 -20 -20 -20 -20 -20 -20 -20 -20 -20 -20 -20 -20 -20 -20 -20 -20 -20 -20 -20 -20 -20 -20 -20 -20 -20 -20 -20 -20
20 6 -11 -9 0 -7 -20 -20 -20 -1 5 24 -14 2 -19 -20 -20 -20 -20 -20 -20 -20 -20 -20 -20 -20 -20 -20 -20 -20 -20 -20 -20 -20 -20 -20 -20 -20 -20 -20 -20 -20 -20 -20 -20
-11 -12 17 7 -18 0 5 11 -11 -17 26 7 28 -0 -20 -20 -20 -20 -20 -20 -20 -20 -20 -20 -20 -20 -20 -20 -20 -20 -20 -20 -20 -20 -20 -20 -20 -20 -20 -20 -20 -20 -20 -20 -20
21 -6 -15 -20 -20 7 -1 -6 -10 -10 28 14 28 -10 -15 -20 -20 -20 -20 -20 -20 -20 -20 -20 -20 -20 -20 -20 -20 -20 -20 -20 -20 -20 -20 -14 -20 -20 -20 -20 -20 -20 -20 -20 -20
19 -20 -6 -20 -14 -10 5 -6 3 22 21 14 10 -13 -7 -20 -20 -20 -20 -20 -20 -20 -20 -20 -20 -20 -20 -20 -20 -20 -20 -20 -20 -20 -20 -20 -20 -20 -20 -20 -20 -20 -20 -20 -20
21 2 5 -20 -11 18 31 26 35 22 25 17 -18 23 -16 -20 -20 -20 -20 -20 -20 -20 -20 -20 -20 -20 -20 -20 -20 -20 -20 -20 -20 -20 -20 -20 -20 -20 -20 -20 -20 -20 -20 -20 -20
19 1 10 -20 -20 19 33 17 13 27 17 18 31 -20 2 -19 -20 -20 -20 -20 -20 -20 -20 -20 -20 -20 -20 -20 -20 -20 -20 -20 -20 -20 -10 -20 -20 -20 -20 -20 -20 -20 -20 -20 -20
-2 11 -20 -20 -20 29 27 27 15 37 34 -20 -20 -20 -20 -20 -20 -20 -20 -20 -20 -19 -20 -20 -20 -20 -20 -20 -20 -20 -14 -20 -20 -14 -11 -20 -20 -20 -20 -20 -20 -20 -20 -20 -20
-16 2 -20 -20 -16 26 23 33 18 27 31 34 12 -20 -20 -20 -20 -20 -20 -20 -11 -9 -20 -20 -20 -20 -20 -20 -20 -20 -20 -20 -12 -12 -2 -10 -20 -20 -20 -20 -20 -20 -20 -20 4
-20 -20 -20 -20 -20 5 25 30 15 17 24 28 26 -10 -20 -20 -18 -6 -20 -20 0 -20 -20 -20 -20 -20 -20 -20 -20 -18 -20 -19 19 23 -20 -17 -13 -20 -20 -20 -20 -16 -20 -20 -20
-20 -20 -20 -20 -20 -2 10 30 27 -20 1 1 -1 -7 -20 -20 -20 0 -20 8 -10 -20 -20 -20 -20 -20 -20 -20 -20 -17 3 26 22 -19 -14 -20 1 -20 -20 -20 -20 -20 -5 8 28
-1 -20 -20 -20 -20 -1 1 -17 1 -20 -3 15 -0 -20 -20 -20 -8 -17 5 -20 -20 -15 -10 -20 -20 -20 -20 -20 -20 -20 12 32 18 8 -13 -15 -20 -20 -20 -20 -20 -20 -20 11 -20
-20 -20 -17 -5 -20 -16 -3 -16 -20 -20 20 -20 -10 -14 -20 -7 -14 -16 -8 -13 -17 -20 -20 -20 -20 -20 -20 -20 -20 -20 19 13 14 14 3 26 -6 -20 -20 11 -11 -4 -20 -20 -20
-17 -20 -6 -20 -20 -11 18 8 -9 14 -16 -20 -18 -20 -14 -20 -12 6 11 -18 -12 -12 -20 -8 -20 -20 -20 -20 -20 -7 32 20 14 23 18 27 24 24 9 -7 16 22 14 -2 -20
-20 -20 -19 -20 -20 0 -19 -20 -13 -12 -20 -20 -19 -11 -16 -16 -10 -20 8 -20 1 -20 -20 -19 -20 -20 -20 -20 -20 -12 15 14 16 34 -17 7 30 7 -6 10 -18 7 -20 -10 -15
-20 -20 -19 -20 -20 -20 -20 21 -3 -20 -20 -20 -20 -20 -20 -20 -20 -18 -20 -20 -20 -20 -20 -20 -13 -20 -20 -10 -2 -5 5 -20 -3 8 15 16 10 20 37 32 30 9 6 14 13
4 -5 -20 -20 -20 -20 -20 -18 -20 -19 -20 -4 -20 -20 -20 -20 -20 -20 -20 -20 -20 -20 -20 -1 18 -20 -20 -20 -20 -20 -20 -20 -20 -20 -20 -19 16 35 37 35 31 31 21 23 27
1 -20 -20 -20 -20 -20 -20 -20 -20 -20 -20 -20 -20 -20 -20 -20 -20 -20 -20 -20 -20 -20 -20 -20 -20 -20 -20 -20 -20 -20 -20 -20 -20 -20 -20 -20 19 37 32 33 31 30 37 33 36
-20 -20 -20 -20 -20 -18 -10 -20 -20 -20 -20 -20 -20 -20 -20 -20 -20 -20 -20 -20 -20 -20 -20 -20 -20 -20 -20 -20 -20 -20 -20 -20 -20 -20 -20 -20 -20 20 11 18 29 30 21 21 28
-20 -20 -20 -20 -20 -20 -20 -20 -20 -20 -20 -20 -20 -20 -20 -20 -20 -20 -20 -20 -20 -20 -20 -20 -20 -20 -20 -20 -20 -20 -20 -20 -20 -20 -20 -20 -20 -20 -20 -20 -20 -20 -17 -13 -12
-20 -20 -20 -20 -20 -20 -20 -20 -20 -20 -20 -20 -20 -20 -20 -20 -20 -20 -20 -20 -20 -20 -20 -20 -20 -20 -20 -20 -20 -20 -20 -20 -20 -20 -20 -20 -20 -20 -20 -20 -20 -20 -20 -20 -20
-20 -20 -20 -20 -20 -20 -20 -20 -20 -20 -20 -20 -20 -20 -20 -20 -20 -20 -20 -20 -20 -20 -20 -20 -20 -20 -20 -20 -20 -20 -20 -20 -20 -20 -20 -20 -20 -20 -20 -20 -20 -20 -20 -20 -20
-20 -20 -20 -20 -20 -20 -20 -20 -20 -20 -20 -20 -20 -20 -20 -20 -20 -20 -20 -20 -20 -20 -20 -20 -20 -20 -20 -20 -20 -20 -20 -20 -20 -20 -20 -20 -20 -20 -20 -20 -20 -20 -20 -20 -20

GFSSW_prec_radar_096.txt.gz
Reflectivity
-6 9 -8 11 13 14 4 -6 -8 2 23 22 -5 -20 -20 -20 -20 -20 -20 -20 -20 -20 -20 -20 -20 -20 -20 -20 -20 -20 -20 -20 -20 -20 -20 -20 -20 -20 -20 -20 -20 -20 -20 -20 -20
9 14 11 20 16 -7 11 14 10 9 -7 20 24 -9 -20 -20 -20 -20 -20 -20 -20 -20 -20 -20 -20 -20 -20 -20 -20 -20 -20 -20 -20 -20 -20 -20 -20 -20 -20 -20 -20 -20 -20 -20 -20
17 5 10 25 18 3 -20 -19 -13 7 -16 22 27 -18 -20 -20 -20 -20 -20 -20 -20 -20 -20 -20 -20 -20 -20 -20 -20 -20 -20 -20 -20 -20 -20 -20 -20 -20 -20 -20 -20 -20 -20 -20 -20
19 5 -1 9 16 13 14 -1 -20 -20 15 6 26 10 -20 -20 -20 -20 -20 -20 -20 -20 -20 -20 -20 -20 -20 -20 -20 -20 -20 -20 -20 -20 -20 -20 -20 -20 -20 -20 -20 -20 -20 -20 -20
-20 -9 23 -12 3 9 15 16 11 -20 -1 28 18 25 -20 -20 -20 -20 -20 -20 -20 -20 -20 -20 -20 -20 -20 -20 -20 -20 -20 -20 -20 -20 -20 -20 -20 -20 -20 -20 -20 -20 -20 -20 -20
21 -8 -5 -19 -8 -3 2 11 11 -14 -6 24 0 12 -7 -20 -20 -20 -20 -20 -20 -20 -20 -20 -20 -20 -20 -20 -20 -20 -20 -20 -20 -20 -20 -20 -20 -20 -20 -20 -20 -20 -20 -20 -20
24 -19 24 -20 -20 -19 -12 9 15 8 -1 29 16 -6 16 -3 -20 -20 -20 -20 -20 -20 -20 -20 -20 -20 -20 -20 -20 -20 -20 -20 -20 -20 -20 -20 -20 -20 -20 -20 -20 -20 -20 -20 -20
-8 13 -20 -1 -20 -20 -20 -16 8 4 12 33 17 4 -19 -20 -20 -20 -20 -20 -20 -20 -20 -20 -20 -20 -20 -20 -20 -20 -20 -20 -20 -20 -20 -20 -20 -20 -20 -20 -20 -20 -20 -20 -20
-20 27 8 -20 -20 -20 -15 -20 -15 -5 23 17 -11 1 -1 -20 -20 -20 -20 -20 -20 -20 -20 -20 -20 -20 -20 -20 -20 -20 -20 -20 -20 -20 -20 -20 -20 -20 -20 -20 -20 -20 -20 -20 -20
-9 1 -20 -20 -20 7 22 21 14 31 26 27 11 29 -3 -11 -20 -20 -20 -20 -20 -20 -20 -20 -20 -20 -20 -20 -20 -20 -20 -20 -20 -20 -20 -20 -20 -20 -20 -20 -20 -20 -20 -20 -20
-1 -20 -20 -20 -20 -2 33 28 27 19 22 16 7 -16 23 -20 -20 -20 -20 -20 -20 -20 -20 -20 -20 -20 -20 -20 -20 -20 -20 -20 -20 -20 -20 -20 -20 -20 -20 -20 -20 -20 -20 -20 -20
-20 -20 -20 -20 7 27 32 37 29 18 33 18 -0 -20 8 -10 -20 -20 -20 -20 -20 -20 -20 -20 -20 -20 -20 -20 -20 -20 -20 -20 -20 -20 -20 -20 -20 -20 -20 -20 -20 -20 -20 -20 -20
-20 -20 -20 -20 -10 32 16 37 28 29 29 31 28 5 -20 -20 -20 -20 -20 -20 -20 -20 -20 -20 -20 -20 -20 -20 -20 -20 -20 -20 -20 -20 7 -14 -20 -20 -20 -20 -20 -20 -20 -20 -20
-20 -20 -20 -10 22 29 33 37 36 33 26 29 -2 -15 -20 -20 -11 -20 -20 -17 -9 -20 -20 -20 -20 -20 -20 -20 -20 -20 -20 -20 -20 8 -14 -18 -20 -20 -20 -20 -20 -20 -20 -20 -20
-20 -20 -20 6 -3 15 20 33 22 14 3 31 2 -20 -20 -18 -20 2 -20 2 -19 1 -18 -20 -20 -20 -20 -20 -20 -20 -20 -20 9 16 -3 -5 -1 -20 -20 -20 -20 -20 -20 -20 -20
-20 -20 -20 -20 -16 -3 10 28 12 -18 3 10 -10 -20 5 -9 -19 -5 -19 -20 -20 -20 -20 -20 -20 -20 -20 -20 -20 -20 -20 -12 3 3 -20 -4 -20 -20 -20 -1 -13 -19 12 -20 19
-20 -20 -20 -19 -20 -19 -17 -5 -20 -20 6 -20 -7 -20 -19 -10 -20 -20 -20 -20 -20 -20 -20 -20 -20 -20 -20 -20 -20 -20 -13 -13 -20 -9 -20 22 -18 -20 -20 1 -16 -20 -12 -15 1
-20 -20 -20 -20 -20 -20 -20 -20 -19 7 -19 -20 -20 -20 -15 -17 6 -9 -12 -16 -20 10 -20 -20 -20 -20 -20 -20 -20 -20 30 17 5 8 -3 -9 -1 -1 6 12 16 -14 -20 -16 22
-20 -20 -20 -20 -20 -20 -20 -20 -20 -20 -20 -20 -14 -17 -18 -20 -1 -2 -20 -20 -9 -20 -20 -18 -20 -20 -20 -20 -20 -3 9 12 4 17 -2 -19 17 16 1 -16 4 15 -20 -20 -2
-20 -20 -20 -20 -20 -20 -20 -2 -20 -20 -20 -20 -20 -20 -20 -20 -16 -9 -20 -20 -20 -20 -20 -20 -14 -20 -20 -20 -20 -11 1 2 -0 -13 12 17 -6 1 5 15 9 20 17 7 8
-20 -20 -20 -20 -20 -20 -20 -20 -20 -20 -20 -20 -20 -20 -20 -20 -20 -20 -20 -20 -20 -20 -20 -20 -3 -20 -20 -20 -20 -20 -20 -20 -14 -20 -20 -13 14 31 30 32 32 29 33 32 33
-20 -20 -20 -20 -20 -20 -20 -20 -20 -20 -20 -20 -20 -20 -20 -20 -20 -20 -20 -20 -20 -20 -20 -20 -20 -20 -20 -20 -20 -20 -20 -20 -20 -20 -20 -20 18 32 30 29 34 36 40 37 36
-20 -20 -20 -20 -20 -20 -20 -20 -20 -20 -20 -20 -20 -20 -20 -20 -20 -20 -20 -20 -20 -20 -20 -20 -20 -20 -20 -20 -20 -20 -20 -20 -20 -20 -20 -20 -20 -16 19 28 31 30 27 30 31
-20 -20 -20 -20 -20 -20 -20 -20 -20 -20 -20 -20 -20 -20 -20 -20 -20 -20 -20 -20 -20 -20 -20 -20 -20 -20 -20 -20 -20 -20 -20 -20 -20 -20 -20 -20 -20 -20 -20 -20 -17 -13 -2 -3 -15
-20 -20 -20 -20 -20 -20 -20 -20 -20 -20 -20 -20 -20 -20 -20 -20 -20 -20 -20 -20 -20 -20 -20 -20 -20 -20 -20 -20 -20 -20 -20 -20 -20 -20 -20 -20 -20 -20 -20 -20 -20 -20 -20 -20 -20
-20 -20 -20 -20 -20 -20 -20 -20 -20 -20 -20 -20 -20 -20 -20 -20 -20 -20 -20 -20 -20 -20 -20 -20 -20 -20 -20 -20 -20 -20 -20 -20 -20 -20 -20 -20 -20 -20 -20 -20 -20 -20 -20 -20 -20
-20 -20 -20 -20 -20 -20 -20 -20 -20 -20 -20 -20 -20 -20 -20 -20 -20 -20 -20 -20 -20 -20 -20 -20 -20 -20 -20 -20 -20 -20 -20 -20 -20 -20 -20 -20 -20 -20 -20 -20 -20 -20 -20 -20 -20

GFSSW_prec_radar_099.txt.gz
Reflectivity
-15 -20 1 16 -1 16 -10 -7 15 8 23 29 9 -20 -20 -20 -20 -20 -20 -20 -20 -20 -20 -20 -20 -20 -20 -20 -20 -20 -20 -20 -20 -20 -20 -20 -20 -20 -20 -20 -20 -20 -20 -20 -20
9 2 -3 10 28 15 1 -5 -3 11 17 -7 32 17 -20 -20 -20 -20 -20 -20 -20 -20 -20 -20 -20 -20 -20 -20 -20 -20 -20 -20 -20 -20 -20 -20 -20 -20 -20 -20 -20 -20 -20 -20 -20
-16 -18 8 -12 11 27 15 8 -4 2 2 -20 39 17 10 -20 -20 -20 -20 -20 -20 -20 -20 -20 -20 -20 -20 -20 -20 -20 -20 -20 -20 -20 -20 -20 -20 -20 -20 -20 -20 -20 -20 -20 -20
-4 27 -1 4 -19 6 8 16 12 8 2 3 3 25 23 -20 -20 -20 -20 -20 -20 -20 -20 -20 -20 -20 -20 -20 -20 -20 -20 -20 -20 -20 -20 -20 -20 -20 -20 -20 -20 -20 -20 -20 -20
-18 26 24 -1 -20 -13 8 15 15 18 6 15 22 24 25 -12 -20 -20 -20 -20 -20 -20 -20 -20 -20 -20 -20 -20 -20 -20 -20 -20 -20 -20 -20 -20 -20 -20 -20 -20 -20 -20 -20 -20 -20
8 24 22 21 -15 -20 5 14 20 19 8 10 36 23 26 16 -16 -20 -20 -20 -20 -20 -20 -20 -20 -20 -20 -20 -20 -20 -20 -20 -20 -20 -20 -20 -20 -20 -20 -20 -20 -20 -20 -20 -20
-20 24 -9 -20 -20 -11 3 11 14 21 16 20 29 25 37 15 -20 -20 -20 -20 -20 -20 -20 -20 -20 -20 -20 -20 -20 -20 -20 -20 -20 -20 -20 -20 -20 -20 -20 -20 -20 -20 -20 -20 -20
-10 -20 -20 -20 -20 -20 -20 6 7 11 17 22 19 11 1 22 -20 -20 -20 -20 -20 -20 -20 -20 -20 -20 -20 -20 -20 -20 -20 -20 -20 -20 -20 -20 -20 -20 -20 -20 -20 -20 -20 -20 -20
-20 -20 -16 22 -20 -10 -14 -19 6 5 14 36 19 29 -17 27 -16 -20 -20 -20 -20 -20 -20 -20 -20 -20 -20 -20 -20 -20 -20 -20 -20 -20 -20 -20 -20 -20 -20 -20 -20 -20 -20 -20 -20
-20 -20 -20 -20 -20 1 6 21 4 2 31 39 34 32 -13 -19 -18 -20 -20 -20 -20 -20 -20 -20 -20 -20 -20 -20 -20 -20 -20 -20 -20 -20 -20 -20 -20 -20 -20 -20 -20 -20 -20 -20 -20
-20 -20 -20 -20 -20 25 16 20 20 21 17 16 0 -4 -3 6 -20 -20 -20 -20 -20 -20 -20 -20 -20 -20 -20 -20 -20 -20 -20 -20 -20 -20 -20 -20 -20 -20 -20 -20 -20 -20 -20 -20 -20
-20 -20 -19 3 12 27 21 5 15 29 15 23 8 29 1 -20 -20 -20 -20 -20 -20 -20 -20 -20 -20 -20 -20 -20 -20 -20 -20 -20 -20 -20 -20 -20 -20 -20 -20 -20 -20 -20 -20 -20 -20
-20 -20 -20 -20 -2 30 35 14 33 28 32 35 23 15 14 -20 -20 -20 -20 -20 -20 -20 -20 -20 -20 -20 -20 -20 -20 -20 -20 -20 -20 -20 -20 -20 -20 -20 -20 -20 -20 -20 -20 -20 -20
-20 -20 -14 -4 8 18 36 37 26 22 22 22 -18 -0 -18 -20 -20 -20 -20 -20 -15 -20 -14 -20 -20 -20 -20 -20 -20 -20 -20 -20 -20 2 -20 -8 -15 -20 -20 -20 -20 -20 -20 -20 -20
-20 -17 5 -3 17 25 34 30 11 25 7 25 -2 -20 -20 -20 -20 2 -20 -12 -3 -14 -20 -20 -20 -20 -20 -20 -20 -20 -20 -20 -18 6 11 -20 -20 -20 -20 -19 -19 -20 -20 -20 -20
-20 -20 -20 -17 -4 16 25 12 7 -0 -8 19 -19 -20 -20 -20 -12 -3 -19 -20 -20 -20 -20 -20 -20 -20 -20 -20 -20 -20 -20 -20 -15 3 -20 -20 -20 -20 -18 -0 6 16 -20 -15 6
-20 -20 -20 -20 -20 -15 -16 -20 -19 -17 -8 -20 -20 -20 -13 -15 -20 3 -9 -20 -16 -20 -20 -20 -20 -20 -20 -20 -20 -20 -20 -20 -20 -20 -20 -13 -20 -20 -15 -18 22 31 14 -4 20
-20 -20 -20 -20 -20 -20 -20 -20 -20 6 9 -17 -20 -20 -18 3 -19 -13 -20 -20 -20 -6 -20 -20 -20 -20 -20 -20 -20 -20 -17 -3 -10 -20 -20 8 0 -16 -17 -9 16 17 3 -4 16
-20 -20 -20 -20 -20 -20 -20 -20 -20 -20 -20 -20 2 -20 -20 -9 -20 -20 -20 -20 -19 -19 -20 -20 -20 -20 -20 -20 -20 -20 -19 -14 6 -20 3 -8 13 -7 5 -1 19 12 18 15 8
-20 -20 -20 -20 -20 -20 -20 -9 -20 -20 -20 -20 -20 -20 -20 -18 -17 -18 -20 -20 -20 -20 -20 -20 -20 -20 -20 -20 -20 -20 -20 -12 -3 -9 -18 -20 -4 7 -8 -8 11 17 24 11 15
-20 -20 -20 -20 -20 -20 -20 -20 -20 -20 -20 -20 -20 -20 -20 -20 -20 -20 -20 -20 -20 -20 -20 -20 -17 -20 -20 -20 -20 -20 -20 -20 -16 -20 -18 -19 5 28 22 26 15 22 34 33 28
-20 -20 -20 -20 -20 -20 -20 -20 -20 -20 -20 -20 -20 -20 -20 -20 -20 -20 -20 -20 -20 -20 -20 -20 -20 -20 -20 -20 -20 -20 -20 -20 -20 -20 -20 -19 2 21 6 23 26 33 34 36 35
-20 -20 -20 -20 -20 -20 -20 -20 -20 -20 -20 -20 -20 -20 -20 -20 -20 -20 -20 -20 -20 -20 -20 -20 -20 -20 -20 -20 -20 -20 -20 -20 -20 -20 -20 -20 -20 -20 -0 18 23 26 30 28 31
-20 -20 -20 -20 -20 -20 -20 -20 -20 -20 -20 -20 -20 -20 -20 -20 -20 -20 -20 -20 -20 -20 -20 -20 -20 -20 -20 -20 -20 -20 -20 -20 -20 -20 -20 -20 -20 -20 -20 -20 -16 -10 -15 -19 -14
-20 -20 -20 -20 -20 -20 -20 -20 -20 -20 -20 -20 -20 -20 -20 -20 -20 -20 -20 -20 -20 -20 -20 -20 -20 -20 -20 -20 -20 -20 -20 -20 -20 -20 -20 -20 -20 -20 -20 -20 -20 -20 -20 -20 -20
-20 -20 -20 -20 -20 -20 -20 -20 -20 -20 -20 -20 -20 -20 -20 -20 -20 -20 -20 -20 -20 -20 -20 -20 -20 -20 -20 -20 -20 -20 -20 -20 -20 -20 -20 -20 -20 -20 -20 -20 -20 -20 -20 -20 -20
-20 -20 -20 -20 -20 -20 -20 -20 -20 -20 -20 -20 -20 -20 -20 -20 -20 -20 -20 -20 -20 -20 -20 -20 -20 -20 -20 -20 -20 -20 -20 -20 -20 -20 -20 -20 -20 -20 -20 -20 -20 -20 -20 -20 -20

GFSSW_prec_radar_102.txt.gz
Reflectivity
25 -20 7 -20 -20 -10 10 -5 -18 -0 30 34 31 -13 -20 -20 -20 -20 -20 -20 -20 -20 -20 -20 -20 -20 -20 -20 -20 -20 -20 -20 -20 -20 -20 -20 -20 -20 -20 -20 -20 -20 -20 -20 -20
-15 26 -7 -20 -20 -20 -20 13 7 -13 -13 10 36 -14 -20 -20 -20 -20 -20 -20 -20 -20 -20 -20 -20 -20 -20 -20 -20 -20 -20 -20 -20 -20 -20 -20 -20 -20 -20 -20 -20 -20 -20 -20 -20
-14 -1 27 19 -20 -20 8 -19 10 8 -8 3 33 37 10 -20 -20 -20 -20 -20 -20 -20 -20 -20 -20 -20 -20 -20 -20 -20 -20 -20 -20 -20 -20 -20 -20 -20 -20 -20 -20 -20 -20 -20 -20
21 -1 26 20 13 -20 -20 7 -3 12 4 9 34 32 22 23 -20 -20 -20 -20 -20 -20 -20 -20 -20 -20 -20 -20 -20 -20 -20 -20 -20 -20 -20 -20 -20 -20 -20 -20 -20 -20 -20 -20 -20
-17 -15 22 32 24 -20 -20 7 -20 1 4 10 30 24 29 22 -20 -20 -20 -20 -20 -20 -20 -20 -20 -20 -20 -20 -20 -20 -20 -20 -20 -20 -20 -20 -20 -20 -20 -20 -20 -20 -20 -20 -20
6 16 23 33 23 -1 -20 -20 -17 -15 6 9 24 17 30 30 2 -20 -20 -20 -20 -20 -20 -20 -20 -20 -20 -20 -20 -20 -20 -20 -20 -20 -20 -20 -20 -20 -20 -20 -20 -20 -20 -20 -20
3 7 8 29 24 -20 -20 -20 -14 11 1 5 25 12 -5 30 12 -20 -20 -20 -20 -20 -20 -20 -20 -20 -20 -20 -20 -20 -20 -20 -20 -20 -20 -20 -20 -20 -20 -20 -20 -20 -20 -20 -20
-20 -0 -14 20 -11 -20 -20 7 -13 13 1 22 19 34 26 28 -11 -20 -20 -20 -20 -20 -20 -20 -20 -20 -20 -20 -20 -20 -20 -20 -20 -20 -20 -20 -20 -20 -20 -20 -20 -20 -20 -20 -20
-10 -3 8 -20 -20 -20 -20 19 -18 9 -2 23 17 38 29 24 -13 -20 -20 -20 -20 -20 -20 -20 -20 -20 -20 -20 -20 -20 -20 -20 -20 -20 -20 -20 -20 -20 -20 -20 -20 -20 -20 -20 -20
14 5 8 -20 -20 -4 -16 26 10 6 22 32 23 30 15 3 -9 -20 -20 -20 -20 -20 -20 -20 -20 -20 -20 -20 -20 -20 -20 -20 -20 -20 -20 -20 -20 -20 -20 -20 -20 -20 -20 -20 -20
-6 11 12 -18 -20 -12 12 8 6 30 21 25 14 27 4 -6 -16 -20 -20 -20 -20 -20 -20 -20 -20 -20 -20 -20 -20 -20 -20 -20 -20 -20 -20 -20 -20 -20 -20 -20 -20 -20 -20 -20 -20
-20 -20 16 -20 -20 14 3 12 25 32 38 39 32 25 -18 -20 -20 -20 -20 -20 -20 -20 -20 -20 -20 -20 -20 -20 -20 -20 -20 -20 -20 -20 -20 -20 -20 -20 -20 -20 -20 -20 -20 -20 -20
-20 -20 -0 -19 -19 23 15 17 25 23 24 26 22 10 -19 -20 -20 -20 -20 -20 -20 -20 -20 -20 -20 -20 -20 -20 -20 -20 -20 -20 -20 -20 -20 -17 -20 -20 -20 -20 -20 -20 -20 -20 -20
-20 -20 13 -18 -20 5 4 30 27 27 8 29 15 13 -20 -20 -20 -20 -20 -20 -20 -20 -20 -20 -20 -20 -20 -20 -20 -20 -20 -20 -20 -17 -17 7 -16 -20 -20 -20 -20 -20 -20 -20 -20
-20 -13 -15 -19 0 24 8 18 10 11 -5 27 -2 -19 -20 -20 -20 -20 -20 -1 -12 -20 -20 -20 -20 -20 -20 -20 -20 -20 -20 -20 -15 2 9 -20 -20 -20 -20 -20 -20 28 -16 -1 -19
-20 -20 -20 -20 -16 11 -12 18 -2 -17 -8 -4 -19 -20 -20 -20 -20 0 -5 -19 -20 -20 -20 -20 -20 -20 -20 -20 -20 -20 -20 -20 -13 3 -20 -20 -20 -18 -11 -1 -10 27 3 13 3
-20 -20 -20 -20 -20 -19 -20 -20 -20 -20 -16 -20 -20 -20 -20 -20 -20 3 -20 -20 -20 -20 -20 -20 -20 -20 -20 -20 -20 -20 -18 -20 -20 -20 -20 -20 -20 -20 -4 -20 10 26 8 5 15
-20 -20 -20 -20 -20 -20 -20 -20 -20 -14 -5 -20 -20 -20 -20 -20 -20 -20 -20 -20 -20 -20 -20 -20 -20 -20 -20 -20 -20 -20 -4 -20 -17 -20 -20 -20 -20 -4 12 -3 10 18 14 8 13
-20 -20 -20 -20 -20 -20 -20 -20 -20 -20 -20 -20 -20 -20 -20 -20 -20 -20 -20 -20 -20 -20 -20 -19 -20 -20 -20 -20 -20 -20 -9 -5 -2 -20 -20 -20 -20 -20 20 9 14 18 26 15 17
-20 -20 -20 -20 -20 -20 -20 -10 -20 -20 -20 -20 -20 -20 -20 -20 -20 -20 -20 -20 -20 -20 -20 -20 -10 -20 -20 -20 -20 -20 -20 -20 -20 -20 -20 -20 -20 -14 -13 15 24 25 32 27 25
-20 -20 -20 -20 -20 -20 -20 -20 -20 -20 -20 -20 -20 -20 -20 -20 -20 -20 -20 -20 -20 -20 -20 -18 -13 -20 -20 -20 -20 -20 -20 -20 -14 -20 -20 -20 -20 9 18 12 24 23 25 34 33
-20 -20 -20 -20 -20 -20 -20 -20 -20 -20 -20 -20 -20 -20 -20 -20 -20 -20 -20 -20 -20 -20 -20 -20 -20 -20 -20 -20 -20 -20 -20 -20 -20 -20 -20 -20 -20 -20 -2 4 7 22 28 30 30
-20 -20 -20 -20 -20 -20 -20 -20 -20 -20 -20 -20 -20 -20 -20 -20 -20 -20 -20 -20 -20 -20 -20 -20 -20 -20 -20 -20 -20 -20 -20 -20 -20 -20 -20 -20 -20 -20 -20 -17 -13 -11 11 19 15
-20 -20 -20 -20 -20 -20 -20 -20 -20 -20 -20 -20 -20 -20 -20 -20 -20 -20 -20 -20 -20 -20 -20 -20 -20 -20 -20 -20 -20 -20 -20 -20 -20 -20 -20 -20 -20 -20 -20 -20 -20 -20 -20 -20 -15
-20 -20 -20 -20 -20 -20 -20 -20 -20 -20 -20 -20 -20 -20 -20 -20 -20 -20 -20 -20 -20 -20 -20 -20 -20 -20 -20 -20 -20 -20 -20 -20 -20 -20 -20 -20 -20 -20 -20 -20 -20 -20 -20 -20 -20
-20 -20 -20 -20 -20 -20 -20 -20 -20 -20 -20 -20 -20 -20 -20 -20 -20 -20 -20 -20 -20 -20 -20 -20 -20 -20 -20 -20 -20 -20 -20 -20 -20 -20 -20 -20 -20 -20 -20 -20 -20 -20 -20 -20 -20
-20 -20 -20 -20 -20 -20 -20 -20 -20 -20 -20 -20 -20 -20 -20 -20 -20 -20 -20 -20 -20 -20 -20 -20 -20 -20 -20 -20 -20 -20 -20 -20 -20 -20 -20 -20 -20 -20 -20 -20 -20 -20 -20 -20 -20

GFSSW_prec_radar_105.txt.gz
Reflectivity
-20 16 14 -20 -20 -20 10 -20 -19 -20 -20 4 34 5 -20 -20 -20 -20 -20 -20 -20 -20 -20 -20 -20 -20 -20 -20 -20 -20 -20 -20 -20 -20 -20 -20 -20 -20 -20 -20 -20 -20 -20 -20 -20
-14 29 25 27 16 -20 -17 -9 -20 -20 -8 -8 23 33 -2 -20 -20 -20 -20 -20 -20 -20 -20 -20 -20 -20 -20 -20 -20 -20 -20 -20 -20 -20 -20 -20 -20 -20 -20 -20 -20 -20 -20 -20 -20
14 10 11 -10 30 -6 -20 -20 -20 -20 -20 32 32 37 25 -20 -20 -20 -20 -20 -20 -20 -20 -20 -20 -20 -20 -20 -20 -20 -20 -20 -20 -20 -20 -20 -20 -20 -20 -20 -20 -20 -20 -20 -20
-14 -2 -20 14 14 12 -20 -20 -20 -15 -20 31 35 29 33 -20 -20 -20 -20 -20 -20 -20 -20 -20 -20 -20 -20 -20 -20 -20 -20 -20 -20 -20 -20 -20 -20 -20 -20 -20 -20 -20 -20 -20 -20
-17 20 -20 -20 -15 24 -11 -20 -20 6 -19 11 32 34 38 14 3 -20 -20 -20 -20 -20 -20 -20 -20 -20 -20 -20 -20 -20 -20 -20 -20 -20 -20 -20 -20 -20 -20 -20 -20 -20 -20 -20 -20
-20 23 -20 -20 11 31 8 -20 -17 5 7 -18 32 34 31 34 4 -20 -20 -20 -20 -20 -20 -20 -20 -20 -20 -20 -20 -20 -20 -20 -20 -20 -20 -20 -20 -20 -20 -20 -20 -20 -20 -20 -20
17 -20 -8 -20 26 22 -20 -20 -20 20 11 29 28 2 18 26 -1 -20 -20 -20 -20 -20 -20 -20 -20 -20 -20 -20 -20 -20 -20 -20 -20 -20 -20 -20 -20 -20 -20 -20 -20 -20 -20 -20 -20
-9 -20 -15 -15 16 -20 3 -20 -20 21 1 18 22 30 23 27 13 -20 -20 -20 -20 -20 -20 -20 -20 -20 -20 -20 -20 -20 -20 -20 -20 -20 -20 -20 -20 -20 -20 -20 -20 -20 -20 -20 -20
16 -7 -20 21 -20 -20 -20 -20 -19 -2 4 33 29 24 15 8 -10 -20 -20 -20 -20 -20 -20 -20 -20 -20 -20 -20 -20 -20 -20 -20 -20 -20 -20 -20 -20 -20 -20 -20 -20 -20 -20 -20 -20
-18 -20 21 -20 -20 -2 4 18 -7 11 27 12 -18 7 4 26 -9 -20 -20 -20 -20 -20 -20 -20 -20 -20 -20 -20 -20 -20 -20 -20 -20 -20 -20 -20 -20 -20 -20 -20 -20 -20 -20 -20 -20
-20 -4 -20 -20 -20 7 23 30 7 26 22 35 2 14 29 -2 -20 -20 -20 -20 -20 -20 -20 -20 -20 -20 -20 -20 -20 -20 -20 -20 -20 -20 -20 -20 -20 -20 -20 -20 -20 -20 -20 -20 -20
-19 -10 -20 -20 -11 -16 -2 6 19 30 33 32 17 22 21 -19 -20 -20 -20 -20 -20 -20 -20 -20 -20 -20 -20 -20 -20 -20 -20 -20 -20 -20 -20 -20 -20 -20 -20 -20 -20 -20 -20 -20 -20
-20 -20 -20 -20 -14 3 24 29 22 18 32 31 24 16 -20 -20 -20 -20 -20 -20 -20 -20 -20 -20 -20 -20 -20 -20 -20 -20 -20 -20 -20 -20 -20 -20 -20 -20 -20 -20 -20 -20 -20 -20 -20
-20 -18 -18 -15 -10 11 34 27 20 16 8 29 1 -19 -20 -20 -20 -20 -20 -20 -20 -20 -20 -20 -20 -20 -20 -20 -20 -20 -20 -20 -20 -20 -20 -20 -20 -20 -20 -20 -20 -20 -20 -20 -20
-20 -20 -10 18 -18 12 -19 -11 7 -3 -20 23 -2 -20 -20 -20 -20 -20 -20 -20 -20 -20 -20 -20 -20 -20 -20 -20 -20 -20 -20 -20 -20 -0 0 -20 6 -20 -20 -20 -20 -19 -20 2 -4
-20 -20 -20 -20 -20 -20 -20 -19 -20 -20 -10 -20 -20 -20 -20 -20 -20 -20 -20 -20 -20 -20 -20 -20 -20 -20 -20 -20 -20 -20 -20 -20 -9 -20 -20 -20 -20 -20 -19 -13 -20 -14 -20 -1 11
-20 -20 -20 -20 -20 -20 -20 -20 -20 -20 -6 -20 -20 -20 -20 -20 -20 -20 -20 -20 -20 -20 -20 -20 -20 -20 -20 -20 -20 -20 -20 -20 -20 -20 -20 -20 -20 -20 -20 -20 -5 7 3 5 17
-20 -20 -20 -20 -20 -20 -20 -20 -20 -6 0 -20 -20 -20 -20 -20 -20 -20 -20 -20 -20 -20 -20 -20 -20 -20 -20 -20 -20 -20 -20 -10 -15 -20 -20 -20 -17 -20 -20 -8 -1 15 -7 21 17
-20 -20 -20 -20 -20 -20 -20 -20 -20 -20 -20 -20 -20 -20 -20 -20 -20 -20 -20 -20 -20 -20 -20 -20 -20 -20 -20 -20 -20 -20 -20 -0 -7 -20 -17 -20 -20 -20 -20 -16 -8 13 -5 24 17
-20 -20 -20 -20 -20 -20 -20 -20 -20 -20 -20 -20 -20 -20 -20 -20 -20 -20 -20 -20 -20 -20 -20 -20 -20 -20 -20 -20 -20 -20 -20 -20 -20 -20 -20 -20 -20 -20 -19 -6 -8 -6 20 23 29
-20 -20 -20 -20 -20 -20 -20 -20 -20 -20 -20 -20 -20 -20 -20 -20 -20 -20 -20 -20 -20 -20 -20 -20 -19 -20 -20 -20 -20 -20 -20 -20 -20 -20 -20 -20 -20 -16 -4 -8 -11 -10 11 19 24
-20 -20 -20 -20 -20 -20 -20 -20 -20 -20 -20 -20 -20 -20 -20 -20 -20 -20 -20 -20 -20 -20 -20 -16 -4 -20 -20 -20 -20 -20 -20 -20 -20 -20 -20 -20 -20 -20 -19 -19 -3 -20 -20 -9 7
-20 -20 -20 -20 -20 -20 -20 -20 -20 -20 -20 -20 -20 -20 -20 -20 -20 -20 -20 -20 -20 -20 -20 -20 -20 -20 -20 -20 -20 -20 -20 -20 -20 -20 -20 -20 -20 -20 -20 -20 -20 -20 -18 -20 -20
-20 -20 -20 -20 -20 -20 -20 -20 -20 -20 -20 -20 -20 -20 -20 -20 -20 -20 -20 -20 -20 -20 -20 -19 -20 -20 -20 -20 -20 -20 -20 -20 -20 -20 -20 -20 -20 -20 -20 -20 -20 -20 -20 -20 -20
-20 -20 -20 -20 -20 -20 -20 -20 -20 -20 -20 -20 -20 -20 -20 -20 -20 -20 -20 -20 -20 -20 -20 -20 -20 -20 -20 -20 -20 -20 -20 -20 -20 -20 -20 -20 -20 -20 -20 -20 -20 -20 -20 -20 -20
-20 -20 -20 -20 -20 -20 -20 -20 -20 -20 -20 -20 -20 -20 -20 -20 -20 -20 -20 -20 -20 -20 -20 -20 -20 -20 -20 -20 -20 -20 -20 -20 -20 -20 -20 -20 -20 -20 -20 -20 -20 -20 -20 -20 -20
-20 -20 -20 -20 -20 -20 -20 -20 -20 -20 -20 -20 -20 -20 -20 -20 -20 -20 -20 -20 -20 -20 -20 -20 -20 -20 -20 -20 -20 -20 -20 -20 -20 -20 -20 -20 -20 -20 -20 -20 -20 -20 -20 -20 -20

GFSSW_prec_radar_108.txt.gz
Reflectivity
24 -20 10 24 -20 -20 21 19 9 14 3 4 27 -2 -20 -20 -20 -20 -20 -20 -20 -20 -20 -20 -20 -20 -20 -20 -20 -20 -20 -20 -20 -20 -20 -20 -20 -20 -20 -20 -20 -20 -20 -20 -20
-20 -20 -20 18 16 -13 -20 -8 -15 -20 -20 -20 33 31 -17 -20 -20 -20 -20 -20 -20 -20 -20 -20 -20 -20 -20 -20 -20 -20 -20 -20 -20 -20 -20 -20 -20 -20 -20 -20 -20 -20 -20 -20 -20
-20 -20 -20 4 28 30 2 -20 -20 -20 -20 -20 27 31 29 -20 -20 -20 -20 -20 -20 -20 -20 -20 -20 -20 -20 -20 -20 -20 -20 -20 -20 -20 -20 -20 -20 -20 -20 -20 -20 -20 -20 -20 -20
-18 -20 -20 -20 27 22 19 -5 -20 -20 -20 -18 31 34 40 4 -20 -20 -20 -20 -20 -20 -20 -20 -20 -20 -20 -20 -20 -20 -20 -20 -20 -20 -20 -20 -20 -20 -20 -20 -20 -20 -20 -20 -20
-13 -20 -20 -20 17 26 28 -20 -20 -20 -17 -8 27 29 18 16 -3 -20 -20 -20 -20 -20 -20 -20 -20 -20 -20 -20 -20 -20 -20 -20 -20 -20 -20 -20 -20 -20 -20 -20 -20 -20 -20 -20 -20
6 -20 -20 -20 -20 7 25 -20 -20 -20 -20 19 3 28 31 22 -8 -20 -20 -20 -20 -20 -20 -20 -20 -20 -20 -20 -20 -20 -20 -20 -20 -20 -20 -20 -20 -20 -20 -20 -20 -20 -20 -20 -20
-19 -20 -20 -20 -20 35 -10 -20 -20 -20 -20 28 30 36 32 27 -20 -20 -20 -20 -20 -20 -20 -20 -20 -20 -20 -20 -20 -20 -20 -20 -20 -20 -20 -20 -20 -20 -20 -20 -20 -20 -20 -20 -20
-20 -20 -20 -19 22 14 -20 -20 -20 -20 15 30 33 33 33 31 2 -20 -20 -20 -20 -20 -20 -20 -20 -20 -20 -20 -20 -20 -20 -20 -20 -20 -20 -20 -20 -20 -20 -20 -20 -20 -20 -20 -20
-20 -20 -20 -14 -18 -20 -20 -20 -20 -20 33 21 28 27 33 26 6 -20 -20 -20 -20 -20 -20 -20 -20 -20 -20 -20 -20 -20 -20 -20 -20 -20 -20 -20 -20 -20 -20 -20 -20 -20 -20 -20 -20
-20 -20 -20 -20 3 -16 -20 -20 22 16 38 17 36 30 26 -3 -18 -20 -20 -20 -20 -20 -20 -20 -20 -20 -20 -20 -20 -20 -20 -20 -20 -20 -20 -20 -20 -20 -20 -20 -20 -20 -20 -20 -20
-20 -7 -7 19 -14 23 11 28 20 34 7 21 34 20 23 28 -20 -20 -20 -20 -20 -20 -20 -20 -20 -20 -20 -20 -20 -20 -20 -20 -20 -20 -20 -20 -20 -20 -20 -20 -20 -20 -20 -20 -20
-12 -18 -20 12 -9 4 23 11 33 30 34 28 12 27 15 -18 -20 -20 -20 -20 -20 -20 -20 -20 -20 -20 -20 -20 -20 -20 -20 -20 -20 -20 -20 -20 -20 -20 -20 -20 -20 -20 -20 -20 -20
-20 -20 -20 -20 -20 -1 18 8 18 -9 23 -7 6 10 -14 -20 -20 -20 -20 -20 -20 -20 -20 -20 -20 -20 -20 -20 -20 -20 -20 -20 -20 -20 -20 -20 -20 -20 -20 -20 -20 -20 -18 -1 -19
-20 -20 -20 -20 -19 7 8 -1 2 -20 -20 14 -9 -19 -20 -20 -20 -20 -20 -20 -20 -20 -20 -20 -20 -20 -20 -20 -20 -20 -20 -20 -20 -20 -20 -20 -20 -20 -20 -20 -20 -20 -20 -17 -19
-20 -20 -20 -20 -2 -2 -20 -20 -20 -20 -20 -2 -8 -20 -20 -20 -20 -20 -20 -20 -20 -20 -20 -20 -20 -20 -20 -20 -20 -20 -20 -20 -20 1 3 -20 -0 -20 -20 -20 -20 -20 -6 4 -14
-20 -20 -20 -20 -20 -20 -20 -20 -20 -20 -9 -5 -20 -20 -20 -20 -20 -20 -20 -20 -20 -20 -20 -20 -20 -20 -20 -20 -20 -20 -20 -20 -20 -20 -8 -20 -20 -20 -20 -18 -4 -20 -7 -13 -16
-20 -20 -20 -20 -20 -20 -20 -20 -20 -12 -18 -20 -17 -20 -20 -20 -20 -20 -20 -20 -20 -20 -20 -20 -20 -20 -20 -20 -20 -20 -19 -17 -15 -12 -20 -20 -11 -20 -20 -20 0 8 -16 -1 -4
-20 -20 -20 -20 -20 -20 -20 -20 -20 6 -2 -20 -20 -20 -20 -20 -20 -20 -20 -20 -20 -20 -20 -20 -20 -20 -20 -20 -20 -20 -13 -11 -4 -20 -20 -20 -20 -20 -20 -20 -4 1 -10 -20 -3
-20 -20 -20 -20 -20 -20 -20 -20 -7 -20 -20 -20 -20 -20 -20 -20 -20 -20 -20 -20 -20 -20 -20 -20 -20 -20 -20 -20 -20 -20 -18 -20 -8 0 2 -20 -20 -20 -20 -20 -18 10 -20 -20 -10
-20 -20 -20 -20 -20 -20 -20 -20 -20 -20 -20 -20 -20 -20 -20 -20 -20 -20 -20 -20 -20 -20 -20 -20 -20 -20 -20 -20 -20 -20 -20 -5 6 -19 -20 -20 -20 -20 -20 -20 1 -10 -20 -20 7
-20 -20 -20 -20 -20 -20 -20 -20 -20 -20 -20 -20 -20 -20 -20 -20 -20 -20 -20 -20 -20 -20 -20 -20 -20 -20 -20 -20 -20 -20 -13 -20 -20 -20 -20 -20 -20 -20 -20 -20 -11 -4 -6 -20 8
-20 -20 -20 -20 -20 -20 -20 -20 -20 -20 -20 -20 -20 -20 -20 -20 -20 -20 -20 -20 -20 -20 -20 -20 -20 -20 -20 -20 -20 -20 -20 -20 -20 -20 -20 -20 -20 -20 -20 -20 -9 -20 -19 -20 -10
-20 -20 -20 -20 -20 -20 -20 -20 -20 -20 -20 -20 -20 -20 -20 -20 -20 -20 -20 -20 -20 -20 -20 -20 -20 -20 -20 -20 -20 -20 -20 -20 -20 -20 -20 -20 -20 -20 -20 -20 -20 -9 -20 -20 -20
-20 -20 -20 -20 -20 -20 -20 -20 -20 -20 -20 -20 -20 -20 -20 -20 -20 -20 -20 -20 -20 -20 -20 -20 -20 -20 -20 -20 -20 -20 -20 -20 -20 -20 -20 -20 -20 -20 -20 -20 -20 -20 -20 -20 -20
-20 -20 -20 -20 -20 -20 -20 -20 -20 -20 -20 -20 -20 -20 -20 -20 -20 -20 -20 -20 -20 -20 -20 -20 -20 -20 -20 -20 -20 -20 -20 -20 -20 -20 -20 -20 -20 -20 -20 -20 -20 -20 -20 -20 -20
-20 -20 -20 -20 -20 -20 -20 -20 -20 -20 -20 -20 -20 -20 -20 -20 -20 -20 -20 -20 -20 -20 -20 -20 -20 -20 -20 -20 -20 -20 -20 -20 -20 -20 -20 -20 -20 -20 -20 -20 -20 -20 -20 -20 -20
-20 -20 -20 -20 -20 -20 -20 -20 -20 -20 -20 -20 -20 -20 -20 -20 -20 -20 -20 -20 -20 -20 -20 -20 -20 -20 -20 -20 -20 -20 -20 -20 -20 -20 -20 -20 -20 -20 -20 -20 -20 -20 -20 -20 -20

GFSSW_prec_radar_111.txt.gz
Reflectivity
2 2 21 2 16 -20 -20 -20 -14 -8 -0 20 38 6 -20 -20 -20 -20 -20 -20 -20 -20 -20 -20 -20 -20 -20 -20 -20 -20 -20 -20 -20 -20 -20 -20 -20 -20 -20 -20 -20 -20 -20 -20 -20
-3 30 32 20 12 -20 -20 -20 -20 -20 -1 33 29 31 -19 -20 -20 -20 -20 -20 -20 -20 -20 -20 -20 -20 -20 -20 -20 -20 -20 -20 -20 -20 -20 -20 -20 -20 -20 -20 -20 -20 -20 -20 -20
-10 23 -18 16 15 -1 -20 -20 -20 -20 -3 12 29 22 15 -20 -20 -20 -20 -20 -20 -20 -20 -20 -20 -20 -20 -20 -20 -20 -20 -20 -20 -20 -20 -20 -20 -20 -20 -20 -20 -20 -20 -20 -20
-20 -20 -20 -18 -16 -17 10 -20 -20 -20 -20 30 32 31 33 -10 -20 -20 -20 -20 -20 -20 -20 -20 -20 -20 -20 -20 -20 -20 -20 -20 -20 -20 -20 -20 -20 -20 -20 -20 -20 -20 -20 -20 -20
-20 -20 -20 -6 -20 -20 16 -20 -20 -20 -20 27 27 26 32 17 -18 -20 -20 -20 -20 -20 -20 -20 -20 -20 -20 -20 -20 -20 -20 -20 -20 -20 -20 -20 -20 -20 -20 -20 -20 -20 -20 -20 -20
-20 -20 -20 -10 -20 -12 11 -20 -20 -20 -13 11 8 16 30 27 -20 -20 -20 -20 -20 -20 -20 -20 -20 -20 -20 -20 -20 -20 -20 -20 -20 -20 -20 -20 -20 -20 -20 -20 -20 -20 -20 -20 -20
2 -20 -20 -20 -20 -19 6 -20 -20 -20 -5 19 -19 -0 24 31 -1 -20 -20 -20 -20 -20 -20 -20 -20 -20 -20 -20 -20 -20 -20 -20 -20 -20 -20 -20 -20 -20 -20 -20 -20 -20 -20 -20 -20
4 -20 -20 3 -20 -16 -20 -20 -20 0 23 28 8 -1 14 25 -20 -20 -20 -20 -20 -20 -20 -20 -20 -20 -20 -20 -20 -20 -20 -20 -20 -20 -20 -20 -20 -20 -20 -20 -20 -20 -20 -20 -20
2 2 3 5 2 -13 -20 -20 -20 27 32 23 13 35 23 4 -10 -20 -20 -20 -20 -20 -20 -20 -20 -20 -20 -20 -20 -20 -20 -20 -20 -20 -20 -20 -20 -20 -20 -20 -20 -20 -20 -20 -20
-20 -13 -20 -20 -20 -20 -20 18 24 32 28 19 26 25 26 12 -19 -20 -20 -20 -20 -20 -20 -20 -20 -20 -20 -20 -20 -20 -20 -20 -20 -20 -20 -20 -20 -20 -20 -20 -20 -20 -20 -20 -20
-20 -20 -6 11 22 -20 16 18 28 33 19 31 27 26 31 24 9 -20 -20 -20 -20 -20 -20 -20 -20 -20 -20 -20 -20 -20 -20 -20 -20 -20 -20 -20 -20 -20 -20 -20 -20 -20 -20 -20 -20
-20 -11 -9 28 -17 -10 9 -6 28 25 34 33 32 29 27 12 -20 -20 -20 -20 -20 -20 -20 -20 -20 -20 -20 -20 -20 -20 -20 -20 -20 -20 -20 -20 -20 -20 -20 -20 -20 -20 -20 -20 -20
-20 -20 -10 -7 -13 -11 13 -15 17 14 33 31 31 23 10 -2 -20 -20 -20 -20 -20 -20 -20 -20 -20 -20 -20 -20 -20 -20 -20 -20 -20 -20 -20 -20 -20 -20 -20 -20 -20 -20 -20 -20 -20
-20 -20 -20 -8 18 28 9 8 -2 8 -12 2 12 3 -8 -20 -20 -20 -20 -20 -20 -20 -20 -20 -20 -20 -20 -20 -20 -20 -20 -20 -20 -20 -20 -20 -20 -20 -20 -20 -20 -20 -20 -20 -20
-20 -20 -20 -20 -0 2 -20 -20 -20 -11 -19 -20 -4 -20 -20 -20 -20 -20 -20 -20 -20 -20 -20 -20 -20 -20 -20 -20 -20 -20 -20 -20 -20 -20 -10 -20 -20 -20 -20 -20 -20 -20 -20 -20 -20
-20 -20 -20 -20 -20 -20 -20 -20 -20 -5 -2 -3 -20 -20 -20 -20 -20 -20 -20 -20 -20 -20 -20 -20 -20 -20 -20 -20 -20 -20 -20 -20 -18 -20 -20 -20 -20 -20 -20 -20 -20 -20 -12 -19 -4
-20 -20 -20 -20 -20 -20 -20 -20 -14 -6 -20 -20 -20 -20 -20 -20 -20 -20 -20 -20 -20 -20 -20 -20 -20 -20 -20 -20 -20 -20 -20 -15 -9 -20 -20 -20 -20 -20 -20 -20 -20 -19 2 -20 -7
-20 -20 -20 -20 -20 -20 -20 -20 -20 -12 -18 -20 -20 -20 -20 -20 -20 -20 -20 -20 -20 -20 -20 -19 -20 -20 -20 -20 -19 -20 -20 -20 -20 -20 -18 -20 -20 -20 -20 -20 -20 -20 -20 -15 -18
-20 -20 -20 -20 -20 -20 -20 -20 -1 -20 -20 -20 -20 -20 -20 -20 -20 -20 -20 -20 -20 -20 -20 -20 -20 -20 -20 -20 -20 -20 -16 -20 -17 -8 -6 -20 -20 -20 -20 -20 -20 -20 -12 -3 -20
-20 -20 -20 -20 -20 -20 -20 -20 -20 -20 -20 -20 -20 -20 -20 -20 -20 -20 -20 -20 -20 -20 -20 -20 -20 -20 -20 -20 -20 -20 -20 -20 -9 -15 -20 -20 -20 -20 -20 -20 -20 -20 -11 -20 -1
-20 -20 -20 -20 -20 -20 -20 -20 -20 -20 -20 -20 -20 -20 -20 -20 -20 -20 -20 -20 -20 -20 -20 -20 -20 -20 -20 -20 -20 -20 -20 -20 -20 -20 -16 -20 -20 -20 -20 -20 -20 -20 -18 -20 -8
-20 -20 -20 -20 -20 -20 -20 -20 -20 -20 -20 -20 -20 -20 -20 -20 -20 -20 -20 -20 -20 -20 -20 -20 -20 -20 -20 -20 -20 -20 -20 -20 -20 -20 -20 -20 -20 -20 -20 -20 -20 -20 -20 -20 -20
-20 -20 -20 -20 -20 -20 -20 -20 -20 -20 -20 -20 -20 -20 -20 -20 -20 -20 -20 -20 -20 -20 -20 -20 -20 -20 -20 -20 -20 -20 -20 -20 -20 -20 -20 -20 -20 -20 -20 -20 -20 -20 -20 -20 -20
-20 -20 -20 -20 -20 -20 -20 -20 -20 -20 -20 -20 -20 -20 -20 -20 -20 -20 -20 -20 -20 -20 -20 -20 -20 -20 -20 -20 -20 -20 -20 -20 -20 -20 -20 -20 -20 -20 -20 -20 -20 -20 -20 -20 -20
-20 -20 -20 -20 -20 -20 -20 -20 -20 -20 -20 -20 -20 -20 -20 -20 -20 -20 -20 -20 -20 -20 -20 -20 -20 -20 -20 -20 -20 -20 -20 -20 -20 -20 -20 -20 -20 -20 -20 -20 -20 -20 -20 -20 -20
-20 -20 -20 -20 -20 -20 -20 -20 -20 -20 -20 -20 -20 -20 -20 -20 -20 -20 -20 -20 -20 -20 -20 -20 -20 -20 -20 -20 -20 -20 -20 -20 -20 -20 -20 -20 -20 -20 -20 -20 -20 -20 -20 -20 -20
-20 -20 -20 -20 -20 -20 -20 -20 -20 -20 -20 -20 -20 -20 -20 -20 -20 -20 -20 -20 -20 -20 -20 -20 -20 -20 -20 -20 -20 -20 -20 -20 -20 -20 -20 -20 -20 -20 -20 -20 -20 -20 -20 -20 -20

GFSSW_prec_radar_114.txt.gz
Reflectivity
27 12 18 32 23 -20 -20 -20 -20 -20 -20 -18 32 15 -20 -20 -20 -20 -20 -20 -20 -20 -20 -20 -20 -20 -20 -20 -20 -20 -20 -20 -20 -20 -20 -20 -20 -20 -20 -20 -20 -20 -20 -20 -20
23 10 -20 -1 30 -20 -20 -20 -20 -20 -20 -20 28 39 -11 -20 -20 -20 -20 -20 -20 -20 -20 -20 -20 -20 -20 -20 -20 -20 -20 -20 -20 -20 -20 -20 -20 -20 -20 -20 -20 -20 -20 -20 -20
-18 -20 -20 -19 35 -20 -20 -20 -20 -20 -20 -20 12 28 17 -20 -20 -18 -20 -20 -20 -20 -20 -20 -20 -20 -20 -20 -20 -20 -20 -20 -20 -20 -20 -20 -20 -20 -20 -20 -20 -20 -20 -20 -20
-20 -20 -5 -6 8 -20 -20 -20 -20 -20 -20 19 21 33 35 -19 -11 -20 -20 -20 -20 -20 -20 -20 -20 -20 -20 -20 -20 -20 -20 -20 -20 -20 -20 -20 -20 -20 -20 -20 -20 -20 -20 -20 -20
-20 -16 -9 -20 -20 -20 -20 -20 -20 -20 -20 3 30 36 37 -9 -20 -20 -20 -20 -20 -20 -20 -20 -20 -20 -20 -20 -20 -20 -20 -20 -20 -20 -20 -20 -20 -20 -20 -20 -20 -20 -20 -20 -20
5 2 -20 -20 -20 -20 -20 -20 -20 -20 -2 24 34 35 37 1 -20 -20 -20 -20 -20 -20 -20 -20 -20 -20 -20 -20 -20 -20 -20 -20 -20 -20 -20 -20 -20 -20 -20 -20 -20 -20 -20 -20 -20
-20 -20 -20 -20 -20 -20 -20 -20 -20 -20 27 28 34 1 6 12 -20 -20 -20 -20 -20 -20 -20 -20 -20 -20 -20 -20 -20 -20 -20 -20 -20 -20 -20 -20 -20 -20 -20 -20 -20 -20 -20 -20 -20
-20 -20 -16 -9 10 -20 -20 -20 -20 -3 28 19 -19 22 23 21 -14 -20 -20 -20 -20 -20 -20 -20 -20 -20 -20 -20 -20 -20 -20 -20 -20 -20 -20 -20 -20 -20 -20 -20 -20 -20 -20 -20 -20
-7 -1 14 1 -13 -20 -20 -20 -18 31 32 -16 8 21 32 21 -11 -20 -20 -20 -20 -20 -20 -20 -20 -20 -20 -20 -20 -20 -20 -20 -20 -20 -20 -20 -20 -20 -20 -20 -20 -20 -20 -20 -20
1 -20 -13 -19 -17 -20 2 19 33 15 24 20 9 19 28 19 2 -20 -20 -20 -20 -20 -20 -20 -20 -20 -20 -20 -20 -20 -20 -20 -20 -20 -20 -20 -20 -20 -20 -20 -20 -20 -20 -20 -20
22 -6 -20 -20 -20 14 -20 -8 -2 9 9 13 -17 -20 -20 1 9 -20 -20 -20 -20 -20 -20 -20 -20 -20 -20 -20 -20 -20 -20 -20 -20 -20 -20 -20 -20 -20 -20 -20 -20 -20 -20 -20 -20
-8 -9 -5 -20 -20 -4 -17 -17 -7 3 28 21 -13 -20 -20 -20 -20 -20 -20 -20 -20 -20 -20 -20 -20 -20 -20 -20 -20 -20 -20 -20 -20 -20 -20 -20 -20 -20 -20 -20 -20 -20 -20 -20 -20
-20 -20 -20 -20 -13 21 -13 -1 8 11 29 30 26 20 11 1 -20 -20 -20 -20 -20 -20 -20 -20 -20 -20 -20 -20 -20 -20 -20 -20 -20 -20 -20 -20 -20 -20 -20 -20 -20 -20 -20 -20 -20
-20 -20 -20 -20 1 30 28 15 25 11 -6 24 31 23 18 -20 -20 -20 -20 -20 -20 -20 -20 -20 -20 -20 -20 -20 -20 -20 -20 -20 -20 -20 -20 -20 -20 -20 -20 -20 -20 -20 -20 -20 -20
-20 -20 -20 -20 -20 -20 -20 -6 1 -1 -8 21 12 -20 -20 -20 -20 -20 -20 -20 -20 -20 -20 -20 -20 -20 -20 -20 -20 -20 -20 -20 -20 -20 -20 -20 -20 -20 -20 -20 -20 -20 -20 -20 -20
-20 -20 -20 -20 -20 -20 -20 -20 -20 -20 -19 -6 -20 -20 -20 -20 -20 -20 -20 -20 -20 -20 -20 -20 -20 -20 -20 -20 -20 -20 -20 -20 -20 -20 -20 -20 -20 -20 -20 -20 -20 -20 -20 -20 -20
-20 -20 -20 -20 -20 -20 -20 -20 -20 -13 -20 -20 -20 -20 -20 -20 -20 -20 -20 -20 -20 -20 -20 -20 -20 -20 -20 -20 -20 -20 -20 -20 -20 -20 -20 -20 -20 -20 -20 -20 -20 -20 -20 -20 -20
-20 -20 -20 -20 -20 -20 -20 -20 -20 -20 -20 -20 -20 -20 -20 -20 -20 -20 -20 -20 -20 -20 -20 -20 -20 -20 -20 -20 -20 -20 -20 -20 -20 -20 -20 -20 -20 -20 -20 -20 -20 -20 -20 -20 -20
-20 -20 -20 -20 -20 -20 -20 -20 -20 -20 -20 -20 -20 -20 -20 -20 -20 -20 -20 -20 -20 -20 -20 -20 -20 -20 -20 -20 -20 -20 -20 -20 -20 -20 -18 -20 -20 -20 -20 -20 -20 -20 -20 -20 -20
-20 -20 -20 -20 -20 -20 -20 -20 -20 -20 -20 -20 -20 -20 -20 -20 -20 -20 -20 -20 -20 -20 -20 -20 -20 -20 -20 -20 -20 -20 -20 -20 -18 -20 -20 -20 -20 -20 -20 -20 -20 -20 -20 -20 -20
-20 -20 -20 -20 -20 -20 -20 -20 -20 -20 -20 -20 -20 -20 -20 -20 -20 -20 -20 -20 -20 -20 -20 -20 -20 -20 -20 -20 -20 -20 -20 -20 -20 -20 -20 -20 -20 -20 -20 -20 -20 -20 -20 -20 -20
-20 -20 -20 -20 -20 -20 -20 -20 -20 -20 -20 -20 -20 -20 -20 -20 -20 -20 -20 -20 -20 -20 -20 -20 -20 -20 -20 -20 -20 -20 -20 -20 -20 -20 -20 -20 -20 -20 -20 -20 -20 -20 -20 -20 -20
-20 -20 -20 -20 -20 -20 -20 -20 -20 -20 -20 -20 -20 -20 -20 -20 -20 -20 -20 -20 -20 -20 -20 -20 -20 -20 -20 -20 -20 -20 -20 -20 -20 -20 -20 -20 -20 -20 -20 -20 -20 -20 -20 -20 -20
-20 -20 -20 -20 -20 -20 -20 -20 -20 -20 -20 -20 -20 -20 -20 -20 -20 -20 -20 -20 -20 -20 -20 -20 -20 -20 -20 -20 -20 -20 -20 -20 -20 -20 -20 -20 -20 -20 -20 -20 -20 -20 -20 -20 -20
-20 -20 -20 -20 -20 -20 -20 -20 -20 -20 -20 -20 -20 -20 -20 -20 -20 -20 -20 -20 -20 -20 -20 -20 -20 -20 -20 -20 -20 -20 -20 -20 -20 -20 -20 -20 -20 -20 -20 -20 -20 -20 -20 -20 -20
-20 -20 -20 -20 -20 -20 -20 -20 -20 -20 -20 -20 -20 -20 -20 -20 -20 -20 -20 -20 -20 -20 -20 -20 -20 -20 -20 -20 -20 -20 -20 -20 -20 -20 -20 -20 -20 -20 -20 -20 -20 -20 -20 -20 -20
-20 -20 -20 -20 -20 -20 -20 -20 -20 -20 -20 -20 -20 -20 -20 -20 -20 -20 -20 -20 -20 -20 -20 -20 -20 -20 -20 -20 -20 -20 -20 -20 -20 -20 -20 -20 -20 -20 -20 -20 -20 -20 -20 -20 -20

GFSSW_prec_radar_117.txt.gz
Reflectivity
6 14 32 22 30 25 20 -20 -20 -20 23 13 37 -17 -20 -20 -20 -20 -20 -20 -20 -20 -20 -20 -20 -20 -20 -20 -20 -20 -20 -20 -20 -20 -20 -20 -20 -20 -20 -20 -20 -20 -20 -20 -20
33 27 40 34 21 8 -20 -20 -20 -20 15 17 30 33 -20 -20 -20 -20 -20 -20 -20 -20 -20 -20 -20 -20 -20 -20 -20 -20 -20 -20 -20 -20 -20 -20 -20 -20 -20 -20 -20 -20 -20 -20 -20
26 11 9 23 29 29 -19 -20 -20 -20 2 3 12 34 -18 -20 -20 -20 -20 -20 -20 -20 -20 -20 -20 -20 -20 -20 -20 -20 -20 -20 -20 -20 -20 -20 -20 -20 -20 -20 -20 -20 -20 -20 -20
-16 -20 24 25 14 21 -20 -20 -20 -20 -15 24 -3 31 1 -20 -20 -20 -20 -20 -20 -20 -20 -20 -20 -20 -20 -20 -20 -20 -20 -20 -20 -20 -20 -20 -20 -20 -20 -20 -20 -20 -20 -20 -20
-9 -9 28 24 2 3 -20 -20 -20 -20 10 -6 -10 26 12 -20 -20 -20 -20 -20 -20 -20 -20 -20 -20 -20 -20 -20 -20 -20 -20 -20 -20 -20 -20 -20 -20 -20 -20 -20 -20 -20 -20 -20 -20
-20 -20 -20 -16 -17 -19 -20 -20 -20 22 7 -20 -18 7 17 -11 -20 -20 -20 -20 -20 -20 -20 -20 -20 -20 -20 -20 -20 -20 -20 -20 -20 -20 -20 -20 -20 -20 -20 -20 -20 -20 -20 -20 -20
-20 -20 -20 3 -7 -20 -20 -20 -20 16 -12 -17 -20 11 15 -11 -20 -20 -20 -20 -20 -20 -20 -20 -20 -20 -20 -20 -20 -20 -20 -20 -20 -20 -20 -20 -20 -20 -20 -20 -20 -20 -20 -20 -20
-20 -20 -20 -20 -20 -20 -20 17 -6 26 1 3 13 27 32 1 -20 -20 -20 -20 -20 -20 -20 -20 -20 -20 -20 -20 -20 -20 -20 -20 -20 -20 -20 -20 -20 -20 -20 -20 -20 -20 -20 -20 -20
-20 -20 -20 -20 -20 -20 -10 26 16 28 21 15 27 25 -2 -12 -20 -20 -20 -20 -20 -20 -20 -20 -20 -20 -20 -20 -20 -20 -20 -20 -20 -20 -20 -20 -20 -20 -20 -20 -20 -20 -20 -20 -20
-20 24 -20 -20 -20 20 10 27 33 21 6 13 12 22 13 -20 -20 -20 -20 -20 -20 -20 -20 -20 -20 -20 -20 -20 -20 -20 -20 -20 -20 -20 -20 -20 -20 -20 -20 -20 -20 -20 -20 -20 -20
-9 -20 -20 -20 22 -18 -7 -10 30 24 18 6 -8 10 -7 -20 -20 -20 -20 -20 -20 -20 -20 -20 -20 -20 -20 -20 -20 -20 -20 -20 -20 -20 -20 -20 -20 -20 -20 -20 -20 -20 -20 -20 -20
-20 -3 -20 -20 -19 8 28 -9 -20 -4 5 5 -8 -20 -3 -16 -20 -20 -20 -20 -20 -20 -20 -20 -20 -20 -20 -20 -20 -20 -20 -20 -20 -20 -20 -20 -20 -20 -20 -20 -20 -20 -20 -20 -20
-20 -20 -20 -20 -16 -17 12 1 -2 -20 6 -19 -20 -20 9 -16 7 -20 -20 -20 -20 -20 -20 -20 -20 -20 -20 -20 -20 -20 -20 -20 -20 -20 -20 -20 -20 -20 -20 -20 -20 -20 -20 -20 -20
-20 -20 -20 -20 -6 15 29 11 -20 -20 -19 13 -20 -20 -20 -20 -20 -20 -20 -20 -20 -20 -20 -20 -20 -20 -20 -20 -20 -20 -20 -20 -20 -20 -20 -20 -20 -20 -20 -20 -20 -20 -20 -20 -20
-20 -20 -20 -0 6 14 9 -20 -20 -20 -7 16 3 -20 -20 -20 -20 -20 -20 -20 -20 -20 -20 -20 -20 -20 -20 -20 -20 -20 -20 -20 -20 -20 -20 -20 -20 -20 -20 -20 -20 -20 -20 -20 -20
-20 -20 -20 -20 -20 -11 1 3 7 -11 -20 -20 -20 -20 -20 -20 -20 -20 -20 -20 -20 -20 -20 -20 -20 -20 -20 -20 -20 -20 -20 -20 -20 -20 -20 -20 -20 -20 -20 -20 -20 -20 -20 -20 -20
-20 -20 -20 -20 -20 -20 -20 -20 -20 -20 -20 -20 -20 -20 -20 -20 -20 -20 -20 -20 -20 -20 -20 -20 -20 -20 -20 -20 -20 -20 -20 -20 -20 -20 -20 -20 -20 -20 -20 -20 -20 -20 -20 -20 -20
-20 -20 -20 -20 -20 -20 -20 -20 -20 -20 -20 -20 -20 -20 -20 -20 -20 -20 -20 -20 -20 -20 -20 -20 -20 -20 -20 -20 -20 -20 -20 -20 -20 -20 -20 -20 -20 -20 -20 -20 -20 -20 -20 -20 -20
-20 -20 -20 -20 -20 -20 -20 -20 -20 -20 -20 -20 -20 -20 -20 -20 -20 -20 -20 -20 -20 -20 -20 -20 -20 -20 -20 -20 -20 -20 -20 -20 -20 -20 -20 -20 -20 -20 -20 -20 -20 -20 -20 -20 -20
-20 -20 -20 -20 -20 -20 -20 -20 -20 -20 -20 -20 -20 -20 -20 -20 -20 -20 -20 -20 -20 -20 -20 -20 -20 -20 -20 -20 -20 -20 -20 -20 -20 -20 -20 -20 -20 -20 -20 -20 -20 -20 -20 -20 -20
-20 -20 -20 -20 -20 -20 -20 -20 -20 -20 -20 -20 -20 -20 -20 -20 -20 -20 -20 -20 -20 -20 -20 -20 -20 -20 -20 -20 -20 -20 -20 -20 -20 -20 -20 -20 -20 -20 -20 -20 -20 -20 -20 -20 -20
-20 -20 -20 -20 -20 -20 -20 -20 -20 -20 -20 -20 -20 -20 -20 -20 -20 -20 -20 -20 -20 -20 -20 -20 -20 -20 -20 -20 -20 -20 -20 -20 -20 -20 -20 -20 -20 -20 -20 -20 -20 -20 -20 -20 -20
-20 -20 -20 -20 -20 -20 -20 -20 -20 -20 -20 -20 -20 -20 -20 -20 -20 -20 -20 -20 -20 -20 -20 -20 -20 -20 -20 -20 -20 -20 -20 -20 -20 -20 -20 -20 -20 -20 -20 -20 -20 -20 -20 -20 -20
-20 -20 -20 -20 -20 -20 -20 -20 -20 -20 -20 -20 -20 -20 -20 -20 -20 -20 -20 -20 -20 -20 -20 -20 -20 -20 -20 -20 -20 -20 -20 -20 -20 -20 -20 -20 -20 -20 -20 -20 -20 -20 -20 -20 -20
-20 -20 -20 -20 -20 -20 -20 -20 -20 -20 -20 -20 -20 -20 -20 -20 -20 -20 -20 -20 -20 -20 -20 -20 -20 -20 -20 -20 -20 -20 -20 -20 -20 -20 -20 -20 -20 -20 -20 -20 -20 -20 -20 -20 -20
-20 -20 -20 -20 -20 -20 -20 -20 -20 -20 -20 -20 -20 -20 -20 -20 -20 -20 -20 -20 -20 -20 -20 -20 -20 -20 -20 -20 -20 -20 -20 -20 -20 -20 -20 -20 -20 -20 -20 -20 -20 -20 -20 -20 -20
-20 -20 -20 -20 -20 -20 -20 -20 -20 -20 -20 -20 -20 -20 -20 -20 -20 -20 -20 -20 -20 -20 -20 -20 -20 -20 -20 -20 -20 -20 -20 -20 -20 -20 -20 -20 -20 -20 -20 -20 -20 -20 -20 -20 -20